[[{"header":{"parameterUnit":"m.s-1","parameterCategory":1,"la1":31.0,"la2":29.5877,"lo1":-88.7671,"lo2":-86.6584,"dy":0.0162,"dx":0.0185,"nx":115,"ny":88,"refTime":"2023-07-13T12:00:00:Z","depth":0,"parameterNumber":2,"parameterNumberName":"U-component_of_WINDS"},"data":[0.0,0.0,0.0,0.0,0.0,0.0,0.0,0.0,0.0,0.0,0.0,0.0,0.0,0.0,0.0,0.0,0.0,0.0,0.0,0.0,0.0,0.0,0.0,0.0,0.0,0.0,0.0,0.0,0.0,0.0,0.0,0.0,0.0,0.0,0.0,0.0,0.0,0.0,0.0,0.0,0.0,0.0,0.0,0.0,0.0,0.0,0.0,0.0,0.0,0.0,0.0,0.0,0.0,0.0,0.0,0.0,0.0,0.0,0.0,0.0,0.0,0.0,0.0,0.0,0.0,0.0,0.0,0.0,0.0,0.0,0.0,0.0,0.0,0.0,0.0,0.0,0.0,0.0,0.0,0.0,0.0,0.0,0.0,0.0,0.0,0.0,0.0,0.0,0.0,0.0,0.0,0.0,0.0,0.0,0.0,0.0,0.0,0.0,0.0,0.0,0.0,0.0,0.0,0.0,0.0,0.0,0.0,0.0,0.0,0.0,0.0,0.0,0.0,0.0,0.0,0.0,0.0,0.0,0.0,0.0,0.0,0.0,0.0,0.0,0.0,0.0,0.0,0.0,0.0,0.0,0.0,0.0,0.0,0.0,0.0,0.0,0.0,0.0,0.0,0.0,0.0,0.0,0.0,0.0,0.0,0.0,0.0,0.0,0.0,0.0,0.0,0.0,0.0,0.0,0.0,0.0,0.0,0.0,0.0,0.0,0.0,0.0,0.0,0.0,0.0,0.0,0.0,0.0,0.0,0.0,0.0,0.0,0.0,0.0,0.0,0.0,0.0,0.0,0.0,0.0,0.0,0.0,0.0,0.0,0.0,0.0,0.0,0.0,0.0,0.0,0.0,0.0,0.0,0.0,0.0,0.0,0.0,0.0,0.0,0.0,0.0,0.0,0.0,0.0,0.0,0.0,0.0,0.0,0.0,0.0,0.0,0.0,0.0,0.0,0.0,0.0,0.0,0.0,0.0,0.0,0.0,0.0,0.0,0.0,0.0,0.0,0.0,0.0,0.0,0.0,0.0,0.0,0.0,0.0,0.0,0.0,0.0,0.0,0.0,0.0,0.0,0.0,0.0,0.0,0.0,0.0,0.0,0.0,0.0,0.0,0.0,0.0,0.0,0.0,0.0,0.0,0.0,0.0,0.0,0.0,0.0,0.0,0.0,0.0,0.0,0.0,0.0,0.0,0.0,0.0,0.0,0.0,0.0,0.0,0.0,0.0,0.0,0.0,0.0,0.0,0.0,0.0,0.0,0.0,0.0,0.0,0.0,0.0,0.0,0.0,0.0,0.0,0.0,0.0,0.0,0.0,0.0,0.0,0.0,0.0,0.0,0.0,0.0,0.0,0.0,0.0,0.0,0.0,0.0,0.0,0.0,0.0,0.0,0.0,0.0,0.0,0.0,0.0,0.0,0.0,0.0,0.0,0.0,0.0,0.0,0.0,0.0,0.0,0.0,0.0,0.0,0.0,0.0,0.0,0.0,0.0,0.0,0.0,0.0,0.0,0.0,0.0,0.0,0.0,0.0,0.0,0.0,0.0,0.0,0.0,0.0,0.0,0.0,0.0,0.0,0.0,0.0,0.0,0.0,0.0,0.0,0.0,0.0,0.0,0.0,0.0,0.0,0.0,0.0,0.0,0.0,0.0,0.0,0.0,0.0,0.0,0.0,0.0,0.0,0.0,0.0,0.0,0.0,0.0,0.0,0.0,0.0,0.0,0.0,0.0,0.0,0.0,0.0,0.0,0.0,0.0,0.0,0.0,0.0,0.0,0.0,0.0,0.0,0.0,0.0,0.0,0.0,0.0,0.0,0.0,0.0,0.0,0.0,0.0,0.0,0.0,0.0,0.0,0.0,0.0,0.0,0.0,0.0,0.0,0.0,0.0,0.0,0.0,0.0,0.0,0.0,0.0,0.0,0.0,0.0,0.0,0.0,0.0,0.0,0.0,0.0,0.0,0.0,0.0,0.0,0.0,0.0,0.0,0.0,0.0,0.0,0.0,0.0,0.0,0.0,0.0,0.0,0.0,0.0,0.0,0.0,0.0,0.0,0.0,0.0,0.0,0.0,0.0,0.0,0.0,0.0,0.0,0.0,0.0,0.0,0.0,0.0,0.0,0.0,0.0,0.0,0.0,0.0,0.0,0.0,0.0,0.0,0.0,0.0,0.0,0.0,0.0,0.0,0.0,0.0,0.0,0.0,0.0,0.0,0.0,0.0,0.0,0.0,0.0,0.0,0.0,0.0,0.0,0.0,0.0,0.0,0.0,0.0,0.0,0.0,0.0,0.0,0.0,0.0,0.0,0.0,0.0,0.0,0.0,0.0,0.0,0.0,0.0,0.0,0.0,0.0,0.0,0.0,0.0,0.0,0.0,0.0,0.0,0.0,0.0,0.0,0.0,0.0,0.0,0.0,0.0,0.0,0.0,0.0,0.0,0.0,0.0,0.0,0.0,0.0,0.0,0.0,0.0,0.0,0.0,0.0,0.0,0.0,0.0,0.0,0.0,0.0,0.0,0.0,0.0,0.0,0.0,0.0,0.0,0.0,0.0,0.0,0.0,0.0,0.0,0.0,0.0,0.0,0.0,0.0,0.0,0.0,0.0,0.0,0.0,0.0,0.0,0.0,0.0,0.0,0.0,0.0,0.0,0.0,0.0,0.0,0.0,0.0,0.0,0.0,0.0,0.0,0.0,0.0,0.0,0.0,0.0,0.0,0.0,0.0,0.0,0.0,0.0,0.0,0.0,0.0,0.0,0.0,0.0,0.0,0.0,0.0,0.0,0.0,0.0,0.0,0.0,0.0,0.0,0.0,0.0,0.0,0.0,0.0,0.0,0.0,0.0,0.0,0.0,0.0,0.0,0.0,0.0,0.0,0.0,0.0,0.0,0.0,0.0,0.0,0.0,0.0,0.0,0.0,0.0,0.0,0.0,0.0,0.0,0.0,0.0,0.0,0.0,0.0,0.0,0.0,0.0,0.0,0.0,0.0,0.0,0.0,0.0,0.0,0.0,0.0,0.0,0.0,0.0,0.0,0.0,0.0,0.0,0.0,0.0,0.0,0.0,0.0,0.0,0.0,0.0,0.0,0.0,0.0,0.0,0.0,0.0,0.0,0.0,0.0,0.0,0.0,0.0,0.0,0.0,0.0,0.0,0.0,0.0,0.0,0.0,0.0,0.0,0.0,0.0,0.0,0.0,0.0,0.0,0.0,0.0,0.0,0.0,0.0,0.0,0.0,0.0,0.0,0.0,0.0,0.0,0.0,0.0,0.0,0.0,0.0,0.0,0.0,0.0,0.0,0.0,0.0,0.0,0.0,0.0,0.0,0.0,0.0,0.0,0.0,0.0,0.0,0.0,0.0,0.0,0.0,0.0,0.0,0.0,0.0,0.0,0.0,0.0,0.0,0.0,0.0,0.0,0.0,0.0,0.0,0.0,0.0,0.0,0.0,0.0,0.0,0.0,0.0,0.0,0.0,0.0,0.0,0.0,0.0,0.0,0.0,0.0,0.0,0.0,0.0,0.0,0.0,0.0,0.0,0.0,0.0,0.0,0.0,0.0,0.0,0.0,0.0,0.0,0.0,0.0,0.0,0.0,0.0,0.0,0.0,0.0,0.0,0.0,0.0,0.0,0.0,0.0,0.0,0.0,0.0,0.0,0.0,0.0,0.0,0.0,0.0,0.0,0.0,0.0,0.0,0.0,0.0,0.0,0.0,0.0,0.0,0.0,0.0,0.0,0.0,0.0,0.0,0.0,0.0,0.0,0.0,0.0,0.0,0.0,0.0,0.0,0.0,0.0,0.0,0.0,0.0,0.0,0.0,0.0,0.0,0.0,0.0,0.0,0.0,0.0,0.0,0.0,0.0,0.0,0.0,0.0,0.0,0.0,0.0,0.0,0.0,0.0,0.0,0.0,0.0,0.0,0.0,0.0,0.0,0.0,0.0,0.0,0.0,0.0,0.0,0.0,0.0,0.0,0.0,0.0,0.0,0.0,0.0,0.0,0.0,0.0,0.0,0.0,0.0,0.0,0.0,0.0,0.0,0.0,0.0,0.0,0.0,0.0,0.0,0.0,0.0,0.0,0.0,0.0,0.0,0.0,0.0,0.0,0.0,0.0,0.0,0.0,0.0,0.0,0.0,0.0,0.0,0.0,0.0,0.0,0.0,0.0,0.0,0.0,0.0,0.0,0.0,0.0,0.0,0.0,0.0,0.0,0.0,0.0,0.0,0.0,0.0,0.0,0.0,0.0,0.0,0.0,0.0,0.0,0.0,0.0,0.642,0.0,0.0,0.0,0.0,0.0,0.0,0.0,0.0,0.0,0.0,0.0,0.0,0.0,0.0,0.0,0.0,0.0,0.0,0.0,0.0,0.0,0.0,0.0,0.0,0.0,0.0,0.0,0.0,0.0,0.0,0.0,0.0,0.0,0.0,0.0,0.0,0.0,0.0,0.0,0.0,0.0,0.0,0.0,0.0,0.0,0.0,0.0,0.0,0.0,0.0,0.0,0.0,0.0,0.0,0.0,0.0,0.0,0.0,0.0,0.0,0.0,0.0,0.0,0.0,0.0,0.0,0.0,0.0,0.0,0.0,0.0,0.0,0.0,0.0,0.0,0.0,0.0,0.0,0.0,0.0,0.0,0.0,0.0,0.0,0.0,0.0,0.0,0.0,0.0,0.0,0.0,0.0,0.0,0.0,0.0,0.0,0.0,0.0,0.0,0.0,0.0,0.0,0.0,0.0,0.0,0.0,0.0,0.0,0.0,0.0,0.6887,0.6692,0.6603,0.6513,0.6424,0.0,0.0,0.0,0.0,0.0,0.0,0.0,0.0,0.0,0.0,0.0,0.0,0.0,0.0,0.0,0.0,0.0,0.0,0.0,0.0,0.0,0.0,0.0,0.0,0.0,0.0,0.0,0.0,0.0,0.0,0.0,0.0,0.0,0.0,0.0,0.0,0.0,0.0,0.0,0.0,0.0,0.0,0.0,0.0,0.0,0.0,0.0,0.0,0.0,0.0,0.0,0.0,0.0,0.0,0.0,0.0,0.0,0.0,0.0,0.0,0.0,0.0,0.0,0.0,0.0,0.0,0.0,0.0,0.0,0.0,0.0,0.0,0.0,0.0,0.0,0.0,0.0,0.0,0.0,0.0,0.0,0.0,0.0,0.0,0.0,0.0,0.0,0.0,0.0,0.0,0.0,0.0,0.0,0.0,0.0,0.0,0.0,0.0,0.0,0.0,0.0,0.0,0.0,0.0,0.0,0.0,0.0,0.0,0.0,0.0,0.0,0.0,0.6757,0.6656,0.6485,0.0,0.0,0.0,0.0,0.0,0.0,0.0,0.0,0.0,0.0,0.0,0.0,0.0,0.0,0.0,0.0,0.0,0.0,0.0,0.0,0.0,0.0,0.0,0.0,0.0,0.0,0.0,0.0,0.0,0.0,0.0,0.0,0.0,0.0,0.0,0.0,0.0,0.0,0.0,0.0,0.0,0.0,0.0,0.0,0.0,0.0,0.0,0.0,0.0,0.0,0.0,0.0,0.0,0.0,0.0,0.0,0.0,0.0,0.0,0.0,0.0,0.0,0.0,0.0,0.0,0.0,0.0,0.0,0.0,0.0,0.0,0.0,0.0,0.0,0.0,0.0,0.0,0.0,0.0,0.0,0.0,0.0,0.0,0.0,0.0,0.0,0.0,0.0,0.0,0.0,0.0,0.0,0.0,0.0,0.0,0.0,0.0,0.0,0.0,0.0,0.0,0.0,0.0,0.0,0.0,0.0,0.0,0.0,0.0,0.0,0.7208,0.7175,0.7013,0.0,0.666,0.0,0.0,0.0,0.0,0.0,0.0,0.0,0.0,0.0,0.0,0.0,0.0,0.0,0.0,0.0,0.0,0.0,0.0,0.0,0.0,0.0,0.0,0.0,0.0,0.0,0.0,0.0,0.0,0.0,0.0,0.0,0.0,0.0,0.0,0.0,0.0,0.0,0.0,0.0,0.0,0.0,0.0,0.0,0.0,0.0,0.0,0.0,0.0,0.0,0.0,0.0,0.0,0.0,0.0,0.0,0.0,0.0,0.0,0.0,0.0,0.0,0.0,0.0,0.0,0.0,0.0,0.0,0.0,0.0,0.0,0.0,0.0,0.0,0.0,0.0,0.0,0.0,0.0,0.0,0.0,0.0,0.0,0.0,0.0,0.0,0.0,0.0,0.0,0.0,0.0,0.0,0.0,0.0,0.0,0.0,0.0,0.0,0.0,0.0,0.0,0.0,0.0,0.0,0.0,0.0,0.0,0.0,0.0,0.0,0.0,0.733,0.7228,0.6952,0.6765,0.0,0.0,0.0,0.0,0.0,0.0,0.0,0.0,0.0,0.0,0.0,0.0,0.0,0.0,0.0,0.0,0.0,0.0,0.0,0.0,0.0,0.0,0.0,0.0,0.0,0.0,0.0,0.0,0.0,0.0,0.0,0.0,0.0,0.0,0.0,0.0,0.0,0.0,0.0,0.0,0.0,0.0,0.0,0.0,0.0,0.0,0.0,0.0,0.0,0.0,0.0,0.0,0.0,0.0,0.0,0.0,0.0,0.0,0.0,0.0,0.0,0.0,0.0,0.0,0.0,0.0,0.0,0.0,0.0,0.0,0.0,0.0,0.0,0.0,0.0,0.0,0.0,0.0,0.0,0.0,0.0,0.0,0.0,0.0,0.0,0.0,0.0,0.0,0.0,0.0,0.0,0.0,0.0,0.0,0.0,0.0,0.0,0.0,0.0,0.0,0.0,0.0,0.0,0.0,0.0,0.0,0.0,0.0,0.0,0.0,0.748,0.7423,0.7293,0.7001,0.6842,0.6838,0.0,0.0,0.0,0.0,0.0,0.0,0.0,0.0,0.0,0.0,0.0,0.0,0.0,0.0,0.0,0.0,0.0,0.0,0.0,0.0,0.0,0.0,0.0,0.0,0.0,0.0,0.0,0.0,0.0,0.0,0.0,0.0,0.0,0.0,0.0,0.0,0.0,0.0,0.0,0.0,0.0,0.0,0.0,0.0,0.0,0.0,0.0,0.0,0.0,0.0,0.0,0.0,0.0,0.0,0.0,0.0,0.0,0.0,0.0,0.0,0.0,0.0,0.0,0.0,0.0,0.0,0.0,0.0,0.0,0.0,0.0,0.0,0.0,0.0,0.0,0.0,0.0,0.0,0.0,0.0,0.0,0.0,0.0,0.0,0.0,0.0,0.0,0.0,0.0,0.0,0.0,0.0,0.0,0.0,0.0,0.0,0.0,0.0,0.0,0.0,0.0,0.0,0.0,0.0,0.0,0.0,0.0,0.0,0.748,0.748,0.748,0.7464,0.7297,0.7204,0.0,0.0,0.0,0.0,0.0,0.0,0.0,0.0,0.0,0.0,0.0,0.0,0.0,0.0,0.0,0.0,0.0,0.0,0.0,0.0,0.0,0.0,0.0,0.0,0.0,0.0,0.0,0.0,0.0,0.0,0.0,0.0,0.0,0.0,0.0,0.0,0.0,0.0,0.0,0.0,0.0,0.0,0.0,0.0,0.0,0.0,0.0,0.0,0.0,0.0,0.0,0.0,0.0,0.0,0.0,0.0,0.0,0.0,0.0,0.0,0.0,0.0,0.0,0.0,0.0,0.0,0.0,0.0,0.0,0.0,0.0,0.0,0.0,0.0,0.0,0.0,0.0,0.0,0.0,0.0,0.0,0.0,0.0,0.0,0.0,0.0,0.0,0.0,0.0,0.0,0.0,0.0,0.0,0.0,0.0,0.0,0.0,0.0,0.0,0.0,0.0,0.0,0.0,0.0,0.0,0.0,0.0,0.0,0.0,0.748,0.748,0.748,0.7476,0.7317,0.7224,0.0,0.0,0.0,0.0,0.0,0.0,0.0,0.0,0.0,0.0,0.0,0.0,0.0,0.0,0.0,0.0,0.0,0.0,0.0,0.0,0.0,0.0,0.0,0.0,0.0,0.0,0.0,0.0,0.0,0.0,0.0,0.0,0.0,0.0,0.0,0.0,0.0,0.0,0.0,0.0,0.0,0.0,0.0,0.0,0.0,0.0,0.0,0.0,0.0,0.0,0.0,0.0,0.0,0.0,0.0,0.0,0.0,0.0,0.0,0.0,0.0,0.0,0.0,0.0,0.0,0.0,0.0,0.0,0.0,0.0,0.0,0.0,0.0,0.0,0.0,0.0,0.0,0.0,0.0,0.0,0.0,0.0,0.0,0.0,0.0,0.0,0.0,0.0,0.0,0.0,0.0,0.0,0.0,0.0,0.0,0.0,0.0,0.0,0.0,0.0,0.0,0.0,0.0,0.0,0.0,0.0,0.0,0.0,0.0,0.748,0.0,0.748,0.748,0.7597,0.753,0.0,0.0,0.0,0.0,0.0,0.0,0.0,0.0,0.0,0.0,0.0,0.0,0.0,0.0,0.0,0.0,0.0,0.0,0.0,0.0,0.0,0.0,0.0,0.0,0.0,0.0,0.0,0.0,0.0,0.0,0.0,0.0,0.0,0.0,0.0,0.0,0.0,0.0,0.0,0.0,0.0,0.0,0.0,0.0,0.0,0.0,0.0,0.0,0.0,0.0,0.0,0.0,0.0,0.0,0.0,0.0,0.0,0.0,0.0,0.0,0.0,0.0,0.0,0.0,0.0,0.0,0.0,0.0,0.0,0.0,0.0,0.0,0.0,0.0,0.0,0.0,0.0,0.0,0.0,0.0,0.0,0.0,0.0,0.0,0.0,0.0,0.0,0.0,0.0,0.0,0.0,0.0,0.0,0.0,0.0,0.0,0.0,0.0,0.0,0.0,0.0,0.0,0.0,0.0,0.0,0.0,0.0,0.0,0.748,0.748,0.748,0.748,0.7557,0.8241,0.8318,0.0,0.0,0.0,0.0,0.0,0.0,0.0,0.0,0.0,0.0,0.0,0.0,0.0,0.0,0.0,0.0,0.0,0.0,0.0,0.0,0.0,0.0,0.0,0.0,0.0,0.0,0.0,0.0,0.0,0.0,0.0,0.0,0.0,0.0,0.0,0.0,0.0,0.0,0.0,0.0,0.0,0.0,0.0,0.0,0.0,0.0,0.0,0.0,0.0,0.0,0.0,0.0,0.0,0.0,0.0,0.0,0.0,0.0,0.0,0.0,0.0,0.0,0.0,0.0,0.0,0.0,0.0,0.0,0.0,0.0,0.0,0.0,0.0,0.0,0.0,0.0,0.0,0.0,0.0,0.0,0.0,0.0,0.0,0.0,0.0,0.0,0.0,0.0,0.0,0.0,0.0,0.0,0.0,0.0,0.0,0.0,0.0,0.0,0.0,0.0,0.0,0.0,0.0,0.0,0.0,0.0,0.0,0.0,0.0,0.748,0.748,0.748,0.7557,0.8241,0.8551,0.0,0.0,0.0,0.0,0.0,0.0,0.0,0.0,0.0,0.0,0.0,0.0,0.0,0.0,0.0,0.0,0.0,0.0,0.0,0.0,0.0,0.0,0.0,0.0,0.0,0.0,0.0,0.0,0.0,0.0,0.0,0.0,0.0,0.0,0.0,0.0,0.0,0.0,0.0,0.0,0.0,0.0,0.0,0.0,0.0,0.0,0.0,0.0,0.0,0.0,0.0,0.0,0.0,0.0,0.0,0.0,0.0,0.0,0.0,0.0,0.0,0.0,0.0,0.0,0.0,0.0,0.0,0.0,0.0,0.0,0.0,0.0,0.0,0.0,0.0,0.0,0.0,0.0,0.0,0.0,0.0,0.0,0.0,0.0,0.0,0.0,0.0,0.0,0.0,0.0,0.0,0.0,0.0,0.0,0.0,0.0,0.0,0.0,0.0,0.0,0.0,0.0,0.0,0.0,0.0,0.0,0.0,0.0,0.0,0.7944,0.7633,0.748,0.748,0.8241,0.8546,0.8318,0.0,0.0,0.0,0.0,0.0,0.0,0.0,0.0,0.0,0.0,0.0,0.0,0.0,0.0,0.0,0.0,0.0,0.0,0.0,0.0,0.0,0.0,0.0,0.0,0.0,0.0,0.0,0.0,0.0,0.0,0.0,0.0,0.0,0.0,0.0,0.0,0.0,0.0,0.0,0.0,0.0,0.0,0.0,0.0,0.0,0.0,0.0,0.0,0.0,0.0,0.0,0.0,0.0,0.0,0.0,0.0,0.0,0.0,0.0,0.0,0.0,0.0,0.0,0.0,0.0,0.0,0.0,0.0,0.0,0.0,0.0,0.0,0.0,0.0,0.0,0.0,0.0,0.0,0.0,0.0,0.0,0.0,0.0,0.0,0.0,0.0,0.0,0.0,0.0,0.0,0.0,0.0,0.0,0.0,0.0,0.0,0.0,0.0,0.0,0.0,0.0,0.0,0.0,0.0,0.0,0.0,0.0,0.0,0.8708,0.7944,0.7561,0.771,0.847,0.847,0.0,0.0,0.0,0.0,0.0,0.0,0.0,0.0,0.0,0.0,0.0,0.0,0.0,0.0,0.0,0.0,0.0,0.0,0.0,0.0,0.0,0.0,0.0,0.0,0.0,0.0,0.0,0.0,0.0,0.0,0.0,0.0,0.0,0.0,0.0,0.0,0.0,0.0,0.0,0.0,0.0,0.0,0.0,0.0,0.0,0.0,0.0,0.0,0.0,0.0,0.0,0.0,0.0,0.0,0.0,0.0,0.0,0.0,0.0,0.0,0.0,0.0,0.0,0.0,0.0,0.0,0.0,0.0,0.0,0.0,0.0,0.0,0.0,0.0,0.0,0.0,0.0,0.0,0.0,0.0,0.0,0.0,0.0,0.0,0.0,0.0,0.0,0.0,0.0,0.0,0.0,0.0,0.0,0.0,0.0,0.0,0.0,0.0,0.0,0.0,0.0,0.0,0.0,0.0,0.0,0.0,0.0,0.0,0.0,0.8933,0.8038,0.8084,0.9216,1.0051,1.0357,0.0,0.0,0.0,0.0,0.0,0.0,0.0,0.0,0.0,0.0,0.0,0.0,0.0,0.0,0.0,0.0,0.0,0.0,0.0,0.0,0.0,0.0,0.0,0.0,0.0,0.0,0.0,0.0,0.0,0.0,0.0,0.0,0.0,0.0,0.0,0.0,0.0,0.0,0.0,0.0,0.0,0.0,0.0,0.0,0.0,0.0,0.0,0.0,0.0,0.0,0.0,0.0,0.0,0.0,0.0,0.0,0.0,0.0,0.0,0.0,0.0,0.0,0.0,0.0,0.0,0.0,0.0,0.0,0.0,0.0,0.0,0.0,0.0,0.0,0.0,0.0,0.0,0.0,0.0,0.0,0.0,0.0,0.0,0.0,0.0,0.0,0.0,0.0,0.0,0.0,0.0,0.0,0.0,0.0,0.0,0.0,0.0,0.0,0.0,0.0,0.0,0.0,0.0,0.0,0.0,0.0,0.0,0.0,1.0056,0.9385,0.9653,1.0198,1.1111,1.0483,1.0056,0.0,0.0,0.0,0.0,0.0,0.0,0.0,0.0,0.0,0.0,0.0,0.0,0.0,0.0,0.0,0.0,0.0,0.0,0.0,0.0,0.0,0.0,0.0,0.0,0.0,0.0,0.0,0.0,0.0,0.0,0.0,0.0,0.0,0.0,0.0,0.0,0.0,0.0,0.0,0.0,0.0,0.0,0.0,0.0,0.0,0.0,0.0,0.0,0.0,0.0,0.0,0.0,0.0,0.0,0.0,0.0,0.0,0.0,0.0,0.0,0.0,0.0,0.0,0.0,0.0,0.0,0.0,0.0,0.0,0.0,0.0,0.0,0.0,0.0,0.0,0.0,0.0,0.0,0.0,0.0,0.0,0.0,0.0,0.0,0.0,0.0,0.0,0.0,0.0,0.0,0.0,0.0,0.0,0.0,0.0,0.0,0.0,0.0,0.0,0.0,0.0,0.0,0.0,0.0,0.0,0.0,0.0,0.0,1.1506,1.0256,1.1727,1.2555,1.2542,1.034,0.9079,0.0,0.0,0.0,0.0,0.0,0.0,0.0,0.0,0.0,0.0,0.0,0.0,0.0,0.0,0.0,0.0,0.0,0.0,0.0,0.0,0.0,0.0,0.0,0.0,0.0,0.0,0.0,0.0,0.0,0.0,0.0,0.0,0.0,0.0,0.0,0.0,0.0,0.0,0.0,0.0,0.0,0.0,0.0,0.0,0.0,0.0,0.0,0.0,0.0,0.0,0.0,0.0,0.0,0.0,0.0,0.0,0.0,0.0,0.0,0.0,0.0,0.0,0.0,0.0,0.0,0.0,0.0,0.0,0.0,0.0,0.0,0.0,0.0,0.0,0.0,0.0,0.0,0.0,0.0,0.0,0.0,0.0,0.0,0.0,0.0,0.0,0.0,0.0,0.0,0.0,0.0,0.0,0.0,0.0,0.0,0.0,0.0,0.0,0.0,0.0,0.0,0.0,0.0,0.0,0.0,0.0,0.0,0.0,1.1899,1.3085,1.1902,1.1243,1.1243,1.1423,1.1552,0.0,0.0,0.0,0.0,0.0,0.0,0.0,0.0,0.0,0.0,0.0,0.0,0.0,0.0,0.0,0.0,0.0,0.0,0.0,0.0,0.0,0.0,0.0,0.0,0.0,0.0,0.0,0.0,0.0,0.0,0.0,0.0,0.0,0.0,0.0,0.0,0.0,0.0,0.0,0.0,0.0,0.0,0.0,0.0,0.0,0.0,0.0,0.0,0.771,0.0,0.0,0.0,0.0,0.0,0.0,0.0,0.0,0.0,0.0,0.0,0.0,0.0,0.0,0.0,0.0,0.0,0.0,0.0,0.0,0.0,0.0,0.0,0.0,0.0,0.0,0.0,0.0,0.0,0.0,0.0,0.0,0.0,0.0,0.0,0.0,0.0,0.0,0.0,0.0,0.0,0.0,0.0,0.0,0.0,0.0,0.0,0.0,0.0,0.0,0.0,0.0,0.0,0.0,0.0,0.0,0.0,0.0,0.0,1.2989,1.3993,1.2801,1.2089,1.2152,1.2486,1.25,0.0,0.0,0.0,0.0,0.0,0.0,0.0,0.0,0.0,0.0,0.0,0.0,0.0,0.0,0.0,0.0,0.0,0.0,0.0,0.0,0.0,0.0,0.0,0.0,0.0,0.0,0.0,0.0,0.0,0.0,0.0,0.0,0.0,0.0,0.0,0.0,0.0,0.0,0.0,0.0,0.0,0.0,0.0,0.0,0.0,0.0,0.0,0.0,0.0,0.0,0.0,0.0,0.0,0.0,0.0,0.0,0.0,0.0,0.0,0.0,0.0,0.0,0.0,0.0,0.0,0.0,0.0,0.0,0.0,0.0,0.0,0.0,0.0,0.0,0.0,0.0,0.0,0.0,0.0,0.0,0.0,0.0,0.0,0.0,0.0,0.0,0.0,0.0,0.0,0.0,0.0,0.0,0.0,0.0,0.0,0.0,0.0,0.0,0.0,0.0,0.0,0.0,0.0,0.0,0.0,0.0,0.0,1.3294,1.3952,1.4097,1.3798,1.3714,1.3707,1.3427,1.2831,1.1871,0.0,0.0,0.0,0.0,0.0,0.0,0.0,0.0,0.0,0.0,0.0,0.0,0.0,0.0,0.0,0.0,0.0,0.0,0.0,0.0,0.0,0.0,0.0,0.0,0.0,0.0,0.0,0.0,0.0,0.0,0.0,0.0,0.0,0.0,0.0,0.0,0.0,0.0,0.982,0.9448,0.0,0.0,0.0,0.0,0.0,0.0,0.0,0.0,0.8516,0.0,0.0,0.0,0.0,0.0,0.0,0.0,0.0,0.0,0.0,0.0,0.0,0.0,0.0,0.0,0.0,0.0,0.0,0.0,0.0,0.0,0.0,0.0,0.0,0.0,0.0,0.0,0.0,0.0,0.0,0.0,0.0,0.0,0.0,0.0,0.0,0.0,0.0,0.0,0.0,0.0,0.0,0.0,0.0,0.0,0.0,0.0,0.0,0.0,0.0,0.0,0.0,0.0,0.0,0.0,0.0,1.2231,1.2687,1.3313,1.4102,1.4048,1.4015,1.4008,1.3728,1.3466,1.3231,0.0,0.0,0.0,0.0,0.0,0.0,0.0,0.0,0.0,0.0,0.0,0.0,0.0,0.0,0.0,0.0,0.0,0.0,0.0,0.0,0.0,0.0,0.0,0.0,0.0,0.0,0.0,0.0,0.0,0.0,0.0,0.0,0.0,0.0,0.0,0.0,0.0,0.0,0.0,1.0351,1.0207,0.0,0.0,0.0,0.0,0.0,0.0,0.0,0.0,1.1587,0.0,0.0,0.0,0.0,0.0,0.0,0.0,0.0,0.0,0.0,0.0,0.0,0.0,0.0,0.0,0.0,0.0,0.0,0.0,0.0,0.0,0.0,0.0,0.0,0.0,0.0,0.0,0.0,0.0,0.0,0.0,0.0,0.0,0.0,0.0,0.0,0.0,0.0,0.0,0.0,0.0,0.0,0.0,0.0,0.0,0.0,0.0,0.0,0.0,0.0,0.0,0.0,0.0,0.0,0.0,1.3203,1.3385,1.3652,1.4088,1.4088,1.4088,1.4082,1.3948,1.3874,0.0,0.0,0.0,0.0,0.0,0.0,0.0,0.0,0.0,0.0,0.0,0.0,0.0,0.0,0.0,0.0,0.0,0.0,0.0,0.0,0.0,0.0,0.0,0.0,0.0,0.0,0.0,0.0,0.0,0.0,0.0,0.0,0.0,0.0,0.0,0.0,0.0,0.0,0.0,0.0,1.0887,1.0807,1.0062,0.0,0.0,0.0,0.0,0.0,0.0,1.123,1.1502,0.0,0.0,0.0,0.0,0.0,0.0,0.0,0.0,0.0,0.0,0.0,0.0,0.0,0.0,0.0,0.0,0.0,0.0,0.0,0.0,0.0,0.0,0.0,0.0,0.0,0.0,0.0,0.0,0.0,0.0,0.0,0.0,0.0,0.0,0.0,0.0,0.0,0.0,0.0,0.0,0.0,0.0,0.0,0.0,0.0,0.0,0.0,0.0,0.0,0.0,0.0,0.0,0.0,0.0,0.0,1.4088,1.4088,1.4088,1.4088,1.4088,1.4088,1.4088,1.4088,1.4088,0.0,0.0,0.0,0.0,0.0,0.0,0.0,0.0,0.0,0.0,0.0,0.0,0.0,0.0,0.0,0.0,0.0,0.0,0.0,0.0,0.0,0.0,0.0,0.0,0.0,0.0,0.0,0.0,0.0,0.0,0.0,0.0,0.0,0.0,0.0,0.0,0.0,0.0,0.0,0.0,0.0,1.1346,1.119,1.0697,0.0,0.0,0.0,0.0,1.1692,1.1566,0.0,0.0,0.0,0.0,0.0,0.0,0.0,0.0,0.0,0.0,0.0,0.0,0.0,0.0,0.0,0.0,0.0,0.0,0.0,0.0,0.0,0.0,0.0,0.0,0.0,0.0,0.0,0.0,0.0,0.0,0.0,0.0,0.0,0.0,0.0,0.0,0.0,0.0,0.0,0.0,0.0,0.0,0.0,0.0,0.0,0.0,0.0,0.0,0.0,0.0,0.0,0.0,0.0,0.0,0.0,0.0,1.4088,1.4088,1.4088,1.4088,1.4088,1.4088,1.4088,1.4088,1.4088,0.0,0.0,0.0,0.0,0.0,0.0,0.0,0.0,0.0,0.0,0.0,0.0,0.0,0.0,0.0,0.0,0.0,0.0,0.0,0.0,0.0,0.0,0.0,0.0,0.0,0.0,0.0,0.0,0.0,0.0,0.0,0.0,0.0,0.0,0.0,0.0,0.0,0.0,0.0,0.0,0.0,1.2311,1.1532,1.1661,1.1573,0.0,0.0,1.1623,1.1211,1.2334,0.0,0.0,0.0,0.0,0.0,0.0,0.0,0.0,0.0,0.0,0.0,0.0,0.0,0.0,0.0,0.0,0.0,0.0,0.0,0.0,0.0,0.0,0.0,0.0,0.0,0.0,0.0,0.0,0.0,0.0,0.0,0.0,0.0,0.0,0.0,0.0,0.0,0.0,0.0,0.0,0.0,0.0,0.0,0.0,0.0,0.0,0.0,0.0,0.0,0.0,0.0,0.0,0.0,0.0,0.0,1.4088,1.4088,1.4088,1.4088,1.4088,1.4088,1.4088,1.4088,1.4088,1.4088,0.0,0.0,0.0,0.0,0.0,0.0,0.0,0.0,0.0,0.0,0.0,0.0,0.0,0.0,0.0,0.0,0.0,0.0,0.0,0.0,0.0,0.0,0.0,0.0,0.0,0.0,0.0,0.0,0.0,0.0,0.0,0.0,0.0,0.0,0.0,0.0,0.0,0.0,0.0,0.0,0.0,0.0,1.2273,1.2531,0.0,0.0,0.0,1.2889,1.2739,0.0,0.0,0.0,0.0,0.0,0.0,0.0,0.0,0.0,0.0,0.0,0.0,0.0,0.0,0.0,0.0,0.0,0.0,0.0,0.0,0.0,0.0,0.0,0.0,0.0,0.0,0.0,0.0,0.0,0.0,0.0,0.0,0.0,0.0,0.0,0.0,0.0,0.0,0.0,0.0,0.0,0.0,0.0,0.0,0.0,0.0,0.0,0.0,0.0,0.0,0.0,0.0,0.0,0.0,0.0,0.0,0.0,1.4088,1.4088,1.4088,1.4088,1.4088,1.4088,1.4088,1.4088,0.0,0.0,0.0,0.0,0.0,0.0,0.0,0.0,0.0,0.0,0.0,0.0,0.0,0.0,0.0,0.0,0.0,0.0,0.0,0.0,0.0,0.0,0.0,0.0,0.0,0.0,0.0,1.1774,0.0,0.0,0.0,0.0,0.0,0.0,0.0,0.0,0.0,0.0,0.0,0.0,0.0,0.0,1.2973,1.3044,1.3233,1.3507,0.0,0.0,1.3745,1.3711,1.3913,1.4004,0.0,0.0,0.0,0.0,0.0,0.0,0.0,0.0,0.0,0.0,0.0,0.0,0.0,0.0,0.0,0.0,0.0,0.0,0.0,0.0,0.0,0.0,0.0,0.0,0.0,0.0,0.0,0.0,0.0,0.0,0.0,0.0,0.0,0.0,0.0,0.0,0.0,0.0,0.0,0.0,0.0,0.0,0.0,0.0,0.0,0.0,0.0,0.0,0.0,0.0,0.0,0.0,0.0,0.0,1.4088,1.4088,1.4088,1.4088,1.4088,1.4088,1.4088,1.4088,1.4088,1.4088,0.0,0.0,0.0,0.0,0.0,0.0,0.0,0.0,0.0,0.0,0.0,0.0,0.0,0.0,0.0,0.0,0.0,0.0,0.0,0.0,0.0,0.0,0.0,0.0,0.0,0.0,0.0,0.0,0.0,0.0,0.0,0.0,0.0,0.0,0.0,0.0,0.0,0.0,0.0,0.0,0.0,1.3581,1.3587,1.3841,1.4035,0.0,1.4055,1.3808,1.296,1.3574,1.3828,1.296,0.0,0.0,0.0,0.0,0.0,0.0,0.0,0.0,0.0,0.0,0.0,0.0,0.0,0.0,0.0,0.0,0.0,0.0,0.0,0.0,0.0,0.0,0.0,0.0,0.0,0.0,0.0,0.0,0.0,0.0,0.0,0.0,0.0,0.0,0.0,0.0,0.0,0.0,0.0,0.0,0.0,0.0,0.0,0.0,0.0,0.0,0.0,0.0,0.0,0.0,0.0,0.0,0.0,1.4088,1.4088,1.4088,1.4088,1.4088,1.4088,1.4088,1.4088,1.4088,1.4088,0.0,0.0,0.0,0.0,0.0,0.0,0.0,0.0,0.0,0.0,0.0,0.0,0.0,0.0,0.0,0.0,0.0,0.0,0.0,0.0,0.0,0.0,0.0,0.0,0.0,0.0,0.0,0.0,1.2376,1.2557,1.2557,0.0,0.0,0.0,0.0,0.0,0.0,0.0,0.0,0.0,0.0,1.3647,1.3647,1.3895,0.0,0.0,1.4088,1.3997,1.3659,1.3828,1.3997,1.3652,1.3913,0.0,0.0,0.0,0.0,0.0,0.0,0.0,0.0,0.0,0.0,0.0,0.0,0.0,0.0,0.0,0.0,0.0,0.0,0.0,0.0,0.0,0.0,0.0,0.0,0.0,0.0,0.0,0.0,0.0,0.0,0.0,0.0,0.0,0.0,0.0,0.0,0.0,0.0,0.0,0.0,0.0,0.0,0.0,0.0,0.0,0.0,0.0,0.0,0.0,0.0,0.0,0.0,1.4088,1.4088,1.4088,1.4088,1.4088,1.4088,1.4088,1.4088,1.4088,1.4088,0.0,0.0,0.0,0.0,0.0,0.0,0.0,0.0,0.0,0.0,0.0,0.0,0.0,0.0,0.0,0.0,0.0,0.0,0.0,0.0,0.0,0.0,0.0,0.0,0.0,0.0,0.0,0.0,1.3153,1.334,1.334,0.0,0.0,0.0,0.0,0.0,0.0,0.0,0.0,0.0,0.0,1.3781,1.3781,1.3955,1.4088,1.4088,1.4088,1.4088,1.4088,1.4088,1.4004,1.3743,0.0,0.0,0.0,0.0,0.0,0.0,0.0,0.0,0.0,0.0,0.0,0.0,0.0,0.0,0.0,0.0,0.0,0.0,0.0,0.0,0.0,0.0,0.0,0.0,0.0,0.0,0.0,1.3206,0.0,0.0,1.3985,0.0,0.0,0.0,0.0,0.0,0.0,0.0,0.0,0.0,0.0,0.0,0.0,0.0,0.0,0.0,0.0,0.0,0.0,0.0,0.0,0.0,0.0,1.4088,1.4088,1.4088,1.4088,1.4088,1.4088,1.4088,1.4088,1.4088,1.4088,1.4088,0.0,0.0,0.0,0.0,0.0,0.0,0.0,0.0,0.0,0.0,0.0,0.0,0.0,0.0,0.0,0.0,0.0,0.0,0.0,0.0,0.0,0.0,0.0,0.0,0.0,0.0,1.3213,1.346,1.3546,0.0,0.0,0.0,0.0,0.0,0.0,0.0,0.0,0.0,1.4015,1.4075,1.4075,1.4068,1.4088,1.4088,1.4082,1.4088,1.4082,1.4004,1.4088,1.3822,0.0,0.0,0.0,0.0,0.0,0.0,0.0,0.0,0.0,0.0,0.0,0.0,0.0,0.0,0.0,0.0,0.0,0.0,0.0,0.0,0.0,0.0,0.0,0.0,0.0,0.0,0.0,1.3794,1.3794,0.0,0.0,0.0,0.0,0.0,0.0,0.0,0.0,0.0,0.0,0.0,1.4088,1.4088,0.0,0.0,0.0,0.0,0.0,0.0,0.0,0.0,0.0,0.0,0.0,0.0,1.4088,1.4088,1.4088,1.4088,1.4088,1.4088,1.4088,1.4088,1.4088,1.4088,1.4088,0.0,0.0,0.0,0.0,0.0,0.0,0.0,0.0,0.0,0.0,0.0,0.0,0.0,0.0,0.0,0.0,0.0,0.0,0.0,0.0,0.0,0.0,0.0,0.0,0.0,1.3581,0.0,0.0,0.0,0.0,0.0,0.0,0.0,0.0,0.0,0.0,0.0,1.3884,1.3815,1.3997,1.4088,1.4088,1.3568,1.3137,0.0,0.0,0.0,0.0,0.0,0.0,0.0,0.0,0.0,0.0,0.0,0.0,0.0,0.0,1.1235,1.0895,1.1322,1.1763,1.1888,0.0,0.0,0.0,0.0,0.0,0.0,0.0,0.0,0.0,0.0,0.0,0.0,0.0,0.0,1.4004,1.4088,1.4088,0.0,0.0,0.0,0.0,0.0,0.0,0.0,0.0,1.4088,1.4088,1.4088,1.4088,1.4088,1.4088,1.4088,1.4088,0.0,0.0,0.0,0.0,0.0,0.0,0.0,0.0,1.4088,1.4088,1.4088,1.4142,1.4327,1.4242,1.4242,1.4242,1.4142,1.4088,1.4088,1.4088,1.4088,0.0,0.0,0.0,0.0,0.0,0.0,0.0,0.0,0.0,0.0,0.0,0.0,0.0,0.0,0.0,0.0,0.0,0.0,0.0,0.0,0.0,0.0,0.0,1.3701,0.0,0.0,0.0,0.0,0.0,0.0,0.0,0.0,0.0,1.3652,1.3476,1.3307,1.3137,1.2954,1.2869,1.2869,0.0,0.0,0.0,0.0,0.0,0.0,0.0,1.2705,1.2705,1.2705,1.2729,1.2825,1.2214,1.1745,1.2009,0.0,0.0,1.1262,1.1651,1.1978,1.2192,1.1882,1.1564,1.1641,1.1828,1.1971,0.0,0.0,0.0,0.0,1.4082,0.0,0.0,0.0,1.3822,1.3828,0.0,1.4088,0.0,0.0,0.0,0.0,1.4088,1.4088,0.0,0.0,1.4088,1.4088,1.4088,1.4088,1.4088,1.4088,1.4088,1.4088,1.4108,1.4102,0.0,0.0,0.0,0.0,0.0,0.0,1.4115,1.4128,1.4128,1.4347,1.4717,1.4543,1.4536,1.4529,1.4269,1.4128,1.4122,1.4128,1.4115,1.4108,1.4102,0.0,0.0,0.0,0.0,0.0,0.0,0.0,0.0,0.0,0.0,0.0,0.0,0.0,0.0,0.0,0.0,0.0,0.0,0.0,0.0,1.3828,0.0,0.0,0.0,0.0,0.0,0.0,0.0,0.0,0.0,0.0,1.3215,1.2613,1.1929,1.1929,0.0,0.0,0.0,0.0,1.0956,1.1047,1.1144,1.1585,1.246,1.2631,1.2637,1.2649,0.0,0.0,1.2885,1.2412,1.2285,1.3211,1.172,1.0697,1.1173,1.1981,1.2668,1.2265,1.2051,1.1645,1.1027,1.0987,1.0813,1.3728,0.0,0.0,0.0,0.0,1.3652,1.3737,1.3822,1.3913,1.4004,1.4088,1.4088,0.0,0.0,0.0,0.0,0.0,0.0,1.4088,1.4088,1.4088,1.4088,1.4088,1.4088,1.4088,1.4088,1.4088,1.4195,1.4389,1.4396,1.4396,1.4396,0.0,0.0,0.0,0.0,1.4703,1.452,1.4703,1.4851,1.5034,1.4932,1.4836,1.4836,1.4756,1.4716,1.471,1.4716,1.4616,1.4402,1.4396,0.0,0.0,0.0,0.0,0.0,0.0,0.0,0.0,0.0,0.0,0.0,0.0,0.0,0.0,0.0,0.0,0.0,0.0,0.0,1.4088,1.3137,1.2522,0.0,0.0,0.0,0.0,0.0,0.0,0.0,0.0,0.0,1.1219,1.1133,1.0961,0.0,0.0,1.0611,1.0611,1.0096,0.9923,1.0631,1.0366,0.0,1.1636,1.1657,1.1711,1.2148,1.1642,1.095,1.0379,0.9969,0.9815,1.0093,0.9541,0.9221,0.9953,1.015,1.0692,1.1799,1.1431,1.1037,1.1502,1.186,1.2173,1.3862,1.3709,1.3664,1.3717,1.3821,1.3906,1.3978,1.4256,1.4256,1.4243,1.4136,1.4336,1.4436,1.4436,1.4436,0.0,0.0,0.0,1.4436,1.4436,1.4429,1.4436,1.4436,1.4436,1.4436,1.4436,1.4436,1.4529,1.4689,1.4689,1.4763,1.4856,0.0,1.4783,1.5053,1.506,1.4963,1.4854,1.4957,1.4837,1.4663,1.4207,1.411,1.4475,1.401,1.3773,1.3773,1.4128,1.4231,1.4065,1.4513,1.4346,0.0,0.0,0.0,0.0,0.0,0.0,0.0,0.0,0.0,0.0,0.0,1.3045,1.4004,0.0,0.0,0.0,1.3555,1.3913,1.3913,1.3045,0.0,0.0,0.0,0.0,0.0,0.0,0.0,0.9762,0.9338,0.9056,0.9052,0.9209,0.9402,0.9589,0.9401,0.9253,0.9336,0.0,0.8848,0.9455,0.9285,0.9508,1.071,1.0724,1.0849,1.1527,1.1266,1.0767,1.0215,0.9991,0.9944,0.9949,0.9573,0.9287,0.9845,0.9482,0.9581,1.1601,1.1119,1.073,1.1527,1.1497,1.1213,1.4411,1.4347,1.4282,1.4362,1.4462,1.4287,1.4526,1.4957,1.4681,1.4475,1.4251,1.4757,1.506,1.4963,1.4963,0.0,1.4963,1.4963,1.4957,1.4963,1.4963,1.4963,1.4963,1.4963,1.4963,1.4957,1.4963,1.4977,1.4997,1.4997,1.5144,1.5418,1.5164,1.5037,1.503,1.5037,1.503,1.5037,1.5037,1.4689,1.38,1.2875,1.2775,1.3707,1.2564,1.1999,1.1999,1.2905,1.335,1.3332,1.4347,1.4894,1.4777,0.0,0.0,0.0,0.0,0.0,0.0,0.0,0.0,0.0,0.0,0.0,0.0,0.0,0.0,0.0,1.3646,0.0,1.3652,1.3228,0.0,0.0,0.0,1.1246,1.1003,0.9524,0.866,0.887,0.0,0.0,0.7177,0.7302,0.7699,0.8344,0.7705,0.7227,0.737,0.7657,0.771,0.8109,0.8236,0.88,1.0116,1.0045,1.0059,1.072,1.1115,1.1148,1.1067,1.1202,1.1536,1.1332,1.0774,1.0186,1.019,0.9292,0.9284,1.111,1.0886,1.0502,1.0735,1.0015,0.9379,1.577,1.5236,1.5378,1.5015,1.4308,1.4487,1.4622,1.4681,1.4867,1.486,1.4764,1.4963,1.506,1.4963,1.4777,1.4681,1.4681,1.4508,1.443,1.443,1.434,1.4424,1.434,1.443,1.4514,1.4687,1.4681,1.4889,1.5284,1.5291,1.5444,1.5705,1.5658,1.5618,1.5625,1.5625,1.5625,1.5618,1.5625,1.5181,1.4195,1.3132,1.2742,1.2929,1.2688,1.247,1.2565,1.2751,1.2758,1.2587,1.3501,1.3688,1.2763,1.3948,0.0,0.0,0.0,0.0,0.0,0.0,0.0,0.0,0.0,1.313,1.4004,0.0,1.2881,0.0,1.2009,1.1929,1.3307,1.2443,0.0,0.0,1.1144,1.0522,0.8555,0.8563,0.8525,0.8029,0.7677,0.7492,0.7492,0.7522,0.7622,0.7773,0.7674,0.7506,0.7539,0.7636,0.7927,0.8516,0.8901,0.9495,1.058,1.0546,0.9951,0.9186,0.9315,0.9441,0.9441,0.928,0.9213,0.9213,0.8924,0.863,0.8627,0.8333,0.8326,0.889,0.9489,0.9792,0.8996,0.969,1.0587,1.6328,1.5836,1.5934,1.575,1.5347,1.523,1.5249,1.536,1.5556,1.5549,1.5347,1.5644,1.5738,1.5738,1.5637,1.5536,1.5536,1.536,1.536,1.536,1.5266,1.5272,1.5184,1.5272,1.5367,1.536,1.5455,1.5657,1.5785,1.5785,1.5798,1.5825,1.5825,1.5825,1.5825,1.5825,1.5343,1.4472,1.3986,1.3698,1.3516,1.2052,1.1565,1.2047,1.157,1.1375,1.1277,1.176,1.2185,1.2448,1.3489,1.3708,1.31,1.4031,1.4421,0.0,0.0,0.0,0.0,0.0,0.0,0.0,0.0,0.0,0.0,0.0,1.217,1.217,1.1373,1.1191,1.2081,1.1457,1.0746,1.0389,1.03,0.9714,0.828,0.8199,0.8147,0.7684,0.76,0.7597,0.76,0.7658,0.7692,0.7695,0.7753,0.777,0.7706,0.7695,0.7903,0.8442,0.8645,0.8956,0.974,0.9637,0.9217,0.8432,0.8333,0.8432,0.8432,0.8333,0.8237,0.8233,0.8137,0.8038,0.8038,0.8038,0.8038,0.8137,0.8627,0.8817,0.8206,0.8901,0.9801,1.657,1.643,1.643,1.6632,1.68,1.6262,1.6162,1.6319,1.6319,1.6199,1.5972,1.65,1.6707,1.6707,1.6707,1.6707,1.6607,1.6607,1.6607,1.6613,1.6607,1.6513,1.6325,1.6513,1.6513,1.6319,1.6506,1.6573,1.6333,1.6333,1.6192,1.5952,1.5945,1.5728,1.5497,1.5599,1.47,1.2732,1.1658,1.1658,1.2436,1.06,1.0015,1.0881,1.0109,0.9624,0.9624,1.0498,1.1365,1.2242,1.3323,1.3902,1.3908,1.4004,1.41,0.0,1.41,0.0,0.0,0.0,0.0,0.0,0.0,0.0,0.0,1.1941,1.1752,1.1482,1.1293,1.1017,1.074,1.056,1.0376,1.019,0.9444,0.8991,0.882,0.8088,0.7634,0.7753,0.7658,0.7655,0.777,0.7767,0.7841,0.7851,0.7936,0.7967,0.7872,0.7841,0.7882,0.8021,0.8038,0.8103,0.8219,0.8329,0.8333,0.8038,0.8038,0.8038,0.8038,0.8038,0.8038,0.8038,0.8038,0.8038,0.8038,0.8038,0.8038,0.8038,0.8062,0.8072,0.8041,0.8035,0.8038,1.699,1.7317,1.7317,1.7415,1.7415,1.7062,1.68,1.6613,1.6607,1.6607,1.66,1.682,1.682,1.6707,1.6513,1.6419,1.6426,1.6218,1.6117,1.6117,1.6117,1.6117,1.6017,1.6111,1.6218,1.6319,1.6325,1.648,1.6627,1.6627,1.66,1.654,1.654,1.5617,1.3825,0.0,0.0,0.0,1.1755,1.1268,1.1463,1.0207,0.9723,0.9916,0.9727,0.0,0.9624,0.9821,1.0019,1.0207,1.1179,0.0,0.0,0.0,0.0,0.0,0.0,0.0,0.0,0.0,0.0,0.0,1.1438,1.1482,1.1886,1.1941,1.1752,1.1298,1.139,1.1293,1.0842,1.074,1.0371,0.9351,0.9072,0.8753,0.8129,0.7866,0.7818,0.7943,0.7953,0.7953,0.7946,0.7984,0.7991,0.7991,0.8021,0.8028,0.8004,0.7991,0.8007,0.8035,0.8052,0.8041,0.8038,0.8052,0.8168,0.8038,0.8038,0.8048,0.8055,0.8052,0.8045,0.8052,0.8038,0.8048,0.8045,0.8038,0.8058,0.8041,0.8143,0.8191,0.8069,0.8041,0.8038,1.7357,1.7589,1.7595,1.7782,0.0,1.7928,1.7762,1.7569,1.7164,1.7038,1.7141,1.7257,1.725,1.7134,1.7045,1.6942,1.6942,1.6832,1.6839,1.6839,1.6839,1.6742,1.6639,1.6736,1.6736,1.6742,1.6839,1.6972,1.6934,1.6921,1.6847,1.6707,1.6707,1.5814,1.4165,1.3446,1.2673,1.1955,1.0886,1.04,1.04,0.9916,0.9624,0.9624,0.9624,0.0,0.0,0.0,0.0,0.0,0.0,0.0,0.0,1.2139,0.0,1.2047,1.2436,1.2732,1.263,1.2242,1.176,1.1268,1.0592,1.032,1.0696,1.0682,1.0391,1.0101,1.0205,1.011,0.9531,0.9531,0.934,0.8575,0.8479,0.8322,0.8004,0.7923,0.7957,0.8021,0.8038,0.8038,0.8038,0.8038,0.8038,0.8045,0.8109,0.8153,0.8147,0.8085,0.8062,0.814,0.8153,0.818,0.8241,0.8258,0.8255,0.8258,0.8255,0.8258,0.8258,0.8258,0.8258,0.8255,0.8258,0.8258,0.8258,0.8258,0.8153,0.8054,0.8213,0.8457,0.8378,0.8364,0.8255,1.7708,1.7784,1.779,1.8044,1.8497,1.8497,1.8497,1.8457,1.7754,0.0,0.0,1.7736,1.7742,1.7736,1.7742,1.7742,1.7742,1.7749,1.7742,1.7742,1.7689,1.7563,1.7357,1.751,1.7483,1.7279,1.7483,1.7357,1.7021,1.7015,1.6684,1.6259,1.624,1.57,1.4412,1.2253,1.1157,1.0996,1.0048,0.9624,0.9624,0.9624,0.9624,0.9624,0.9624,0.9624,0.9624,0.9624,1.0015,1.0881,1.0881,1.0881,1.0979,1.1663,1.176,1.1077,1.1663,1.215,1.215,1.1365,1.0881,1.0881,0.9817,0.9331,0.9529,0.9331,0.9034,0.8829,0.9031,0.8832,0.8137,0.8237,0.8333,0.8038,0.8038,0.8035,0.8038,0.8038,0.8031,0.8041,0.8065,0.8082,0.8085,0.8116,0.8119,0.8133,0.8235,0.8309,0.8292,0.8211,0.8184,0.8282,0.8306,0.8347,0.8442,0.8465,0.8482,0.8459,0.8465,0.8482,0.8482,0.8482,0.8482,0.8455,0.8479,0.8469,0.8476,0.8459,0.8374,0.8157,0.8289,0.8632,0.885,0.8762,0.854,1.841,1.843,1.832,1.845,1.8497,1.8497,1.8497,1.8484,1.8404,1.824,1.811,1.8247,1.824,1.8117,1.824,1.8364,1.8364,1.8357,1.8364,1.835,1.8103,1.7868,1.7862,1.7709,1.7582,1.7589,1.7582,1.7028,1.6125,1.6119,1.5565,1.4568,1.4461,1.3832,1.2595,1.1145,1.0315,1.0281,0.9883,0.9624,0.9624,0.9624,0.9624,0.9624,0.9632,0.9624,0.9624,0.9632,0.9628,0.9821,0.9817,0.9821,0.9821,1.0019,1.0015,0.9817,0.9916,1.0015,1.0015,0.992,0.9821,0.9817,0.943,0.9236,0.9236,0.9031,0.8829,0.8825,0.8829,0.873,0.8432,0.8333,0.8336,0.8045,0.8041,0.8038,0.8052,0.8055,0.8058,0.8065,0.816,0.8238,0.8245,0.8333,0.8394,0.8411,0.8425,0.8455,0.8462,0.8435,0.8428,0.8448,0.8452,0.8462,0.8509,0.8486,0.8509,0.8482,0.8503,0.852,0.8523,0.852,0.852,0.8492,0.8516,0.8506,0.8503,0.8482,0.8509,0.8414,0.8601,0.8783,0.8901,0.8876,0.8777,1.8854,1.8724,1.8731,1.8818,1.8965,1.8965,1.8971,1.8965,1.8965,1.8771,1.838,1.849,1.8621,1.8863,1.8621,1.8497,1.8497,1.8497,1.8497,1.8484,1.7669,1.7186,1.7034,1.6247,1.5779,1.5761,1.5749,1.5429,1.4995,1.4888,1.4674,1.403,1.3491,1.2901,1.2276,1.0924,1.0416,1.0416,1.0154,0.9916,0.9916,0.9916,0.992,0.9916,0.9916,0.9916,0.992,0.992,0.9916,0.9916,0.992,0.9916,0.9916,0.9823,0.977,0.9766,0.9677,0.9624,0.9624,0.9624,0.9624,0.9628,0.9331,0.9176,0.9156,0.8977,0.8726,0.873,0.873,0.8627,0.8237,0.8333,0.8368,0.816,0.8163,0.8194,0.8265,0.8282,0.8279,0.8286,0.834,0.8384,0.8384,0.8442,0.8482,0.8489,0.8543,0.8628,0.871,0.8723,0.8696,0.8628,0.8604,0.8648,0.8706,0.873,0.873,0.873,0.873,0.873,0.873,0.8726,0.8726,0.873,0.8726,0.873,0.8723,0.8733,0.873,0.8737,0.8774,0.8832,0.8852,0.8896,0.8879,1.8366,1.8205,1.8205,1.8327,1.8532,1.8532,1.8532,1.8532,1.8532,1.8557,1.8678,1.8711,1.8942,1.9326,1.8935,1.8579,1.8335,1.8229,1.811,1.7766,1.6785,1.6192,1.5987,1.4895,1.4291,1.4115,1.4164,1.3922,1.3701,1.3701,1.3599,1.3275,1.2417,1.1987,1.1982,1.0983,1.0605,1.0708,1.0465,1.0245,1.0268,1.016,1.016,1.016,1.016,1.016,1.016,1.016,1.016,1.016,1.016,1.016,1.0156,1.0026,0.9945,0.9937,0.9823,0.9746,0.9746,0.975,0.9746,0.9746,0.955,0.94,0.9297,0.9011,0.8836,0.8636,0.865,0.8546,0.8254,0.8244,0.8386,0.8306,0.8316,0.8353,0.8459,0.8482,0.8482,0.8482,0.8513,0.8537,0.8537,0.8564,0.8598,0.8621,0.8689,0.8808,0.8913,0.8937,0.8882,0.8808,0.8764,0.8798,0.892,0.8927,0.8923,0.8937,0.8927,0.891,0.8913,0.8927,0.8933,0.8913,0.8923,0.891,0.8927,0.8927,0.8916,0.8906,0.8913,0.8927,0.8927,0.893,0.8937,1.5904,1.5886,1.6004,1.5908,1.6042,1.6048,1.6042,1.6042,1.5924,1.7321,1.905,1.9263,1.9272,1.9414,1.9387,1.8654,1.7713,1.7615,1.7014,1.5937,1.54,1.5281,1.5085,1.4596,1.4377,1.4323,1.4023,1.3383,1.263,1.2526,1.2096,1.1126,1.0907,1.0911,1.0794,1.0781,1.0668,1.0668,1.0651,1.0489,1.0289,1.0268,1.016,1.016,1.0168,1.016,1.018,1.016,1.0164,1.016,1.0172,1.0164,1.0164,1.0144,1.0136,1.0136,1.0115,1.0111,1.0107,1.0111,1.0099,1.0111,1.0095,1.0003,0.9931,0.9499,0.896,0.8529,0.8536,0.8519,0.8442,0.8529,0.8529,0.8455,0.8462,0.8472,0.8499,0.8482,0.8482,0.8482,0.8618,0.8686,0.8699,0.8788,0.8869,0.8845,0.8866,0.8899,0.8927,0.8937,0.8933,0.8913,0.8913,0.8913,0.8937,0.8937,0.8937,0.8937,0.8937,0.8937,0.8937,0.8937,0.8937,0.8937,0.8937,0.8937,0.8937,0.8937,0.8937,0.8937,0.8937,0.8937,0.8937,0.8937,0.8937,1.4257,1.5569,1.5569,1.5569,1.5569,1.5569,1.5569,1.5569,1.5569,1.6211,1.7108,1.715,1.7972,1.9342,1.9399,1.8648,1.7572,1.7455,1.6868,1.5564,1.4641,1.4187,1.4033,1.295,1.2519,1.2395,1.2192,1.1882,1.1446,1.1446,1.1126,1.0802,1.0692,1.0692,1.0692,1.0692,1.0692,1.0692,1.0692,1.0619,1.0497,1.0477,1.0477,1.0477,1.0477,1.0477,1.0477,1.0477,1.0477,1.0473,1.0477,1.0477,1.0477,1.0379,1.0322,1.0314,1.0221,1.016,1.016,1.016,1.016,1.016,1.016,1.0205,1.0208,0.989,0.9602,0.9348,0.8902,0.8482,0.8486,0.8482,0.8516,0.8594,0.8618,0.8648,0.8743,0.8747,0.875,0.876,0.8804,0.8845,0.8852,0.8899,0.8937,0.8937,0.8937,0.8937,0.8937,0.8937,0.8937,0.8937,0.8937,0.8937,0.8937,0.8937,0.8937,0.8937,0.8937,0.8937,0.8937,0.8937,0.8937,0.8937,0.8937,0.8937,0.8937,0.8937,0.8937,0.8937,0.8937,0.8937,0.8937,0.8937,0.8937,1.2834,1.4381,1.451,1.4505,1.4505,1.4505,1.4505,1.4505,1.4624,1.45,1.4624,1.4857,1.5828,1.7274,1.8077,1.7701,1.6503,1.6509,1.58,1.4624,1.355,1.3122,1.2854,1.1786,1.1155,1.1017,1.0912,1.0692,1.0692,1.0692,1.0692,1.0692,1.0692,1.0692,1.0692,1.0692,1.0692,1.0692,1.0692,1.0692,1.0688,1.0692,1.0692,1.0692,1.0692,1.0692,1.0692,1.0692,1.0692,1.0692,1.0692,1.0692,1.0688,1.0574,1.0505,1.0497,1.0383,1.0306,1.0306,1.0306,1.0306,1.0306,1.031,1.0363,1.0361,1.0174,1.0116,1.0089,0.9377,0.8828,0.8817,0.8817,0.8766,0.8869,0.8879,0.8825,0.8916,0.8937,0.8927,0.8937,0.8916,0.8937,0.8937,0.8937,0.8937,0.8937,0.8937,0.8937,0.8937,0.8937,0.8937,0.8937,0.8937,0.8937,0.8937,0.8937,0.8937,0.8937,0.8937,0.8937,0.8937,0.8937,0.8937,0.8937,0.8937,0.8937,0.8937,0.8937,0.8937,0.8937,0.8937,0.8937,0.8937,0.8937,0.8937,1.1815,1.201,1.2014,1.2139,1.2014,1.2134,1.2014,1.2251,1.213,1.2014,1.2371,1.3315,1.3269,1.2631,1.4831,1.5095,1.4023,1.4023,1.3435,1.2251,1.2014,1.1889,1.1856,1.1399,1.1216,1.1159,1.0846,1.0692,1.0692,1.0692,1.0692,1.0692,1.0692,1.0692,1.0692,1.0692,1.0692,1.0692,1.0692,1.0692,1.0692,1.0692,1.0692,1.0692,1.0692,1.0692,1.0692,1.0692,1.0692,1.0692,1.0692,1.0692,1.0692,1.068,1.0672,1.0668,1.0664,1.0655,1.0647,1.0639,1.0639,1.0651,1.0623,1.066,1.0647,1.0437,1.0339,1.0249,0.9998,0.9757,0.9647,0.9406,0.9322,0.9343,0.9027,0.8927,0.8933,0.8937,0.8937,0.8937,0.8937,0.8937,0.8937,0.8937,0.8937,0.8937,0.8937,0.8937,0.8937,0.8937,0.8937,0.894,0.8944,0.8944,0.894,0.894,0.8937,0.8967,0.8984,0.8957,0.8944,0.8937,0.8944,0.8937,0.8937,0.8937,0.8937,0.8937,0.8937,0.8937,0.8937,0.8937,0.8937,0.8937,0.8937,1.1868,1.1776,1.1776,1.1776,1.1776,1.1776,1.1776,1.1776,1.1776,1.1776,1.1897,1.2251,1.2234,1.1852,1.2715,1.332,1.367,1.367,1.3075,1.1893,1.1776,1.1776,1.1736,1.1399,1.122,1.1167,1.0863,1.0692,1.0692,1.0692,1.0692,1.0692,1.0692,1.0692,1.0692,1.0692,1.0692,1.0692,1.0692,1.0692,1.0692,1.0692,1.0692,1.0692,1.0692,1.0692,1.0692,1.0692,1.0692,1.0692,1.0692,1.0692,1.0692,1.0692,1.0692,1.0692,1.0692,1.0692,1.0692,1.0692,1.0692,1.0692,1.0692,1.0692,1.0692,1.0586,1.0582,1.0472,1.0472,1.0366,1.0257,0.9926,0.9706,0.9596,0.9379,0.9268,0.9158,0.9051,0.8937,0.8937,0.8937,0.8937,0.8937,0.8937,0.8937,0.8937,0.8937,0.894,0.894,0.8937,0.8947,0.8957,0.9015,0.9072,0.9076,0.8988,0.896,0.9042,0.9079,0.9083,0.9076,0.9079,0.9089,0.8984,0.896,0.895,0.8954,0.894,0.894,0.894,0.894,0.9047,0.8937,0.9068,0.9061,1.1776,1.1776,1.1776,1.1776,1.1776,1.1776,1.1776,1.1776,1.1776,1.1776,1.1776,1.1776,1.1776,1.1776,1.1776,1.2251,1.3075,1.3075,1.2608,1.1897,1.1776,1.1748,1.1642,1.1366,1.1191,1.1106,1.0838,1.0692,1.0692,1.0692,1.0692,1.0692,1.0692,1.0692,1.0692,1.0692,1.0692,1.0692,1.0692,1.0692,1.0692,1.0692,1.0692,1.0692,1.0692,1.0692,1.0692,1.0692,1.0692,1.0692,1.0692,1.0692,1.0692,1.0692,1.0692,1.0692,1.0692,1.0692,1.0692,1.0692,1.0692,1.0692,1.0692,1.0692,1.0692,1.0692,1.0692,1.0692,1.0692,1.0692,1.0472,1.0147,0.9923,0.9926,0.9706,0.9485,0.9489,0.9379,0.9268,0.9268,0.9268,0.9158,0.9047,0.9047,0.9047,0.8937,0.8937,0.895,0.8994,0.9008,0.9035,0.9079,0.9167,0.9218,0.9228,0.9174,0.9144,0.9208,0.9228,0.9225,0.9339,0.9343,0.9291,0.9059,0.8998,0.8981,0.8964,0.9061,0.9058,0.9064,0.9272,0.9493,0.94,0.9321,0.9349,1.1776,1.1776,1.1776,1.1776,1.1776,1.1776,1.1776,1.1776,1.1776,1.1776,1.1776,1.1776,1.1776,1.1776,1.1776,1.1897,1.2014,1.2014,1.1893,1.1776,1.1776,1.1691,1.1541,1.133,1.1122,1.0964,1.0781,1.0692,1.0692,1.0692,1.0692,1.0692,1.0692,1.0692,1.0692,1.0692,1.0692,1.0692,1.0692,1.0692,1.0692,1.0692,1.0692,1.0692,1.0692,1.0692,1.0692,1.0692,1.0692,1.0692,1.0692,1.0692,1.0692,1.0692,1.0692,1.0692,1.0692,1.0692,1.0692,1.0692,1.0692,1.0692,1.0692,1.0692,1.0692,1.0692,1.0692,1.0692,1.0692,1.0586,1.0363,1.0366,1.0257,1.0257,0.9923,0.9706,0.9706,0.9706,0.9706,0.9706,0.9599,0.9596,0.9493,0.9293,0.92,0.8994,0.8998,0.9039,0.9133,0.9157,0.9222,0.9313,0.9361,0.9378,0.9384,0.9384,0.9388,0.9395,0.9388,0.9384,0.9501,0.9613,0.954,0.9436,0.9387,0.9363,0.9318,0.9412,0.95,0.9493,0.978,0.9902,0.9842,0.9789,0.9931,1.1776,1.1776,1.1776,1.1776,1.1776,1.1776,1.1776,1.1776,1.1776,1.1776,1.1776,1.1776,1.1776,1.1776,1.1776,1.1776,1.1776,1.1776,1.1776,1.1776,1.1776,1.1744,1.1634,1.1366,1.1062,1.0814,1.0724,1.0692,1.0692,1.0692,1.0692,1.0692,1.0692,1.0692,1.0692,1.0692,1.0692,1.0692,1.0692,1.0692,1.0692,1.0692,1.0692,1.0692,1.0692,1.0692,1.0692,1.0692,1.0692,1.0692,1.0692,1.0692,1.0692,1.0692,1.0692,1.0692,1.0692,1.0692,1.0692,1.0692,1.0692,1.0692,1.0692,1.0692,1.0692,1.0692,1.0692,1.0692,1.0692,1.0692,1.0582,1.0582,1.0363,1.0033,0.9706,0.9599,0.9599,0.9386,0.9154,0.9154,0.9158,0.92,0.9283,0.9307,0.9233,0.9208,0.9222,0.9256,0.9296,0.931,0.9313,0.9378,0.9449,0.9655,0.9658,0.9801,0.9832,0.9811,0.9672,0.9655,0.9773,0.9877,0.9916,0.9831,0.9896,0.9846,0.9799,0.977,0.9858,1.0001,1.025,1.0262,1.0152,1.0292,1.044,1.1776,1.1776,1.1776,1.1776,1.1776,1.1776,1.1776,1.1776,1.1776,1.1776,1.1776,1.1776,1.1776,1.1776,1.1776,1.1776,1.1776,1.1776,1.1776,1.1776,1.1776,1.1744,1.165,1.137,1.1082,1.0846,1.0794,1.0757,1.0692,1.0692,1.0692,1.0692,1.0692,1.0692,1.0692,1.0692,1.0692,1.0692,1.0692,1.0692,1.0692,1.0692,1.0692,1.0692,1.0692,1.0692,1.0692,1.0692,1.0692,1.0692,1.0692,1.0692,1.0692,1.0692,1.0692,1.0692,1.0692,1.0692,1.0692,1.0692,1.0692,1.0692,1.0692,1.0692,1.0692,1.0692,1.0692,1.0692,1.0692,1.0688,1.0582,1.0582,1.0253,0.9816,0.9816,0.971,0.9603,0.9432,0.9356,0.9374,0.9412,0.937,0.9436,0.9467,0.9384,0.9476,0.9381,0.9418,0.9442,0.9466,0.96,0.9641,0.986,1.0039,1.0053,1.0098,1.0158,1.0127,1.0081,1.006,1.0042,1.0278,1.0346,1.0201,1.0233,1.0156,1.0108,1.0237,1.0345,1.0528,1.0806,1.0739,1.0704,1.0809,1.0856,1.1776,1.1776,1.1776,1.1776,1.1776,1.1776,1.1776,1.1776,1.1776,1.1776,1.1776,1.1776,1.1776,1.1776,1.1776,1.1776,1.1776,1.1776,1.1776,1.1776,1.1768,1.1695,1.1516,1.135,1.1171,1.1005,1.098,1.0891,1.0745,1.0737,1.07,1.0696,1.0692,1.0692,1.0692,1.0692,1.0692,1.0692,1.0692,1.0692,1.0692,1.0692,1.0692,1.0692,1.0692,1.0692,1.0692,1.0692,1.0692,1.0692,1.0692,1.0692,1.0692,1.0692,1.0692,1.0692,1.0692,1.0692,1.0692,1.0692,1.0692,1.0692,1.0692,1.0692,1.0692,1.0692,1.0692,1.0692,1.0692,1.0582,1.0476,1.0363,1.026,0.9945,1.0078,1.0075,0.9846,0.9868,0.984,0.9873,1.0093,1.0192,0.9841,0.9852,0.9754,0.9669,0.9569,0.9752,0.9815,0.987,0.9926,1.0088,1.024,1.0368,1.0364,1.0492,1.0547,1.0415,1.051,1.0507,1.0499,1.074,1.0861,1.0829,1.0593,1.0507,1.0484,1.0767,1.0891,1.1036,1.1129,1.1157,1.1205,1.1212,1.1142,1.1776,1.1776,1.1776,1.1776,1.1776,1.1776,1.1776,1.1776,1.1776,1.1776,1.1776,1.1776,1.1776,1.1776,1.1776,1.1776,1.1776,1.1776,1.1776,1.1776,1.1776,1.1671,1.1529,1.1451,1.133,1.1179,1.1151,1.1066,1.0903,1.0899,1.0834,1.0696,1.0712,1.07,1.0692,1.0696,1.0692,1.0692,1.0692,1.0692,1.0692,1.0692,1.0692,1.0692,1.0692,1.0692,1.0692,1.0692,1.0692,1.0692,1.0692,1.0692,1.0692,1.0692,1.0692,1.0692,1.0692,1.0692,1.0692,1.0692,1.0692,1.0692,1.0692,1.0692,1.0692,1.0692,1.0692,1.0692,1.0692,1.0696,1.0586,1.0594,1.0536,1.0312,1.0339,1.0111,0.9792,0.9792,0.9896,0.9907,1.0062,1.0142,1.034,1.0377,1.0406,1.0368,1.0397,1.0401,1.0321,1.0343,1.0371,1.0507,1.0649,1.0657,1.0781,1.0785,1.0789,1.0789,1.0899,1.1137,1.1137,1.1261,1.1503,1.1451,1.1268,1.1181,1.1351,1.1531,1.1511,1.1434,1.145,1.1541,1.1347,1.1315,1.1183,1.1776,1.1776,1.1776,1.1776,1.1776,1.1776,1.1776,1.1776,1.1776,1.1776,1.1776,1.1776,1.1776,1.1776,1.1776,1.1776,1.1776,1.1776,1.1776,1.1776,1.1776,1.1715,1.1634,1.161,1.152,1.1354,1.1342,1.124,1.1102,1.1078,1.1013,1.0928,1.0842,1.081,1.081,1.0724,1.0692,1.0692,1.0692,1.0692,1.0692,1.0692,1.0692,1.0692,1.0692,1.0692,1.0692,1.0692,1.0692,1.0692,1.0692,1.0692,1.0692,1.0692,1.0692,1.0692,1.0692,1.0692,1.0692,1.0692,1.0692,1.0692,1.0692,1.0692,1.0692,1.0692,1.0692,1.0692,1.0692,1.0733,1.081,1.0867,1.0847,1.0834,1.0677,1.0456,0.9942,1.0077,1.0164,1.019,1.0237,1.0299,1.0644,1.0651,1.0696,1.0755,1.0759,1.0767,1.0778,1.0793,1.0914,1.091,1.1031,1.1031,1.116,1.1281,1.116,1.116,1.1156,1.1398,1.1522,1.1647,1.1647,1.1768,1.1772,1.1776,1.1776,1.1776,1.174,1.1707,1.1768,1.1772,1.1522,1.1394,1.1273,1.1776,1.1776,1.1776,1.1776,1.1776,1.1776,1.1776,1.1776,1.1776,1.1776,1.1776,1.1776,1.1776,1.1776,1.1776,1.1776,1.1776,1.1776,1.1776,1.1776,1.1776,1.1756,1.1748,1.174,1.1667,1.1545,1.1524,1.1415,1.1297,1.1252,1.1232,1.1155,1.1045,1.1005,1.096,1.0826,1.0733,1.0733,1.0704,1.0692,1.0692,1.0692,1.0692,1.0692,1.0692,1.0692,1.0692,1.0692,1.0692,1.0692,1.0692,1.0692,1.0692,1.0692,1.0692,1.0692,1.0692,1.0692,1.0692,1.0692,1.0692,1.0692,1.0692,1.0692,1.0692,1.0692,1.0708,1.0757,1.0724,1.0826,1.0976,1.1139,1.1224,1.1161,1.1407,1.1192,1.0658,1.0608,1.0699,1.0703,1.0827,1.0891,1.0914,1.091,1.091,1.114,1.116,1.116,1.116,1.116,1.1277,1.1277,1.1398,1.1398,1.1647,1.1772,1.1651,1.1651,1.1651,1.1651,1.1647,1.1772,1.1772,1.1776,1.1776,1.1776,1.1776,1.1776,1.1776,1.1776,1.1776,1.1776,1.1772,1.1522,1.1398,1.1776,1.1776,1.1776,1.1776,1.1776,1.1776,1.1776,1.1776,1.1776,1.1776,1.1776,1.1776,1.1776,1.1776,1.1776,1.1776,1.1776,1.1776,1.1776,1.1776,1.1776,1.1776,1.1776,1.1776,1.1752,1.1703,1.1711,1.1614,1.148,1.1427,1.1366,1.1244,1.1216,1.1171,1.1143,1.1001,1.0791,1.0767,1.0667,1.0606,1.0484,1.0488,1.048,1.0582,1.0582,1.0692,1.0692,1.0692,1.0692,1.0692,1.0692,1.0692,1.0692,1.0692,1.0692,1.0692,1.0692,1.0692,1.0692,1.0692,1.0692,1.0692,1.0708,1.0692,1.0692,1.0712,1.0777,1.0978,1.1031,1.0984,1.1151,1.1334,1.1419,1.1476,1.1589,1.1687,1.1427,1.1311,1.1203,1.1098,1.1121,1.1277,1.1526,1.1526,1.1526,1.153,1.153,1.153,1.1526,1.1526,1.1526,1.1643,1.1647,1.1647,1.1647,1.1776,1.1776,1.1776,1.1776,1.1776,1.1776,1.1776,1.1776,1.1776,1.1776,1.1776,1.1776,1.1776,1.1776,1.1776,1.1776,1.1776,1.1772,1.1647,1.1522,1.1776,1.1776,1.1776,1.1776,1.1776,1.1776,1.1776,1.1776,1.1776,1.1776,1.1776,1.1776,1.1776,1.1776,1.1776,1.1776,1.1776,1.1776,1.1776,1.1776,1.1776,1.1776,1.1776,1.1776,1.1776,1.1776,1.1772,1.1707,1.165,1.1618,1.1581,1.148,1.1399,1.1358,1.1325,1.106,1.063,1.0041,1.0201,1.0003,0.9252,0.9356,0.9532,0.9596,0.9801,0.9915,0.9471,1.0355,1.0359,1.0359,1.0472,1.0696,1.0692,1.0692,1.0692,1.0692,1.0692,1.0692,1.0692,1.0692,1.0692,1.0704,1.0765,1.0814,1.085,1.0887,1.0976,1.1175,1.1216,1.1159,1.1338,1.152,1.161,1.1642,1.1711,1.1772,1.1772,1.1647,1.1522,1.1522,1.1518,1.1647,1.1772,1.1776,1.1776,1.1651,1.1651,1.1651,1.1651,1.1651,1.1651,1.1772,1.1772,1.1772,1.1772,1.1776,1.1776,1.1776,1.1776,1.1776,1.1776,1.1776,1.1776,1.1776,1.1776,1.1776,1.1776,1.1776,1.1776,1.1776,1.1776,1.1776,1.1776,1.1651,1.1651,1.1776,1.1776,1.1776,1.1776,1.1776,1.1776,1.1776,1.1776,1.1776,1.1776,1.1776,1.1776,1.1776,1.1776,1.1776,1.1776,1.1776,1.1776,1.1776,1.1776,1.1776,1.1776,1.1776,1.1776,1.1776,1.1776,1.1776,1.176,1.176,1.1772,1.1727,1.1727,1.1379,1.1185,1.1256,1.0891,1.0218,0.9518,0.9466,0.8935,0.7926,0.8145,0.8326,0.8488,0.887,0.889,0.8683,0.936,0.9902,0.9325,1.0101,1.0441,1.054,1.07,1.0716,1.0729,1.0757,1.0789,1.0834,1.0814,1.0806,1.0781,1.0907,1.0997,1.1037,1.1106,1.1187,1.1376,1.1309,1.1386,1.1533,1.1654,1.1744,1.1764,1.1768,1.1776,1.1776,1.1776,1.1772,1.1772,1.1772,1.1772,1.1772,1.1776,1.1776,1.1776,1.1776,1.1776,1.1776,1.1776,1.1776,1.1776,1.1776,1.1776,1.1776,1.1776,1.1776,1.1776,1.1776,1.1776,1.1776,1.1776,1.1776,1.1776,1.1776,1.1776,1.1776,1.1776,1.1776,1.1776,1.1776,1.1776,1.1776,1.1776,1.1776,1.1776,1.1776,1.1776,1.1776,1.1776,1.1776,1.1776,1.1776,1.1776,1.1776,1.1776,1.1776,1.1776,1.1776,1.1776,1.1776,1.1776,1.1776,1.1776,1.1776,1.1776,1.1776,1.1776,1.1776,1.1776,1.1776,1.1776,1.1776,1.1776,1.1776,1.1776,1.1647,1.1004,1.0612,1.0204,0.9642,0.9446,0.9199,0.8889,0.8099,0.7594,0.7685,0.8028,0.7976,0.8246,0.8253,0.8214,0.8475,0.8602,0.8602,0.9411,0.9864,1.003,1.0297,1.0588,1.0887,1.0923,1.096,1.1049,1.1102,1.1126,1.1143,1.1159,1.1175,1.1191,1.1228,1.1342,1.1451,1.1573,1.1683,1.1719,1.1756,1.1768,1.1776,1.1776,1.1776,1.1776,1.1776,1.1776,1.1776,1.1776,1.1776,1.1776,1.1776,1.1776,1.1776,1.1776,1.1776,1.1776,1.1776,1.1776,1.1776,1.1776,1.1776,1.1776,1.1776,1.1776,1.1776,1.1776,1.1776,1.1776,1.1776,1.1776,1.1776,1.1776,1.1776,1.1776,1.1776,1.1776,1.1776,1.1776,1.1776,1.1776,1.1776,1.1776,1.1776,1.1776,1.1776,1.1776,1.1776,1.1776,1.1776,1.1776,1.1776,1.1776,1.1776,1.1776,1.1776,1.1776,1.1776,1.1776,1.1776,1.1776,1.1776,1.1776,1.1776,1.1776,1.1776,1.1776,1.1776,1.1776,1.1776,1.1776,1.1776,1.1776,1.153,1.1039,1.0429,1.0058,0.9559,0.9023,0.863,0.8609,0.8079,0.7414,0.6764,0.6845,0.693,0.7029,0.7348,0.734,0.7137,0.7974,0.7971,0.7852,0.8555,0.8907,0.9099,0.9384,0.9979,1.074,1.1102,1.1126,1.1208,1.122,1.1212,1.1232,1.1305,1.1362,1.1395,1.1459,1.1533,1.1626,1.1687,1.1776,1.1768,1.1776,1.1776,1.1776,1.1776,1.1776,1.1776,1.1776,1.1776,1.1776,1.1776,1.1776,1.1776,1.1776,1.1776,1.1776,1.1776,1.1776,1.1776,1.1776,1.1776,1.1776,1.1776,1.1776,1.1776,1.1776,1.1776,1.1776,1.1776,1.1776,1.1776,1.1776,1.1776,1.1776,1.1776,1.1776,1.1776,1.1776,1.1776,1.1776,1.1776,1.1776,1.1776,1.1776,1.1776,1.1776,1.1776,1.1776,1.1776,1.1776,1.1776,1.1776,1.1776,1.1776,1.1776,1.1776,1.1776,1.1776,1.1776,1.1776,1.1776,1.1776,1.1776,1.1776,1.1776,1.1776,1.1776,1.1776,1.1776,1.1776,1.1776,1.1776,1.1776,1.1776,1.153,1.1039,1.0425,1.0058,0.9329,0.859,0.8094,0.7739,0.7375,0.7131,0.6598,0.6043,0.5723,0.5684,0.5692,0.6389,0.6384,0.607,0.6904,0.7256,0.7136,0.76,0.8175,0.8169,0.8284,0.9101,1.0386,1.0829,1.0941,1.0988,1.1358,1.1395,1.1403,1.1488,1.1537,1.1577,1.165,1.1748,1.1776,1.1776,1.1776,1.1776,1.1776,1.1776,1.1776,1.1776,1.1776,1.1776,1.1776,1.1776,1.1776,1.1776,1.1776,1.1776,1.1776,1.1776,1.1776,1.1776,1.1776,1.1776,1.1776,1.1776,1.1776,1.1776,1.1776,1.1776,1.1776,1.1776,1.1776,1.1776,1.1776,1.1776,1.1776,1.1776,1.1776,1.1776,1.1776,1.1776,1.1776,1.1776,1.1776,1.1776,1.1776,1.1776,1.1776,1.1776,1.1776,1.1776,1.1776,1.1776,1.1776,1.1776,1.1776,1.1776,1.1776,1.1776,1.1776,1.1776,1.1776,1.1776,1.1776,1.1776,1.1776,1.1776,1.1776,1.1776,1.1776,1.1776,1.1776,1.1776,1.1776,1.1776,1.1776,1.1776,1.153,1.0917,1.0425,0.9937,0.8714,0.7617,0.7497,0.7011,0.6162,0.616,0.616,0.6031,0.5884,0.5808,0.581,0.5831,0.5933,0.6032,0.5841,0.6332,0.622,0.6348,0.696,0.7451,0.7577,0.8306,0.8669,0.9239,0.9663,1.0213,1.0426,1.104,1.1523,1.1515,1.1703,1.174,1.1732,1.1732,1.1776,1.1776,1.1776,1.1776,1.1776,1.1776,1.1776,1.1776,1.1776,1.1776,1.1776,1.1776,1.1776,1.1776,1.1776,1.1776,1.1776,1.1776,1.1776,1.1776,1.1776,1.1776,1.1776,1.1776,1.1776,1.1776,1.1776,1.1776,1.1776,1.1776,1.1776,1.1776,1.1776,1.1776,1.1776,1.1776,1.1776,1.1776,1.1776,1.1776,1.1776,1.1776,1.1776,1.1776,1.1776,1.1776,1.1776,1.1776,1.1776,1.1776,1.1776,1.1776,1.1776,1.1776,1.1776,1.1776,1.1776,1.1776,1.1776,1.1776,1.1776,1.1776,1.1776,1.1776,1.1776,1.1776,1.1776,1.1776,1.1776,1.1776,1.1776,1.1776,1.1776,1.1776,1.153,1.1285,1.0917,1.0796,1.0425,0.9937,0.8593,0.7861,0.7133,0.6766,0.616,0.5916,0.5916,0.5916,0.5919,0.5906,0.5882,0.5876,0.5914,0.5874,0.5884,0.5904,0.5919,0.5919,0.5916,0.6403,0.6526,0.6646,0.6888,0.7133,0.725,0.806,0.8778,0.9428,1.0425,1.0796,1.1163,1.1409,1.1768,1.1776,1.1776,1.1776,1.1776,1.1776,1.1776,1.1776,1.1776,1.1776,1.1776,1.1776,1.1776,1.1776,1.1776,1.1776,1.1776,1.1776,1.1776,1.1776,1.1776,1.1776,1.1776,1.1776,1.1776,1.1776,1.1776,1.1776,1.1776,1.1776,1.1776,1.1776,1.1776,1.1776,1.1776,1.1776,1.1776,1.1776,1.1776,1.1776,1.1776,1.1776,1.1776,1.1776,1.1776,1.1776,1.1776,1.1776,1.1776,1.1776,1.1776,1.1776,1.1156,1.1409,1.1655,1.1776,1.1776,1.1776,1.1776,1.1776,1.1776,1.1776,1.1776,1.1776,1.1776,1.1776,1.1776,1.1776,1.1776,1.1776,1.1776,1.1776,1.1776,1.1651,1.153,1.153,1.153,1.1042,1.0671,1.0061,0.9572,0.9329,0.8714,0.7375,0.7133,0.6648,0.6162,0.5919,0.5919,0.5919,0.5919,0.5919,0.5916,0.5916,0.5912,0.5919,0.5916,0.5919,0.5919,0.5919,0.5919,0.5916,0.5916,0.6039,0.6039,0.6162,0.6162,0.6283,0.6874,0.7365,0.8105,0.9086,0.9694,1.0183,1.0796,1.1405,1.1776,1.1776,1.1776,1.1776,1.1776,1.1776,1.1776,1.1776,1.1776,1.1776,1.1776,1.1776,1.1776,1.1776,1.1776,1.1776,1.1776,1.1776,1.1776,1.1776,1.1776,1.1776,1.1776,1.1776,1.1776,1.1776,1.1776,1.1776,1.1776,1.1776,1.1776,1.1776,1.1776,1.1776,1.1776,1.1776,1.1776,1.1776,1.1776,1.1776,1.1776,1.1776,1.1776,1.1776,1.1776,1.1776,1.1776,1.1776,1.1776,1.1776,1.1776,0.9552,1.0425,1.1405,1.1776,1.1776,1.1776,1.1776,1.1776,1.1776,1.1776,1.1776,1.1776,1.1776,1.1776,1.1655,1.1655,1.1776,1.1776,1.153,1.1651,1.1776,1.1285,1.1042,1.0917,1.0796,0.9572,0.9451,0.8961,0.8105,0.7864,0.7617,0.7375,0.6646,0.6162,0.5919,0.5919,0.5919,0.5919,0.5919,0.5919,0.5919,0.5919,0.5919,0.5919,0.5919,0.5919,0.5919,0.5919,0.5919,0.5919,0.5919,0.5919,0.5919,0.5919,0.5919,0.6039,0.6039,0.6405,0.6893,0.7986,0.8717,0.9204,0.9937,1.0917,1.1409,1.1772,1.1776,1.1776,1.1776,1.1776,1.1776,1.1776,1.1776,1.1776,1.1776,1.1776,1.1776,1.1776,1.1776,1.1776,1.1776,1.1776,1.1776,1.1776,1.1776,1.1776,1.1776,1.1776,1.1776,1.1776,1.1776,1.1776,1.1776,1.1776,1.1776,1.1776,1.1776,1.1776,1.1776,1.1776,1.1776,1.1776,1.1776,1.1776,1.1776,1.1776,1.1776,1.1776,1.1776,1.1776,1.1776,1.1776,1.1776,1.1776,1.1776,0.7955,0.9447,0.9815,1.0671,1.1776,1.1776,1.1776,1.1776,1.1776,1.1776,1.1776,1.1776,1.1776,1.1651,1.1039,1.0917,1.0917,1.0917,1.055,1.0671,1.0796,1.0671,1.0304,1.0061,1.0179,0.8961,0.8717,0.8352,0.7495,0.6888,0.6526,0.6283,0.6037,0.6039,0.5919,0.5919,0.5919,0.5919,0.5919,0.5919,0.5919,0.5919,0.5919,0.5919,0.5919,0.5919,0.5919,0.5919,0.5919,0.5919,0.5919,0.5919,0.5919,0.5919,0.5919,0.5919,0.5919,0.5919,0.6039,0.7133,0.8105,0.8958,0.9694,1.0429,1.0917,1.1405,1.1772,1.1776,1.1776,1.1651,1.1772,1.1776,1.1776,1.1776,1.1776,1.1772,1.1772,1.1651,1.1651,1.1651,1.1772,1.1776,1.1776,1.1776,1.1776,1.1776,1.1776,1.1776,1.1776,1.1776,1.1776,1.1776,1.1776,1.1776,1.1776,1.1776,1.1776,1.1776,1.1776,1.1776,1.1776,1.1776,1.1776,1.1776,1.1776,1.1776,1.1776,1.1776,1.1776,1.1776,1.1776,1.1776,1.1776,1.1776,1.1776,0.6858,0.8346,0.8349,0.9326,1.0793,1.0917,1.0917,1.0917,1.0796,1.1042,1.1171,1.1042,1.1042,1.0921,1.0304,0.9815,0.9815,0.9815,0.9451,0.9572,0.994,0.9815,0.9204,0.8961,0.9086,0.8108,0.7739,0.7373,0.6766,0.616,0.6039,0.6039,0.5919,0.5919,0.5919,0.5919,0.5919,0.5919,0.5919,0.5919,0.5919,0.5919,0.5919,0.5919,0.5919,0.5919,0.5919,0.5919,0.5919,0.5919,0.5919,0.5919,0.5919,0.5919,0.5919,0.5919,0.5919,0.5919,0.616,0.6523,0.7375,0.8227,0.8836,0.9447,1.0179,1.0793,1.1039,1.1522,1.1526,1.1526,1.1526,1.1405,1.1405,1.1281,1.1285,1.1285,1.1281,1.1281,1.1402,1.1405,1.1405,1.1405,1.1526,1.1526,1.1651,1.1772,1.1776,1.1776,1.1776,1.1776,1.1776,1.1776,1.1776,1.1776,1.1776,1.1776,1.1776,1.1776,1.1776,1.1776,1.1776,1.1776,1.1776,1.1776,1.1776,1.1776,1.1776,1.1776,1.1776,1.1776,1.1776,1.1776,1.1776,1.1776,1.1776,0.6505,0.7373,0.7373,0.7983,0.8836,0.8958,0.8958,0.9204,0.9079,0.9454,0.9832,0.9451,0.9326,0.9457,0.8958,0.8839,0.8839,0.8836,0.8596,0.8596,0.9083,0.8352,0.8108,0.8108,0.8111,0.6648,0.6646,0.6766,0.6037,0.5792,0.5794,0.5671,0.5669,0.5671,0.5794,0.5919,0.5919,0.5919,0.5919,0.5794,0.5671,0.5671,0.5548,0.5548,0.5548,0.5548,0.5423,0.5423,0.5423,0.5548,0.5671,0.5671,0.5548,0.5546,0.5546,0.5794,0.5794,0.5794,0.5916,0.5916,0.6526,0.7253,0.7739,0.8224,0.9319,0.9933,1.0179,1.066,1.0906,1.0914,1.091,1.091,1.091,1.0914,1.1035,1.1035,1.1035,1.1035,1.1156,1.116,1.0914,1.0914,1.1031,1.1152,1.1402,1.1647,1.1772,1.1776,1.1776,1.1776,1.1776,1.1776,1.1776,1.1776,1.1776,1.1776,1.1776,1.1776,1.1776,1.1776,1.1776,1.1776,1.1776,1.1776,1.1776,1.1776,1.1776,1.1776,1.1776,1.1776,1.1776,1.1776,1.1776,1.1776,1.1776,0.6154,0.6403,0.6403,0.6523,0.7013,0.8349,0.8836,0.8836,0.8836,0.8961,0.9086,0.8836,0.7967,0.7596,0.7734,0.7861,0.7861,0.7861,0.7739,0.7136,0.7986,0.762,0.7255,0.7255,0.7133,0.6283,0.6283,0.6403,0.5916,0.5546,0.5298,0.5174,0.493,0.5053,0.5546,0.5669,0.5421,0.5671,0.5546,0.5176,0.5054,0.4807,0.4684,0.4684,0.4684,0.4684,0.4682,0.4807,0.4807,0.4807,0.4931,0.4931,0.4684,0.4559,0.4681,0.5051,0.5297,0.5421,0.5671,0.5916,0.6039,0.6403,0.6641,0.7001,0.749,0.8705,0.9191,0.9802,1.0415,1.0543,1.0789,1.0789,1.0789,1.0793,1.0914,1.0914,1.0914,1.0914,1.0914,1.0914,1.0793,1.0793,1.0789,1.0789,1.1156,1.1402,1.1526,1.1772,1.1776,1.1776,1.1776,1.1776,1.1776,1.1776,1.1776,1.1776,1.1776,1.1776,1.1776,1.1776,1.1776,1.1776,1.1776,1.1776,1.1776,1.1776,1.1776,1.1776,1.1776,1.1776,1.1776,1.1776,1.1776,1.1776,1.1776,0.5919,0.5919,0.5919,0.5919,0.6037,0.7255,0.7867,0.7742,0.7742,0.7744,0.7744,0.7742,0.7245,0.6383,0.651,0.6888,0.6888,0.6888,0.6766,0.6039,0.7013,0.6768,0.6526,0.6523,0.6526,0.6039,0.5794,0.5794,0.5546,0.5051,0.4803,0.4435,0.3944,0.4313,0.4684,0.4805,0.4805,0.5053,0.4807,0.4435,0.419,0.4067,0.3944,0.3944,0.3944,0.3944,0.3944,0.3944,0.3944,0.3944,0.4067,0.4192,0.3821,0.382,0.3819,0.4435,0.4558,0.4805,0.5053,0.5053,0.5053,0.5174,0.5659,0.5655,0.5774,0.6996,0.7847,0.8581,0.9684,1.0179,1.0425,1.0547,1.0547,1.0547,1.0547,1.0425,1.0425,1.0425,1.0425,1.0547,1.0547,1.055,1.055,1.0668,1.0793,1.1035,1.1402,1.1526,1.1772,1.1776,1.1776,1.1776,1.1776,1.1776,1.1776,1.1776,1.1776,1.1776,1.1776,1.1776,1.1776,1.1776,1.1776,1.1776,1.1776,1.1776,1.1776,1.1776,1.1776,1.1776,1.1776,1.1776,1.1776,1.1776,1.1776,0.5919,0.5919,0.5919,0.5919,0.5916,0.6037,0.6039,0.6039,0.6039,0.6039,0.6039,0.616,0.6035,0.5914,0.5916,0.6039,0.6037,0.5916,0.5792,0.5792,0.6158,0.5792,0.5792,0.5792,0.5669,0.5792,0.5548,0.5176,0.4926,0.4558,0.4189,0.3821,0.3208,0.3453,0.3698,0.3821,0.4069,0.4315,0.4192,0.3698,0.3329,0.3452,0.3452,0.3452,0.3452,0.3575,0.3575,0.3576,0.3575,0.3698,0.3698,0.3821,0.3821,0.382,0.382,0.3821,0.3821,0.4067,0.419,0.419,0.4067,0.419,0.4558,0.4182,0.4668,0.5896,0.6996,0.7972,0.9073,0.9569,0.994,0.994,0.994,0.994,0.994,0.994,0.994,0.994,0.994,0.994,0.994,0.994,1.0065,1.0186,1.0425,1.0789,1.1035,1.1402,1.1526,1.1772,1.1776,1.1776,1.1776,1.1776,1.1776,1.1776,1.1776,1.1776,1.1776,1.1776,1.1776,1.1776,1.1776,1.1776,1.1776,1.1776,1.1776,1.1776,1.1776,1.1776,1.1776,1.1776,1.1776,1.1776,1.1776,0.5673,0.5297,0.5671,0.5919,0.5919,0.5919,0.5919,0.5919,0.5919,0.5919,0.5919,0.5919,0.5794,0.5919,0.5919,0.5794,0.5671,0.5421,0.5297,0.5174,0.5176,0.4928,0.4805,0.4928,0.4805,0.4682,0.4559,0.4438,0.4067,0.3821,0.3207,0.2592,0.247,0.2592,0.2592,0.2592,0.3209,0.3701,0.3454,0.2961,0.2591,0.2716,0.2716,0.2716,0.2716,0.2716,0.2716,0.2716,0.2716,0.2592,0.2592,0.2592,0.2592,0.2591,0.2715,0.333,0.3575,0.3944,0.3943,0.3944,0.3698,0.333,0.3453,0.4066,0.4553,0.5408,0.6632,0.7487,0.883,0.9572,0.9819,0.9819,0.9819,0.9819,0.9819,0.9819,0.9819,0.9819,0.9819,0.9819,0.9819,0.9819,0.9822,0.9822,1.0183,1.0425,1.0789,1.1035,1.1402,1.1647,1.1776,1.1776,1.1776,1.1776,1.1776,1.1776,1.1776,1.1776,1.1776,1.1776,1.1776,1.1776,1.1776,1.1776,1.1776,1.1776,1.1776,1.1776,1.1776,1.1776,1.1776,1.1776,1.1776,1.1776,1.1776,0.4537,0.4925,0.5298,0.5669,0.5919,0.5919,0.5794,0.5546,0.5794,0.5919,0.5919,0.5669,0.5421,0.5054,0.5053,0.5053,0.5053,0.4682,0.4558,0.4558,0.4558,0.4313,0.4189,0.4189,0.4312,0.3943,0.3821,0.3944,0.3453,0.2961,0.2346,0.21,0.1977,0.1977,0.21,0.2224,0.247,0.2717,0.2717,0.2346,0.2224,0.1977,0.1977,0.1977,0.1977,0.1977,0.1977,0.1977,0.1977,0.1977,0.1977,0.1977,0.1977,0.21,0.2099,0.2592,0.2838,0.296,0.296,0.3085,0.2838,0.2716,0.2716,0.3329,0.4307,0.5286,0.6141,0.6996,0.859,0.9819,0.9819,0.9819,0.9819,0.9819,0.9819,0.9819,0.9819,0.9819,0.9819,0.9819,0.9819,0.9819,0.9819,0.9819,0.994,1.0304,1.0668,1.1031,1.1277,1.1647,1.1772,1.1776,1.1776,1.1776,1.1776,1.1776,1.1776,1.1776,1.1776,1.1776,1.1776,1.1776,1.1776,1.1776,1.1776,1.1776,1.1776,1.1776,1.1776,1.1776,1.1776,1.1776,1.1776,1.1776,1.1776,0.3034,0.4671,0.48,0.5176,0.5671,0.5671,0.5421,0.4926,0.5423,0.5794,0.5794,0.5174,0.4435,0.3943,0.4066,0.419,0.419,0.3944,0.3821,0.3821,0.3821,0.3698,0.3576,0.3822,0.3698,0.3698,0.3575,0.3207,0.2839,0.247,0.2099,0.1977,0.1977,0.1977,0.1977,0.1977,0.2224,0.2224,0.2224,0.21,0.21,0.1977,0.1977,0.1977,0.1977,0.1977,0.1977,0.1977,0.1977,0.1977,0.1977,0.1977,0.1977,0.1977,0.2099,0.2099,0.2223,0.2346,0.2346,0.2346,0.2224,0.21,0.21,0.2591,0.3573,0.4673,0.5406,0.6508,0.7978,0.8961,0.9086,0.9576,0.9819,0.9819,0.9819,0.9819,0.9819,0.9819,0.9819,0.9819,0.9819,0.9819,0.9819,0.9819,0.9822,1.0183,1.0547,1.091,1.1156,1.1526,1.1772,1.1776,1.1776,1.1776,1.1776,1.1776,1.1776,1.1776,1.1776,1.1776,1.1776,1.1776,1.1776,1.1776,1.1776,1.1776,1.1776,1.1776,1.1776,1.1776,1.1776,1.1776,1.1776,1.1776,1.1776,0.2535,0.3397,0.3925,0.419,0.4436,0.4926,0.4803,0.4189,0.4803,0.5423,0.5552,0.4684,0.3571,0.2833,0.3451,0.3698,0.3698,0.333,0.3208,0.3208,0.3207,0.296,0.2716,0.3085,0.2961,0.2592,0.2469,0.2592,0.2346,0.21,0.1977,0.1977,0.1977,0.1977,0.1977,0.1977,0.1977,0.1977,0.1977,0.1977,0.1977,0.1977,0.1977,0.1977,0.1977,0.1977,0.1977,0.1977,0.1977,0.1977,0.1977,0.1977,0.1977,0.1977,0.1977,0.1977,0.1977,0.1977,0.1977,0.1977,0.1977,0.1977,0.21,0.2223,0.2713,0.3816,0.4916,0.6018,0.7243,0.8102,0.8717,0.9329,0.9819,0.9819,0.9819,0.9819,0.9819,0.9819,0.9819,0.9819,0.9819,0.9819,0.9819,0.9822,0.9822,1.0065,1.0547,1.091,1.1035,1.1402,1.1772,1.1776,1.1776,1.1776,1.1776,1.1776,1.1776,1.1776,1.1776,1.1776,1.1776,1.1776,1.1776,1.1776,1.1776,1.1776,1.1776,1.1776,1.1776,1.1776,1.1776,1.1776,1.1776,1.1776,1.1776,0.2261,0.2897,0.3674,0.3943,0.3944,0.4312,0.4067,0.3698,0.3943,0.4069,0.4198,0.3701,0.2959,0.2096,0.2837,0.3083,0.3085,0.2716,0.2592,0.2592,0.2592,0.2346,0.2346,0.247,0.2346,0.21,0.1977,0.21,0.1977,0.1977,0.1977,0.1977,0.1977,0.1977,0.1977,0.1977,0.1977,0.1977,0.1977,0.1977,0.1977,0.1977,0.1977,0.1977,0.1977,0.1977,0.1977,0.1977,0.1977,0.1977,0.1977,0.1977,0.1977,0.1977,0.1977,0.1977,0.1977,0.1977,0.1977,0.1977,0.1977,0.1977,0.1977,0.2099,0.308,0.4182,0.4671,0.5896,0.8099,0.9086,0.9207,0.9697,0.9819,0.9819,0.9819,0.9819,0.9819,0.9819,0.9819,0.9819,0.9819,0.9819,0.9819,0.9819,0.9822,0.9943,1.0425,1.0789,1.1035,1.1281,1.1647,1.1776,1.1776,1.1776,1.1776,1.1776,1.1776,1.1776,1.1776,1.1776,1.1776,1.1776,1.1776,1.1776,1.1776,1.1776,1.1776,1.1776,1.1776,1.1776,1.1776,1.1776,1.1776,1.1776,1.1776,0.2228,0.2774,0.343,0.3699,0.3698,0.3698,0.3453,0.2961,0.2962,0.2716,0.2346,0.2716,0.2469,0.2223,0.1977,0.1977,0.21,0.2224,0.21,0.21,0.21,0.21,0.21,0.21,0.21,0.21,0.1977,0.1977,0.1977,0.1977,0.1977,0.1977,0.1977,0.1977,0.1977,0.1977,0.1977,0.1977,0.1977,0.1977,0.1977,0.1977,0.1977,0.1977,0.1977,0.1977,0.1977,0.1977,0.1977,0.1977,0.1977,0.1977,0.1977,0.1977,0.1977,0.1977,0.1977,0.1977,0.1977,0.1977,0.1977,0.1977,0.1977,0.2468,0.3324,0.4303,0.4916,0.6385,0.8468,0.9329,0.9451,0.9697,0.9819,0.9819,0.9819,0.9819,0.9819,0.9819,0.9819,0.9819,0.9819,0.9819,0.9819,0.9819,0.9819,0.9943,1.0186,1.0547,1.0914,1.1277,1.1526,1.1772,1.1776,1.1776,1.1776,1.1776,1.1776,1.1776,1.1776,1.1776,1.1776,1.1776,1.1776,1.1776,1.1776,1.1776,1.1776,1.1776,1.1776,1.1776,1.1776,1.1776,1.1776,1.1776,1.1776,0.1875,0.2175,0.2331,0.2346,0.2469,0.2961,0.2838,0.2346,0.2715,0.2591,0.2223,0.2099,0.2099,0.1977,0.1977,0.1977,0.1977,0.1977,0.1977,0.1977,0.1977,0.1977,0.1977,0.1977,0.1977,0.1977,0.1977,0.1977,0.1977,0.1977,0.1977,0.1977,0.1977,0.1977,0.1977,0.1977,0.1977,0.1977,0.1977,0.1977,0.1977,0.1977,0.1977,0.1977,0.1977,0.1977,0.1977,0.1977,0.1977,0.1977,0.1977,0.1977,0.1977,0.1977,0.1977,0.1977,0.1977,0.1977,0.1977,0.1977,0.1977,0.1977,0.2099,0.222,0.3323,0.4668,0.5647,0.6872,0.8343,0.859,0.8836,0.9572,0.9819,0.9819,0.9819,0.9819,0.9819,0.9819,0.9819,0.9819,0.9819,0.9819,0.9819,0.9819,0.9819,0.9943,1.0065,1.0429,1.0789,1.1156,1.1522,1.1647,1.1776,1.1776,1.1776,1.1776,1.1776,1.1776,1.1776,1.1776,1.1776,1.1776,1.1776,1.1776,1.1776,1.1776,1.1776,1.1776,1.1776,1.1776,1.1776,1.1776,1.1776,1.1776,1.1776]},{"header":{"parameterUnit":"m.s-1","parameterCategory":1,"la1":31.0,"la2":29.5877,"lo1":-88.7671,"lo2":-86.6584,"dy":0.0162,"dx":0.0185,"nx":115,"ny":88,"refTime":"2023-07-13T12:00:00:Z","depth":0,"parameterNumber":3,"parameterNumberName":"V-component_of_WINDS"},"data":[0.0,0.0,0.0,0.0,0.0,0.0,0.0,0.0,0.0,0.0,0.0,0.0,0.0,0.0,0.0,0.0,0.0,0.0,0.0,0.0,0.0,0.0,0.0,0.0,0.0,0.0,0.0,0.0,0.0,0.0,0.0,0.0,0.0,0.0,0.0,0.0,0.0,0.0,0.0,0.0,0.0,0.0,0.0,0.0,0.0,0.0,0.0,0.0,0.0,0.0,0.0,0.0,0.0,0.0,0.0,0.0,0.0,0.0,0.0,0.0,0.0,0.0,0.0,0.0,0.0,0.0,0.0,0.0,0.0,0.0,0.0,0.0,0.0,0.0,0.0,0.0,0.0,0.0,0.0,0.0,0.0,0.0,0.0,0.0,0.0,0.0,0.0,0.0,0.0,0.0,0.0,0.0,0.0,0.0,0.0,0.0,0.0,0.0,0.0,0.0,0.0,0.0,0.0,0.0,0.0,0.0,0.0,0.0,0.0,0.0,0.0,0.0,0.0,0.0,0.0,0.0,0.0,0.0,0.0,0.0,0.0,0.0,0.0,0.0,0.0,0.0,0.0,0.0,0.0,0.0,0.0,0.0,0.0,0.0,0.0,0.0,0.0,0.0,0.0,0.0,0.0,0.0,0.0,0.0,0.0,0.0,0.0,0.0,0.0,0.0,0.0,0.0,0.0,0.0,0.0,0.0,0.0,0.0,0.0,0.0,0.0,0.0,0.0,0.0,0.0,0.0,0.0,0.0,0.0,0.0,0.0,0.0,0.0,0.0,0.0,0.0,0.0,0.0,0.0,0.0,0.0,0.0,0.0,0.0,0.0,0.0,0.0,0.0,0.0,0.0,0.0,0.0,0.0,0.0,0.0,0.0,0.0,0.0,0.0,0.0,0.0,0.0,0.0,0.0,0.0,0.0,0.0,0.0,0.0,0.0,0.0,0.0,0.0,0.0,0.0,0.0,0.0,0.0,0.0,0.0,0.0,0.0,0.0,0.0,0.0,0.0,0.0,0.0,0.0,0.0,0.0,0.0,0.0,0.0,0.0,0.0,0.0,0.0,0.0,0.0,0.0,0.0,0.0,0.0,0.0,0.0,0.0,0.0,0.0,0.0,0.0,0.0,0.0,0.0,0.0,0.0,0.0,0.0,0.0,0.0,0.0,0.0,0.0,0.0,0.0,0.0,0.0,0.0,0.0,0.0,0.0,0.0,0.0,0.0,0.0,0.0,0.0,0.0,0.0,0.0,0.0,0.0,0.0,0.0,0.0,0.0,0.0,0.0,0.0,0.0,0.0,0.0,0.0,0.0,0.0,0.0,0.0,0.0,0.0,0.0,0.0,0.0,0.0,0.0,0.0,0.0,0.0,0.0,0.0,0.0,0.0,0.0,0.0,0.0,0.0,0.0,0.0,0.0,0.0,0.0,0.0,0.0,0.0,0.0,0.0,0.0,0.0,0.0,0.0,0.0,0.0,0.0,0.0,0.0,0.0,0.0,0.0,0.0,0.0,0.0,0.0,0.0,0.0,0.0,0.0,0.0,0.0,0.0,0.0,0.0,0.0,0.0,0.0,0.0,0.0,0.0,0.0,0.0,0.0,0.0,0.0,0.0,0.0,0.0,0.0,0.0,0.0,0.0,0.0,0.0,0.0,0.0,0.0,0.0,0.0,0.0,0.0,0.0,0.0,0.0,0.0,0.0,0.0,0.0,0.0,0.0,0.0,0.0,0.0,0.0,0.0,0.0,0.0,0.0,0.0,0.0,0.0,0.0,0.0,0.0,0.0,0.0,0.0,0.0,0.0,0.0,0.0,0.0,0.0,0.0,0.0,0.0,0.0,0.0,0.0,0.0,0.0,0.0,0.0,0.0,0.0,0.0,0.0,0.0,0.0,0.0,0.0,0.0,0.0,0.0,0.0,0.0,0.0,0.0,0.0,0.0,0.0,0.0,0.0,0.0,0.0,0.0,0.0,0.0,0.0,0.0,0.0,0.0,0.0,0.0,0.0,0.0,0.0,0.0,0.0,0.0,0.0,0.0,0.0,0.0,0.0,0.0,0.0,0.0,0.0,0.0,0.0,0.0,0.0,0.0,0.0,0.0,0.0,0.0,0.0,0.0,0.0,0.0,0.0,0.0,0.0,0.0,0.0,0.0,0.0,0.0,0.0,0.0,0.0,0.0,0.0,0.0,0.0,0.0,0.0,0.0,0.0,0.0,0.0,0.0,0.0,0.0,0.0,0.0,0.0,0.0,0.0,0.0,0.0,0.0,0.0,0.0,0.0,0.0,0.0,0.0,0.0,0.0,0.0,0.0,0.0,0.0,0.0,0.0,0.0,0.0,0.0,0.0,0.0,0.0,0.0,0.0,0.0,0.0,0.0,0.0,0.0,0.0,0.0,0.0,0.0,0.0,0.0,0.0,0.0,0.0,0.0,0.0,0.0,0.0,0.0,0.0,0.0,0.0,0.0,0.0,0.0,0.0,0.0,0.0,0.0,0.0,0.0,0.0,0.0,0.0,0.0,0.0,0.0,0.0,0.0,0.0,0.0,0.0,0.0,0.0,0.0,0.0,0.0,0.0,0.0,0.0,0.0,0.0,0.0,0.0,0.0,0.0,0.0,0.0,0.0,0.0,0.0,0.0,0.0,0.0,0.0,0.0,0.0,0.0,0.0,0.0,0.0,0.0,0.0,0.0,0.0,0.0,0.0,0.0,0.0,0.0,0.0,0.0,0.0,0.0,0.0,0.0,0.0,0.0,0.0,0.0,0.0,0.0,0.0,0.0,0.0,0.0,0.0,0.0,0.0,0.0,0.0,0.0,0.0,0.0,0.0,0.0,0.0,0.0,0.0,0.0,0.0,0.0,0.0,0.0,0.0,0.0,0.0,0.0,0.0,0.0,0.0,0.0,0.0,0.0,0.0,0.0,0.0,0.0,0.0,0.0,0.0,0.0,0.0,0.0,0.0,0.0,0.0,0.0,0.0,0.0,0.0,0.0,0.0,0.0,0.0,0.0,0.0,0.0,0.0,0.0,0.0,0.0,0.0,0.0,0.0,0.0,0.0,0.0,0.0,0.0,0.0,0.0,0.0,0.0,0.0,0.0,0.0,0.0,0.0,0.0,0.0,0.0,0.0,0.0,0.0,0.0,0.0,0.0,0.0,0.0,0.0,0.0,0.0,0.0,0.0,0.0,0.0,0.0,0.0,0.0,0.0,0.0,0.0,0.0,0.0,0.0,0.0,0.0,0.0,0.0,0.0,0.0,0.0,0.0,0.0,0.0,0.0,0.0,0.0,0.0,0.0,0.0,0.0,0.0,0.0,0.0,0.0,0.0,0.0,0.0,0.0,0.0,0.0,0.0,0.0,0.0,0.0,0.0,0.0,0.0,0.0,0.0,0.0,0.0,0.0,0.0,0.0,0.0,0.0,0.0,0.0,0.0,0.0,0.0,0.0,0.0,0.0,0.0,0.0,0.0,0.0,0.0,0.0,0.0,0.0,0.0,0.0,0.0,0.0,0.0,0.0,0.0,0.0,0.0,0.0,0.0,0.0,0.0,0.0,0.0,0.0,0.0,0.0,0.0,0.0,0.0,0.0,0.0,0.0,0.0,0.0,0.0,0.0,0.0,0.0,0.0,0.0,0.0,0.0,0.0,0.0,0.0,0.0,0.0,0.0,0.0,0.0,0.0,0.0,0.0,0.0,0.0,0.0,0.0,0.0,0.0,0.0,0.0,0.0,0.0,0.0,0.0,0.0,0.0,0.0,0.0,0.0,0.0,0.0,0.0,0.0,0.0,0.0,0.0,0.0,0.0,0.0,0.0,0.0,0.0,0.0,0.0,0.0,0.0,0.0,0.0,0.0,0.0,0.0,0.0,0.0,0.0,0.0,0.0,0.0,0.0,0.0,0.0,0.0,0.0,0.0,0.0,0.0,0.0,0.0,0.0,0.0,0.0,0.0,0.0,0.0,0.0,0.0,0.0,0.0,0.0,0.0,0.0,0.0,0.0,0.0,0.0,0.0,0.0,0.0,0.0,0.0,0.0,0.0,0.0,0.0,0.0,0.0,0.0,0.0,0.0,0.0,0.0,0.0,0.0,0.0,0.0,0.0,0.0,0.0,0.0,0.0,0.0,0.0,0.0,0.0,0.0,0.0,0.0,0.0,0.0,0.0,0.0,0.0,0.0,0.0,0.0,0.0,0.0,0.0,0.0,0.0,0.0,0.0,0.0,0.0,0.0,0.0,0.0,0.0,0.0,0.0,0.0,0.0,0.0,0.0,0.0,0.0,0.0,-3.0204,0.0,0.0,0.0,0.0,0.0,0.0,0.0,0.0,0.0,0.0,0.0,0.0,0.0,0.0,0.0,0.0,0.0,0.0,0.0,0.0,0.0,0.0,0.0,0.0,0.0,0.0,0.0,0.0,0.0,0.0,0.0,0.0,0.0,0.0,0.0,0.0,0.0,0.0,0.0,0.0,0.0,0.0,0.0,0.0,0.0,0.0,0.0,0.0,0.0,0.0,0.0,0.0,0.0,0.0,0.0,0.0,0.0,0.0,0.0,0.0,0.0,0.0,0.0,0.0,0.0,0.0,0.0,0.0,0.0,0.0,0.0,0.0,0.0,0.0,0.0,0.0,0.0,0.0,0.0,0.0,0.0,0.0,0.0,0.0,0.0,0.0,0.0,0.0,0.0,0.0,0.0,0.0,0.0,0.0,0.0,0.0,0.0,0.0,0.0,0.0,0.0,0.0,0.0,0.0,0.0,0.0,0.0,0.0,0.0,0.0,-3.2401,-3.1484,-3.1064,-3.0643,-3.0223,0.0,0.0,0.0,0.0,0.0,0.0,0.0,0.0,0.0,0.0,0.0,0.0,0.0,0.0,0.0,0.0,0.0,0.0,0.0,0.0,0.0,0.0,0.0,0.0,0.0,0.0,0.0,0.0,0.0,0.0,0.0,0.0,0.0,0.0,0.0,0.0,0.0,0.0,0.0,0.0,0.0,0.0,0.0,0.0,0.0,0.0,0.0,0.0,0.0,0.0,0.0,0.0,0.0,0.0,0.0,0.0,0.0,0.0,0.0,0.0,0.0,0.0,0.0,0.0,0.0,0.0,0.0,0.0,0.0,0.0,0.0,0.0,0.0,0.0,0.0,0.0,0.0,0.0,0.0,0.0,0.0,0.0,0.0,0.0,0.0,0.0,0.0,0.0,0.0,0.0,0.0,0.0,0.0,0.0,0.0,0.0,0.0,0.0,0.0,0.0,0.0,0.0,0.0,0.0,0.0,0.0,0.0,0.0,0.0,0.0,0.0,0.0,-3.179,-3.1312,-3.051,0.0,0.0,0.0,0.0,0.0,0.0,0.0,0.0,0.0,0.0,0.0,0.0,0.0,0.0,0.0,0.0,0.0,0.0,0.0,0.0,0.0,0.0,0.0,0.0,0.0,0.0,0.0,0.0,0.0,0.0,0.0,0.0,0.0,0.0,0.0,0.0,0.0,0.0,0.0,0.0,0.0,0.0,0.0,0.0,0.0,0.0,0.0,0.0,0.0,0.0,0.0,0.0,0.0,0.0,0.0,0.0,0.0,0.0,0.0,0.0,0.0,0.0,0.0,0.0,0.0,0.0,0.0,0.0,0.0,0.0,0.0,0.0,0.0,0.0,0.0,0.0,0.0,0.0,0.0,0.0,0.0,0.0,0.0,0.0,0.0,0.0,0.0,0.0,0.0,0.0,0.0,0.0,0.0,0.0,0.0,0.0,0.0,0.0,0.0,0.0,0.0,0.0,0.0,0.0,0.0,0.0,0.0,0.0,0.0,0.0,-3.391,-3.3757,-3.2993,0.0,-3.1331,0.0,0.0,0.0,0.0,0.0,0.0,0.0,0.0,0.0,0.0,0.0,0.0,0.0,0.0,0.0,0.0,0.0,0.0,0.0,0.0,0.0,0.0,0.0,0.0,0.0,0.0,0.0,0.0,0.0,0.0,0.0,0.0,0.0,0.0,0.0,0.0,0.0,0.0,0.0,0.0,0.0,0.0,0.0,0.0,0.0,0.0,0.0,0.0,0.0,0.0,0.0,0.0,0.0,0.0,0.0,0.0,0.0,0.0,0.0,0.0,0.0,0.0,0.0,0.0,0.0,0.0,0.0,0.0,0.0,0.0,0.0,0.0,0.0,0.0,0.0,0.0,0.0,0.0,0.0,0.0,0.0,0.0,0.0,0.0,0.0,0.0,0.0,0.0,0.0,0.0,0.0,0.0,0.0,0.0,0.0,0.0,0.0,0.0,0.0,0.0,0.0,0.0,0.0,0.0,0.0,0.0,0.0,0.0,0.0,0.0,-3.4483,-3.4006,-3.2707,-3.1828,0.0,0.0,0.0,0.0,0.0,0.0,0.0,0.0,0.0,0.0,0.0,0.0,0.0,0.0,0.0,0.0,0.0,0.0,0.0,0.0,0.0,0.0,0.0,0.0,0.0,0.0,0.0,0.0,0.0,0.0,0.0,0.0,0.0,0.0,0.0,0.0,0.0,0.0,0.0,0.0,0.0,0.0,0.0,0.0,0.0,0.0,0.0,0.0,0.0,0.0,0.0,0.0,0.0,0.0,0.0,0.0,0.0,0.0,0.0,0.0,0.0,0.0,0.0,0.0,0.0,0.0,0.0,0.0,0.0,0.0,0.0,0.0,0.0,0.0,0.0,0.0,0.0,0.0,0.0,0.0,0.0,0.0,0.0,0.0,0.0,0.0,0.0,0.0,0.0,0.0,0.0,0.0,0.0,0.0,0.0,0.0,0.0,0.0,0.0,0.0,0.0,0.0,0.0,0.0,0.0,0.0,0.0,0.0,0.0,0.0,-3.519,-3.4923,-3.4312,-3.2936,-3.2191,-3.2172,0.0,0.0,0.0,0.0,0.0,0.0,0.0,0.0,0.0,0.0,0.0,0.0,0.0,0.0,0.0,0.0,0.0,0.0,0.0,0.0,0.0,0.0,0.0,0.0,0.0,0.0,0.0,0.0,0.0,0.0,0.0,0.0,0.0,0.0,0.0,0.0,0.0,0.0,0.0,0.0,0.0,0.0,0.0,0.0,0.0,0.0,0.0,0.0,0.0,0.0,0.0,0.0,0.0,0.0,0.0,0.0,0.0,0.0,0.0,0.0,0.0,0.0,0.0,0.0,0.0,0.0,0.0,0.0,0.0,0.0,0.0,0.0,0.0,0.0,0.0,0.0,0.0,0.0,0.0,0.0,0.0,0.0,0.0,0.0,0.0,0.0,0.0,0.0,0.0,0.0,0.0,0.0,0.0,0.0,0.0,0.0,0.0,0.0,0.0,0.0,0.0,0.0,0.0,0.0,0.0,0.0,0.0,0.0,-3.519,-3.519,-3.519,-3.5114,-3.4331,-3.3891,0.0,0.0,0.0,0.0,0.0,0.0,0.0,0.0,0.0,0.0,0.0,0.0,0.0,0.0,0.0,0.0,0.0,0.0,0.0,0.0,0.0,0.0,0.0,0.0,0.0,0.0,0.0,0.0,0.0,0.0,0.0,0.0,0.0,0.0,0.0,0.0,0.0,0.0,0.0,0.0,0.0,0.0,0.0,0.0,0.0,0.0,0.0,0.0,0.0,0.0,0.0,0.0,0.0,0.0,0.0,0.0,0.0,0.0,0.0,0.0,0.0,0.0,0.0,0.0,0.0,0.0,0.0,0.0,0.0,0.0,0.0,0.0,0.0,0.0,0.0,0.0,0.0,0.0,0.0,0.0,0.0,0.0,0.0,0.0,0.0,0.0,0.0,0.0,0.0,0.0,0.0,0.0,0.0,0.0,0.0,0.0,0.0,0.0,0.0,0.0,0.0,0.0,0.0,0.0,0.0,0.0,0.0,0.0,0.0,-3.519,-3.519,-3.519,-3.5171,-3.4426,-3.3987,0.0,0.0,0.0,0.0,0.0,0.0,0.0,0.0,0.0,0.0,0.0,0.0,0.0,0.0,0.0,0.0,0.0,0.0,0.0,0.0,0.0,0.0,0.0,0.0,0.0,0.0,0.0,0.0,0.0,0.0,0.0,0.0,0.0,0.0,0.0,0.0,0.0,0.0,0.0,0.0,0.0,0.0,0.0,0.0,0.0,0.0,0.0,0.0,0.0,0.0,0.0,0.0,0.0,0.0,0.0,0.0,0.0,0.0,0.0,0.0,0.0,0.0,0.0,0.0,0.0,0.0,0.0,0.0,0.0,0.0,0.0,0.0,0.0,0.0,0.0,0.0,0.0,0.0,0.0,0.0,0.0,0.0,0.0,0.0,0.0,0.0,0.0,0.0,0.0,0.0,0.0,0.0,0.0,0.0,0.0,0.0,0.0,0.0,0.0,0.0,0.0,0.0,0.0,0.0,0.0,0.0,0.0,0.0,0.0,-3.519,0.0,-3.519,-3.519,-3.4626,-3.432,0.0,0.0,0.0,0.0,0.0,0.0,0.0,0.0,0.0,0.0,0.0,0.0,0.0,0.0,0.0,0.0,0.0,0.0,0.0,0.0,0.0,0.0,0.0,0.0,0.0,0.0,0.0,0.0,0.0,0.0,0.0,0.0,0.0,0.0,0.0,0.0,0.0,0.0,0.0,0.0,0.0,0.0,0.0,0.0,0.0,0.0,0.0,0.0,0.0,0.0,0.0,0.0,0.0,0.0,0.0,0.0,0.0,0.0,0.0,0.0,0.0,0.0,0.0,0.0,0.0,0.0,0.0,0.0,0.0,0.0,0.0,0.0,0.0,0.0,0.0,0.0,0.0,0.0,0.0,0.0,0.0,0.0,0.0,0.0,0.0,0.0,0.0,0.0,0.0,0.0,0.0,0.0,0.0,0.0,0.0,0.0,0.0,0.0,0.0,0.0,0.0,0.0,0.0,0.0,0.0,0.0,0.0,0.0,-3.519,-3.519,-3.519,-3.519,-3.5174,-3.5,-3.4982,0.0,0.0,0.0,0.0,0.0,0.0,0.0,0.0,0.0,0.0,0.0,0.0,0.0,0.0,0.0,0.0,0.0,0.0,0.0,0.0,0.0,0.0,0.0,0.0,0.0,0.0,0.0,0.0,0.0,0.0,0.0,0.0,0.0,0.0,0.0,0.0,0.0,0.0,0.0,0.0,0.0,0.0,0.0,0.0,0.0,0.0,0.0,0.0,0.0,0.0,0.0,0.0,0.0,0.0,0.0,0.0,0.0,0.0,0.0,0.0,0.0,0.0,0.0,0.0,0.0,0.0,0.0,0.0,0.0,0.0,0.0,0.0,0.0,0.0,0.0,0.0,0.0,0.0,0.0,0.0,0.0,0.0,0.0,0.0,0.0,0.0,0.0,0.0,0.0,0.0,0.0,0.0,0.0,0.0,0.0,0.0,0.0,0.0,0.0,0.0,0.0,0.0,0.0,0.0,0.0,0.0,0.0,0.0,0.0,-3.519,-3.519,-3.519,-3.5174,-3.5,-3.4945,0.0,0.0,0.0,0.0,0.0,0.0,0.0,0.0,0.0,0.0,0.0,0.0,0.0,0.0,0.0,0.0,0.0,0.0,0.0,0.0,0.0,0.0,0.0,0.0,0.0,0.0,0.0,0.0,0.0,0.0,0.0,0.0,0.0,0.0,0.0,0.0,0.0,0.0,0.0,0.0,0.0,0.0,0.0,0.0,0.0,0.0,0.0,0.0,0.0,0.0,0.0,0.0,0.0,0.0,0.0,0.0,0.0,0.0,0.0,0.0,0.0,0.0,0.0,0.0,0.0,0.0,0.0,0.0,0.0,0.0,0.0,0.0,0.0,0.0,0.0,0.0,0.0,0.0,0.0,0.0,0.0,0.0,0.0,0.0,0.0,0.0,0.0,0.0,0.0,0.0,0.0,0.0,0.0,0.0,0.0,0.0,0.0,0.0,0.0,0.0,0.0,0.0,0.0,0.0,0.0,0.0,0.0,0.0,0.0,-3.5108,-3.5157,-3.519,-3.519,-3.5,-3.4926,-3.4982,0.0,0.0,0.0,0.0,0.0,0.0,0.0,0.0,0.0,0.0,0.0,0.0,0.0,0.0,0.0,0.0,0.0,0.0,0.0,0.0,0.0,0.0,0.0,0.0,0.0,0.0,0.0,0.0,0.0,0.0,0.0,0.0,0.0,0.0,0.0,0.0,0.0,0.0,0.0,0.0,0.0,0.0,0.0,0.0,0.0,0.0,0.0,0.0,0.0,0.0,0.0,0.0,0.0,0.0,0.0,0.0,0.0,0.0,0.0,0.0,0.0,0.0,0.0,0.0,0.0,0.0,0.0,0.0,0.0,0.0,0.0,0.0,0.0,0.0,0.0,0.0,0.0,0.0,0.0,0.0,0.0,0.0,0.0,0.0,0.0,0.0,0.0,0.0,0.0,0.0,0.0,0.0,0.0,0.0,0.0,0.0,0.0,0.0,0.0,0.0,0.0,0.0,0.0,0.0,0.0,0.0,0.0,0.0,-3.4927,-3.5108,-3.5193,-3.5141,-3.4945,-3.4945,0.0,0.0,0.0,0.0,0.0,0.0,0.0,0.0,0.0,0.0,0.0,0.0,0.0,0.0,0.0,0.0,0.0,0.0,0.0,0.0,0.0,0.0,0.0,0.0,0.0,0.0,0.0,0.0,0.0,0.0,0.0,0.0,0.0,0.0,0.0,0.0,0.0,0.0,0.0,0.0,0.0,0.0,0.0,0.0,0.0,0.0,0.0,0.0,0.0,0.0,0.0,0.0,0.0,0.0,0.0,0.0,0.0,0.0,0.0,0.0,0.0,0.0,0.0,0.0,0.0,0.0,0.0,0.0,0.0,0.0,0.0,0.0,0.0,0.0,0.0,0.0,0.0,0.0,0.0,0.0,0.0,0.0,0.0,0.0,0.0,0.0,0.0,0.0,0.0,0.0,0.0,0.0,0.0,0.0,0.0,0.0,0.0,0.0,0.0,0.0,0.0,0.0,0.0,0.0,0.0,0.0,0.0,0.0,0.0,-3.5172,-3.5167,-3.5016,-3.4695,-3.4483,-3.4413,0.0,0.0,0.0,0.0,0.0,0.0,0.0,0.0,0.0,0.0,0.0,0.0,0.0,0.0,0.0,0.0,0.0,0.0,0.0,0.0,0.0,0.0,0.0,0.0,0.0,0.0,0.0,0.0,0.0,0.0,0.0,0.0,0.0,0.0,0.0,0.0,0.0,0.0,0.0,0.0,0.0,0.0,0.0,0.0,0.0,0.0,0.0,0.0,0.0,0.0,0.0,0.0,0.0,0.0,0.0,0.0,0.0,0.0,0.0,0.0,0.0,0.0,0.0,0.0,0.0,0.0,0.0,0.0,0.0,0.0,0.0,0.0,0.0,0.0,0.0,0.0,0.0,0.0,0.0,0.0,0.0,0.0,0.0,0.0,0.0,0.0,0.0,0.0,0.0,0.0,0.0,0.0,0.0,0.0,0.0,0.0,0.0,0.0,0.0,0.0,0.0,0.0,0.0,0.0,0.0,0.0,0.0,0.0,-3.6572,-3.5964,-3.5407,-3.4989,-3.471,-3.4558,-3.4502,0.0,0.0,0.0,0.0,0.0,0.0,0.0,0.0,0.0,0.0,0.0,0.0,0.0,0.0,0.0,0.0,0.0,0.0,0.0,0.0,0.0,0.0,0.0,0.0,0.0,0.0,0.0,0.0,0.0,0.0,0.0,0.0,0.0,0.0,0.0,0.0,0.0,0.0,0.0,0.0,0.0,0.0,0.0,0.0,0.0,0.0,0.0,0.0,0.0,0.0,0.0,0.0,0.0,0.0,0.0,0.0,0.0,0.0,0.0,0.0,0.0,0.0,0.0,0.0,0.0,0.0,0.0,0.0,0.0,0.0,0.0,0.0,0.0,0.0,0.0,0.0,0.0,0.0,0.0,0.0,0.0,0.0,0.0,0.0,0.0,0.0,0.0,0.0,0.0,0.0,0.0,0.0,0.0,0.0,0.0,0.0,0.0,0.0,0.0,0.0,0.0,0.0,0.0,0.0,0.0,0.0,0.0,0.0,-3.7636,-3.6983,-3.5825,-3.5211,-3.5174,-3.4907,-3.4792,0.0,0.0,0.0,0.0,0.0,0.0,0.0,0.0,0.0,0.0,0.0,0.0,0.0,0.0,0.0,0.0,0.0,0.0,0.0,0.0,0.0,0.0,0.0,0.0,0.0,0.0,0.0,0.0,0.0,0.0,0.0,0.0,0.0,0.0,0.0,0.0,0.0,0.0,0.0,0.0,0.0,0.0,0.0,0.0,0.0,0.0,0.0,0.0,0.0,0.0,0.0,0.0,0.0,0.0,0.0,0.0,0.0,0.0,0.0,0.0,0.0,0.0,0.0,0.0,0.0,0.0,0.0,0.0,0.0,0.0,0.0,0.0,0.0,0.0,0.0,0.0,0.0,0.0,0.0,0.0,0.0,0.0,0.0,0.0,0.0,0.0,0.0,0.0,0.0,0.0,0.0,0.0,0.0,0.0,0.0,0.0,0.0,0.0,0.0,0.0,0.0,0.0,0.0,0.0,0.0,0.0,0.0,0.0,-3.7739,-3.6951,-3.663,-3.6491,-3.6491,-3.4897,-3.403,0.0,0.0,0.0,0.0,0.0,0.0,0.0,0.0,0.0,0.0,0.0,0.0,0.0,0.0,0.0,0.0,0.0,0.0,0.0,0.0,0.0,0.0,0.0,0.0,0.0,0.0,0.0,0.0,0.0,0.0,0.0,0.0,0.0,0.0,0.0,0.0,0.0,0.0,0.0,0.0,0.0,0.0,0.0,0.0,0.0,0.0,0.0,0.0,-3.5141,0.0,0.0,0.0,0.0,0.0,0.0,0.0,0.0,0.0,0.0,0.0,0.0,0.0,0.0,0.0,0.0,0.0,0.0,0.0,0.0,0.0,0.0,0.0,0.0,0.0,0.0,0.0,0.0,0.0,0.0,0.0,0.0,0.0,0.0,0.0,0.0,0.0,0.0,0.0,0.0,0.0,0.0,0.0,0.0,0.0,0.0,0.0,0.0,0.0,0.0,0.0,0.0,0.0,0.0,0.0,0.0,0.0,0.0,0.0,-3.8266,-3.7931,-3.7442,-3.7206,-3.7124,-3.5754,-3.4816,0.0,0.0,0.0,0.0,0.0,0.0,0.0,0.0,0.0,0.0,0.0,0.0,0.0,0.0,0.0,0.0,0.0,0.0,0.0,0.0,0.0,0.0,0.0,0.0,0.0,0.0,0.0,0.0,0.0,0.0,0.0,0.0,0.0,0.0,0.0,0.0,0.0,0.0,0.0,0.0,0.0,0.0,0.0,0.0,0.0,0.0,0.0,0.0,0.0,0.0,0.0,0.0,0.0,0.0,0.0,0.0,0.0,0.0,0.0,0.0,0.0,0.0,0.0,0.0,0.0,0.0,0.0,0.0,0.0,0.0,0.0,0.0,0.0,0.0,0.0,0.0,0.0,0.0,0.0,0.0,0.0,0.0,0.0,0.0,0.0,0.0,0.0,0.0,0.0,0.0,0.0,0.0,0.0,0.0,0.0,0.0,0.0,0.0,0.0,0.0,0.0,0.0,0.0,0.0,0.0,0.0,0.0,-3.8884,-3.886,-3.8995,-3.8168,-3.7679,-3.7661,-3.689,-3.6233,-3.5736,0.0,0.0,0.0,0.0,0.0,0.0,0.0,0.0,0.0,0.0,0.0,0.0,0.0,0.0,0.0,0.0,0.0,0.0,0.0,0.0,0.0,0.0,0.0,0.0,0.0,0.0,0.0,0.0,0.0,0.0,0.0,0.0,0.0,0.0,0.0,0.0,0.0,0.0,-3.4529,-3.4653,0.0,0.0,0.0,0.0,0.0,0.0,0.0,0.0,-3.5135,0.0,0.0,0.0,0.0,0.0,0.0,0.0,0.0,0.0,0.0,0.0,0.0,0.0,0.0,0.0,0.0,0.0,0.0,0.0,0.0,0.0,0.0,0.0,0.0,0.0,0.0,0.0,0.0,0.0,0.0,0.0,0.0,0.0,0.0,0.0,0.0,0.0,0.0,0.0,0.0,0.0,0.0,0.0,0.0,0.0,0.0,0.0,0.0,0.0,0.0,0.0,0.0,0.0,0.0,0.0,0.0,-3.9088,-3.9045,-3.8939,-3.8744,-3.8597,-3.8505,-3.8487,-3.7716,-3.725,-3.7106,0.0,0.0,0.0,0.0,0.0,0.0,0.0,0.0,0.0,0.0,0.0,0.0,0.0,0.0,0.0,0.0,0.0,0.0,0.0,0.0,0.0,0.0,0.0,0.0,0.0,0.0,0.0,0.0,0.0,0.0,0.0,0.0,0.0,0.0,0.0,0.0,0.0,0.0,0.0,-3.4394,-3.4458,0.0,0.0,0.0,0.0,0.0,0.0,0.0,0.0,-3.5398,0.0,0.0,0.0,0.0,0.0,0.0,0.0,0.0,0.0,0.0,0.0,0.0,0.0,0.0,0.0,0.0,0.0,0.0,0.0,0.0,0.0,0.0,0.0,0.0,0.0,0.0,0.0,0.0,0.0,0.0,0.0,0.0,0.0,0.0,0.0,0.0,0.0,0.0,0.0,0.0,0.0,0.0,0.0,0.0,0.0,0.0,0.0,0.0,0.0,0.0,0.0,0.0,0.0,0.0,0.0,-3.8894,-3.8873,-3.8822,-3.8707,-3.8707,-3.8707,-3.8689,-3.8322,-3.812,0.0,0.0,0.0,0.0,0.0,0.0,0.0,0.0,0.0,0.0,0.0,0.0,0.0,0.0,0.0,0.0,0.0,0.0,0.0,0.0,0.0,0.0,0.0,0.0,0.0,0.0,0.0,0.0,0.0,0.0,0.0,0.0,0.0,0.0,0.0,0.0,0.0,0.0,0.0,0.0,-3.4269,-3.4274,-3.452,0.0,0.0,0.0,0.0,0.0,0.0,-3.6168,-3.6205,0.0,0.0,0.0,0.0,0.0,0.0,0.0,0.0,0.0,0.0,0.0,0.0,0.0,0.0,0.0,0.0,0.0,0.0,0.0,0.0,0.0,0.0,0.0,0.0,0.0,0.0,0.0,0.0,0.0,0.0,0.0,0.0,0.0,0.0,0.0,0.0,0.0,0.0,0.0,0.0,0.0,0.0,0.0,0.0,0.0,0.0,0.0,0.0,0.0,0.0,0.0,0.0,0.0,0.0,0.0,-3.8707,-3.8707,-3.8707,-3.8707,-3.8707,-3.8707,-3.8707,-3.8707,-3.8707,0.0,0.0,0.0,0.0,0.0,0.0,0.0,0.0,0.0,0.0,0.0,0.0,0.0,0.0,0.0,0.0,0.0,0.0,0.0,0.0,0.0,0.0,0.0,0.0,0.0,0.0,0.0,0.0,0.0,0.0,0.0,0.0,0.0,0.0,0.0,0.0,0.0,0.0,0.0,0.0,0.0,-3.4408,-3.4439,-3.4717,0.0,0.0,0.0,0.0,-3.6801,-3.6963,0.0,0.0,0.0,0.0,0.0,0.0,0.0,0.0,0.0,0.0,0.0,0.0,0.0,0.0,0.0,0.0,0.0,0.0,0.0,0.0,0.0,0.0,0.0,0.0,0.0,0.0,0.0,0.0,0.0,0.0,0.0,0.0,0.0,0.0,0.0,0.0,0.0,0.0,0.0,0.0,0.0,0.0,0.0,0.0,0.0,0.0,0.0,0.0,0.0,0.0,0.0,0.0,0.0,0.0,0.0,0.0,-3.8707,-3.8707,-3.8707,-3.8707,-3.8707,-3.8707,-3.8707,-3.8707,-3.8707,0.0,0.0,0.0,0.0,0.0,0.0,0.0,0.0,0.0,0.0,0.0,0.0,0.0,0.0,0.0,0.0,0.0,0.0,0.0,0.0,0.0,0.0,0.0,0.0,0.0,0.0,0.0,0.0,0.0,0.0,0.0,0.0,0.0,0.0,0.0,0.0,0.0,0.0,0.0,0.0,0.0,-3.5008,-3.5231,-3.5887,-3.6428,0.0,0.0,-3.6863,-3.7847,-3.7681,0.0,0.0,0.0,0.0,0.0,0.0,0.0,0.0,0.0,0.0,0.0,0.0,0.0,0.0,0.0,0.0,0.0,0.0,0.0,0.0,0.0,0.0,0.0,0.0,0.0,0.0,0.0,0.0,0.0,0.0,0.0,0.0,0.0,0.0,0.0,0.0,0.0,0.0,0.0,0.0,0.0,0.0,0.0,0.0,0.0,0.0,0.0,0.0,0.0,0.0,0.0,0.0,0.0,0.0,0.0,-3.8707,-3.8707,-3.8707,-3.8707,-3.8707,-3.8707,-3.8707,-3.8707,-3.8707,-3.8707,0.0,0.0,0.0,0.0,0.0,0.0,0.0,0.0,0.0,0.0,0.0,0.0,0.0,0.0,0.0,0.0,0.0,0.0,0.0,0.0,0.0,0.0,0.0,0.0,0.0,0.0,0.0,0.0,0.0,0.0,0.0,0.0,0.0,0.0,0.0,0.0,0.0,0.0,0.0,0.0,0.0,0.0,-3.5145,-3.5883,0.0,0.0,0.0,-3.7433,-3.835,0.0,0.0,0.0,0.0,0.0,0.0,0.0,0.0,0.0,0.0,0.0,0.0,0.0,0.0,0.0,0.0,0.0,0.0,0.0,0.0,0.0,0.0,0.0,0.0,0.0,0.0,0.0,0.0,0.0,0.0,0.0,0.0,0.0,0.0,0.0,0.0,0.0,0.0,0.0,0.0,0.0,0.0,0.0,0.0,0.0,0.0,0.0,0.0,0.0,0.0,0.0,0.0,0.0,0.0,0.0,0.0,0.0,-3.8707,-3.8707,-3.8707,-3.8707,-3.8707,-3.8707,-3.8707,-3.8707,0.0,0.0,0.0,0.0,0.0,0.0,0.0,0.0,0.0,0.0,0.0,0.0,0.0,0.0,0.0,0.0,0.0,0.0,0.0,0.0,0.0,0.0,0.0,0.0,0.0,0.0,0.0,-3.3954,0.0,0.0,0.0,0.0,0.0,0.0,0.0,0.0,0.0,0.0,0.0,0.0,0.0,0.0,-3.5642,-3.5595,-3.6358,-3.711,0.0,0.0,-3.8021,-3.8718,-3.875,-3.8738,0.0,0.0,0.0,0.0,0.0,0.0,0.0,0.0,0.0,0.0,0.0,0.0,0.0,0.0,0.0,0.0,0.0,0.0,0.0,0.0,0.0,0.0,0.0,0.0,0.0,0.0,0.0,0.0,0.0,0.0,0.0,0.0,0.0,0.0,0.0,0.0,0.0,0.0,0.0,0.0,0.0,0.0,0.0,0.0,0.0,0.0,0.0,0.0,0.0,0.0,0.0,0.0,0.0,0.0,-3.8707,-3.8707,-3.8707,-3.8707,-3.8707,-3.8707,-3.8707,-3.8707,-3.8707,-3.8707,0.0,0.0,0.0,0.0,0.0,0.0,0.0,0.0,0.0,0.0,0.0,0.0,0.0,0.0,0.0,0.0,0.0,0.0,0.0,0.0,0.0,0.0,0.0,0.0,0.0,0.0,0.0,0.0,0.0,0.0,0.0,0.0,0.0,0.0,0.0,0.0,0.0,0.0,0.0,0.0,0.0,-3.7312,-3.7331,-3.8028,-3.856,0.0,-3.8615,-3.8725,-3.9017,-3.887,-3.878,-3.9017,0.0,0.0,0.0,0.0,0.0,0.0,0.0,0.0,0.0,0.0,0.0,0.0,0.0,0.0,0.0,0.0,0.0,0.0,0.0,0.0,0.0,0.0,0.0,0.0,0.0,0.0,0.0,0.0,0.0,0.0,0.0,0.0,0.0,0.0,0.0,0.0,0.0,0.0,0.0,0.0,0.0,0.0,0.0,0.0,0.0,0.0,0.0,0.0,0.0,0.0,0.0,0.0,0.0,-3.8707,-3.8707,-3.8707,-3.8707,-3.8707,-3.8707,-3.8707,-3.8707,-3.8707,-3.8707,0.0,0.0,0.0,0.0,0.0,0.0,0.0,0.0,0.0,0.0,0.0,0.0,0.0,0.0,0.0,0.0,0.0,0.0,0.0,0.0,0.0,0.0,0.0,0.0,0.0,0.0,0.0,0.0,-3.544,-3.5956,-3.5956,0.0,0.0,0.0,0.0,0.0,0.0,0.0,0.0,0.0,0.0,-3.7496,-3.7496,-3.8175,0.0,0.0,-3.8707,-3.8719,-3.884,-3.878,-3.8719,-3.8822,-3.875,0.0,0.0,0.0,0.0,0.0,0.0,0.0,0.0,0.0,0.0,0.0,0.0,0.0,0.0,0.0,0.0,0.0,0.0,0.0,0.0,0.0,0.0,0.0,0.0,0.0,0.0,0.0,0.0,0.0,0.0,0.0,0.0,0.0,0.0,0.0,0.0,0.0,0.0,0.0,0.0,0.0,0.0,0.0,0.0,0.0,0.0,0.0,0.0,0.0,0.0,0.0,0.0,-3.8707,-3.8707,-3.8707,-3.8707,-3.8707,-3.8707,-3.8707,-3.8707,-3.8707,-3.8707,0.0,0.0,0.0,0.0,0.0,0.0,0.0,0.0,0.0,0.0,0.0,0.0,0.0,0.0,0.0,0.0,0.0,0.0,0.0,0.0,0.0,0.0,0.0,0.0,0.0,0.0,0.0,0.0,-3.6138,-3.6652,-3.6652,0.0,0.0,0.0,0.0,0.0,0.0,0.0,0.0,0.0,0.0,-3.7863,-3.7863,-3.834,-3.8707,-3.8707,-3.8707,-3.8707,-3.8707,-3.8707,-3.8738,-3.881,0.0,0.0,0.0,0.0,0.0,0.0,0.0,0.0,0.0,0.0,0.0,0.0,0.0,0.0,0.0,0.0,0.0,0.0,0.0,0.0,0.0,0.0,0.0,0.0,0.0,0.0,0.0,-3.6285,0.0,0.0,-3.6431,0.0,0.0,0.0,0.0,0.0,0.0,0.0,0.0,0.0,0.0,0.0,0.0,0.0,0.0,0.0,0.0,0.0,0.0,0.0,0.0,0.0,0.0,-3.8707,-3.8707,-3.8707,-3.8707,-3.8707,-3.8707,-3.8707,-3.8707,-3.8707,-3.8707,-3.8707,0.0,0.0,0.0,0.0,0.0,0.0,0.0,0.0,0.0,0.0,0.0,0.0,0.0,0.0,0.0,0.0,0.0,0.0,0.0,0.0,0.0,0.0,0.0,0.0,0.0,0.0,-3.6303,-3.6982,-3.747,0.0,0.0,0.0,0.0,0.0,0.0,0.0,0.0,0.0,-3.8505,-3.867,-3.867,-3.8652,-3.8707,-3.8707,-3.8689,-3.8707,-3.8689,-3.8738,-3.8707,-3.8762,0.0,0.0,0.0,0.0,0.0,0.0,0.0,0.0,0.0,0.0,0.0,0.0,0.0,0.0,0.0,0.0,0.0,0.0,0.0,0.0,0.0,0.0,0.0,0.0,0.0,0.0,0.0,-3.79,-3.79,0.0,0.0,0.0,0.0,0.0,0.0,0.0,0.0,0.0,0.0,0.0,-3.8707,-3.8707,0.0,0.0,0.0,0.0,0.0,0.0,0.0,0.0,0.0,0.0,0.0,0.0,-3.8707,-3.8707,-3.8707,-3.8707,-3.8707,-3.8707,-3.8707,-3.8707,-3.8707,-3.8707,-3.8707,0.0,0.0,0.0,0.0,0.0,0.0,0.0,0.0,0.0,0.0,0.0,0.0,0.0,0.0,0.0,0.0,0.0,0.0,0.0,0.0,0.0,0.0,0.0,0.0,0.0,-3.7312,0.0,0.0,0.0,0.0,0.0,0.0,0.0,0.0,0.0,0.0,0.0,-3.8407,-3.8743,-3.8719,-3.8707,-3.8707,-3.8851,-3.8979,0.0,0.0,0.0,0.0,0.0,0.0,0.0,0.0,0.0,0.0,0.0,0.0,0.0,0.0,-3.9508,-3.9623,-3.9483,-3.9395,-3.95,0.0,0.0,0.0,0.0,0.0,0.0,0.0,0.0,0.0,0.0,0.0,0.0,0.0,0.0,-3.8738,-3.8707,-3.8707,0.0,0.0,0.0,0.0,0.0,0.0,0.0,0.0,-3.8707,-3.8707,-3.8707,-3.8707,-3.8707,-3.8707,-3.8707,-3.8707,0.0,0.0,0.0,0.0,0.0,0.0,0.0,0.0,-3.8707,-3.8707,-3.8707,-3.8854,-3.9098,-3.9129,-3.9129,-3.9129,-3.8854,-3.8707,-3.8707,-3.8707,-3.8707,0.0,0.0,0.0,0.0,0.0,0.0,0.0,0.0,0.0,0.0,0.0,0.0,0.0,0.0,0.0,0.0,0.0,0.0,0.0,0.0,0.0,0.0,0.0,-3.8162,0.0,0.0,0.0,0.0,0.0,0.0,0.0,0.0,0.0,-3.8822,-3.8862,-3.8921,-3.8979,-3.8998,-3.9027,-3.9027,0.0,0.0,0.0,0.0,0.0,0.0,0.0,-3.9101,-3.9101,-3.9101,-3.9175,-3.9472,-3.9952,-4.0296,-4.0218,0.0,0.0,-3.9602,-3.9652,-3.9799,-3.9877,-4.0113,-4.0328,-4.0265,-4.0251,-4.0413,0.0,0.0,0.0,0.0,-3.8689,0.0,0.0,0.0,-3.8762,-3.878,0.0,-3.8707,0.0,0.0,0.0,0.0,-3.8707,-3.8707,0.0,0.0,-3.8707,-3.8707,-3.8707,-3.8707,-3.8707,-3.8707,-3.8707,-3.8707,-3.8762,-3.8744,0.0,0.0,0.0,0.0,0.0,0.0,-3.8781,-3.8817,-3.8817,-3.9153,-3.9891,-3.9955,-3.9937,-3.9918,-3.9203,-3.8817,-3.8799,-3.8817,-3.8781,-3.8762,-3.8744,0.0,0.0,0.0,0.0,0.0,0.0,0.0,0.0,0.0,0.0,0.0,0.0,0.0,0.0,0.0,0.0,0.0,0.0,0.0,0.0,-3.878,0.0,0.0,0.0,0.0,0.0,0.0,0.0,0.0,0.0,0.0,-3.8931,-3.911,-3.9324,-3.9324,0.0,0.0,0.0,0.0,-3.9505,-3.95,-3.9513,-3.9427,-3.9221,-3.9166,-3.9184,-3.9222,0.0,0.0,-4.0254,-4.1239,-4.1807,-4.1585,-4.1907,-4.1737,-3.9951,-4.0124,-4.0486,-4.0753,-4.1346,-4.1989,-4.2257,-4.2106,-4.2191,-3.9312,0.0,0.0,0.0,0.0,-3.8822,-3.8792,-3.8762,-3.875,-3.8738,-3.8707,-3.8707,0.0,0.0,0.0,0.0,0.0,0.0,-3.8707,-3.8707,-3.8707,-3.8707,-3.8707,-3.8707,-3.8707,-3.8707,-3.8707,-3.9001,-3.9533,-3.9551,-3.9551,-3.9551,0.0,0.0,0.0,0.0,-4.0396,-4.0441,-4.0396,-4.0529,-4.0753,-4.0749,-4.0763,-4.0763,-4.0543,-4.0432,-4.0414,-4.0432,-4.0157,-3.957,-3.9551,0.0,0.0,0.0,0.0,0.0,0.0,0.0,0.0,0.0,0.0,0.0,0.0,0.0,0.0,0.0,0.0,0.0,0.0,0.0,-3.8707,-3.8979,-3.9119,0.0,0.0,0.0,0.0,0.0,0.0,0.0,0.0,0.0,-3.9451,-3.9476,-3.9524,0.0,0.0,-3.9599,-3.9599,-3.9754,-3.9797,-3.9675,-3.9724,0.0,-4.0246,-4.0321,-4.0509,-4.1012,-4.128,-4.159,-4.2018,-4.2338,-4.2514,-4.2449,-4.2597,-4.2467,-4.186,-4.1873,-4.2101,-4.219,-4.2291,-4.2295,-4.2191,-4.2051,-4.2104,-4.0258,-3.9815,-3.9128,-3.9006,-3.9301,-3.9271,-3.9473,-3.9706,-3.9706,-3.9669,-3.9645,-3.9656,-3.9662,-3.9662,-3.9662,0.0,0.0,0.0,-3.9662,-3.9662,-3.9643,-3.9662,-3.9662,-3.9662,-3.9662,-3.9662,-3.9662,-3.9918,-4.0359,-4.0359,-4.0561,-4.0818,0.0,-4.0616,-4.1079,-4.1097,-4.1111,-4.1089,-4.1093,-4.1323,-4.1696,-4.1853,-4.1866,-4.1741,-4.157,-4.1464,-4.1464,-4.1323,-4.104,-4.056,-4.0423,-4.0233,0.0,0.0,0.0,0.0,0.0,0.0,0.0,0.0,0.0,0.0,0.0,-3.8989,-3.8738,0.0,0.0,0.0,-3.8815,-3.875,-3.875,-3.8989,0.0,0.0,0.0,0.0,0.0,0.0,0.0,-3.9153,-3.9658,-4.0023,-4.0004,-4.0289,-4.0324,-3.9939,-3.9924,-4.0078,-4.044,0.0,-4.075,-4.0954,-4.1033,-4.1182,-4.1411,-4.1468,-4.1576,-4.192,-4.2416,-4.2787,-4.2962,-4.3276,-4.3507,-4.3526,-4.363,-4.3692,-4.3509,-4.367,-4.3668,-4.3297,-4.3383,-4.344,-4.3397,-4.3284,-4.3359,-4.1557,-4.1372,-3.9779,-3.946,-4.0005,-4.0068,-4.0459,-4.1093,-4.1172,-4.1162,-4.1095,-4.1103,-4.1097,-4.1111,-4.1111,0.0,-4.1111,-4.1111,-4.1093,-4.1111,-4.1111,-4.1111,-4.1111,-4.1111,-4.1111,-4.1093,-4.1111,-4.1148,-4.1203,-4.1203,-4.1607,-4.2359,-4.1662,-4.1313,-4.1295,-4.1313,-4.1295,-4.1313,-4.1313,-4.177,-4.2791,-4.3119,-4.3128,-4.2821,-4.2416,-4.2194,-4.2194,-4.1885,-4.1704,-4.1649,-4.1372,-4.1199,-4.1158,0.0,0.0,0.0,0.0,0.0,0.0,0.0,0.0,0.0,0.0,0.0,0.0,0.0,0.0,0.0,-3.8803,0.0,-3.8822,-3.8968,0.0,0.0,0.0,-3.9545,-3.9674,-4.0055,-4.0311,-4.0425,0.0,0.0,-4.07,-4.1412,-4.1539,-4.0557,-4.0584,-4.0989,-4.1797,-4.1824,-4.2112,-4.2713,-4.2868,-4.2776,-4.2544,-4.2661,-4.2718,-4.2598,-4.298,-4.3496,-4.3577,-4.4107,-4.4607,-4.4619,-4.4877,-4.5014,-4.5033,-4.5167,-4.5129,-4.4151,-4.4488,-4.5042,-4.5147,-4.5173,-4.509,-4.3624,-4.3026,-4.254,-4.182,-4.0972,-4.0909,-4.1006,-4.1172,-4.1126,-4.1107,-4.1121,-4.1111,-4.1097,-4.1111,-4.1158,-4.1172,-4.1172,-4.1254,-4.1322,-4.1322,-4.1354,-4.1304,-4.1354,-4.1322,-4.1272,-4.119,-4.1172,-4.147,-4.1992,-4.2011,-4.2433,-4.3149,-4.302,-4.291,-4.2928,-4.2928,-4.2928,-4.291,-4.2928,-4.317,-4.3689,-4.398,-4.4074,-4.3999,-4.3886,-4.3847,-4.382,-4.3746,-4.3418,-4.2837,-4.2497,-4.2129,-4.1745,-4.1385,0.0,0.0,0.0,0.0,0.0,0.0,0.0,0.0,0.0,-3.896,-3.8738,0.0,-3.9064,0.0,-3.9279,-3.9324,-3.8921,-3.9165,0.0,0.0,-3.9513,-3.9966,-4.1131,-4.117,-4.1437,-4.2291,-4.2456,-4.2489,-4.2489,-4.2662,-4.2684,-4.2458,-4.2437,-4.2566,-4.2758,-4.2761,-4.2768,-4.2813,-4.2795,-4.2827,-4.3236,-4.3927,-4.4426,-4.4651,-4.4784,-4.4897,-4.4897,-4.511,-4.5283,-4.5283,-4.5381,-4.5457,-4.5438,-4.5513,-4.5475,-4.5208,-4.5126,-4.5101,-4.5227,-4.5104,-4.4962,-4.5167,-4.472,-4.4685,-4.417,-4.3339,-4.3008,-4.3063,-4.3376,-4.3327,-4.3309,-4.3339,-4.3275,-4.324,-4.324,-4.3256,-4.3272,-4.3272,-4.3376,-4.3376,-4.3376,-4.341,-4.3428,-4.348,-4.3428,-4.3395,-4.3376,-4.3343,-4.3311,-4.3369,-4.3369,-4.3406,-4.3479,-4.3479,-4.3479,-4.3479,-4.3479,-4.3631,-4.3886,-4.4023,-4.4114,-4.421,-4.4591,-4.472,-4.4572,-4.4739,-4.4789,-4.4814,-4.4669,-4.4312,-4.3772,-4.3442,-4.3148,-4.2847,-4.2551,-4.2482,0.0,0.0,0.0,0.0,0.0,0.0,0.0,0.0,0.0,0.0,0.0,-4.0435,-4.0435,-4.0666,-4.0696,-4.0461,-4.0622,-4.0816,-4.0908,-4.0931,-4.1254,-4.2104,-4.2179,-4.2408,-4.303,-4.3104,-4.3085,-4.3104,-4.3431,-4.3624,-4.3643,-4.397,-4.4066,-4.3701,-4.3643,-4.3705,-4.3942,-4.3963,-4.402,-4.4393,-4.4855,-4.5302,-4.5495,-4.5513,-4.5495,-4.5495,-4.5513,-4.555,-4.5531,-4.5568,-4.5586,-4.5586,-4.5586,-4.5586,-4.5568,-4.5438,-4.5362,-4.5377,-4.5266,-4.514,-4.647,-4.6396,-4.6396,-4.6323,-4.6159,-4.5605,-4.5641,-4.6083,-4.6083,-4.6063,-4.6059,-4.5956,-4.5902,-4.5902,-4.5902,-4.5902,-4.5938,-4.5938,-4.5938,-4.5956,-4.5938,-4.5993,-4.6101,-4.5993,-4.5993,-4.6083,-4.5974,-4.5535,-4.4874,-4.4874,-4.4488,-4.3828,-4.3809,-4.3805,-4.3763,-4.3747,-4.3934,-4.4402,-4.4676,-4.4676,-4.4465,-4.5019,-4.5173,-4.4891,-4.5132,-4.5277,-4.5277,-4.5023,-4.4751,-4.4519,-4.4269,-4.4091,-4.4109,-4.4079,-4.4048,0.0,-4.4048,0.0,0.0,0.0,0.0,0.0,0.0,0.0,0.0,-4.1987,-4.202,-4.2115,-4.2146,-4.2219,-4.229,-4.2356,-4.2401,-4.2446,-4.2598,-4.2756,-4.2872,-4.3115,-4.3297,-4.3415,-4.3431,-4.3412,-4.3511,-4.4047,-4.447,-4.4528,-4.5009,-4.5182,-4.4643,-4.447,-4.4701,-4.549,-4.5586,-4.5376,-4.5454,-4.5494,-4.5513,-4.5586,-4.5586,-4.5586,-4.5586,-4.5586,-4.5586,-4.5586,-4.5586,-4.5586,-4.5586,-4.5586,-4.5586,-4.5586,-4.572,-4.5778,-4.5605,-4.5566,-4.5586,-4.7979,-4.7903,-4.7903,-4.7847,-4.7847,-4.785,-4.7114,-4.5956,-4.5938,-4.5938,-4.592,-4.5902,-4.5902,-4.5902,-4.5993,-4.6047,-4.6065,-4.6118,-4.6153,-4.6153,-4.6153,-4.6153,-4.6188,-4.6135,-4.6118,-4.6083,-4.6101,-4.5901,-4.5681,-4.5681,-4.5608,-4.5443,-4.5443,-4.5355,-4.5219,0.0,0.0,0.0,-4.465,-4.4776,-4.4726,-4.5109,-4.5256,-4.5194,-4.5275,0.0,-4.5277,-4.5235,-4.5192,-4.5109,-4.4838,0.0,0.0,0.0,0.0,0.0,0.0,0.0,0.0,0.0,0.0,0.0,-4.4228,-4.3611,-4.2145,-4.1987,-4.202,-4.2165,-4.214,-4.2146,-4.2304,-4.229,-4.2382,-4.2619,-4.2679,-4.3025,-4.3862,-4.4049,-4.4335,-4.5047,-4.5105,-4.5105,-4.5066,-4.5278,-4.5316,-4.5316,-4.549,-4.5528,-4.5393,-4.5316,-4.5413,-4.5566,-4.5663,-4.5605,-4.5586,-4.5663,-4.5741,-4.5586,-4.5586,-4.5643,-4.5682,-4.5663,-4.5624,-4.5663,-4.5586,-4.5643,-4.5624,-4.5586,-4.5701,-4.5605,-4.6182,-4.6451,-4.5759,-4.5605,-4.5586,-4.8678,-4.8989,-4.9007,-4.9189,0.0,-4.9593,-4.9134,-4.8269,-4.7481,-4.7132,-4.7095,-4.7094,-4.7075,-4.7076,-4.715,-4.7187,-4.7187,-4.7206,-4.7224,-4.7224,-4.7224,-4.7279,-4.7316,-4.7261,-4.7261,-4.7279,-4.7224,-4.6948,-4.6526,-4.6489,-4.6287,-4.5902,-4.5902,-4.5928,-4.5973,-4.5761,-4.5312,-4.4617,-4.491,-4.5045,-4.5045,-4.5194,-4.5277,-4.5277,-4.5277,0.0,0.0,0.0,0.0,0.0,0.0,0.0,0.0,-4.4527,0.0,-4.4572,-4.4465,-4.4402,-4.4411,-4.4519,-4.4669,-4.4776,-4.4981,-4.4703,-4.371,-4.3653,-4.3703,-4.3751,-4.3767,-4.3789,-4.3899,-4.3899,-4.394,-4.4116,-4.4134,-4.4363,-4.4818,-4.4932,-4.5124,-4.549,-4.5586,-4.5586,-4.5586,-4.5586,-4.5586,-4.5624,-4.599,-4.624,-4.6201,-4.5855,-4.572,-4.6163,-4.624,-4.6394,-4.674,-4.6836,-4.6817,-4.6836,-4.6817,-4.6836,-4.6836,-4.6836,-4.6836,-4.6817,-4.6836,-4.6836,-4.6836,-4.6836,-4.6835,-4.6872,-4.7181,-4.7356,-4.6914,-4.6837,-4.6817,-4.932,-4.9873,-4.9892,-5.0257,-5.082,-5.082,-5.082,-5.071,-4.9448,0.0,0.0,-4.8728,-4.8746,-4.8728,-4.8746,-4.8746,-4.8746,-4.8765,-4.8746,-4.8746,-4.86,-4.8583,-4.8678,-4.8436,-4.8363,-4.8457,-4.8363,-4.8014,-4.7408,-4.739,-4.7114,-4.6559,-4.6504,-4.6585,-4.6775,-4.6539,-4.603,-4.5366,-4.5325,-4.5277,-4.5277,-4.5277,-4.5277,-4.5277,-4.5277,-4.5277,-4.5277,-4.5277,-4.5173,-4.4891,-4.4891,-4.4891,-4.4868,-4.4695,-4.4669,-4.4843,-4.4695,-4.4565,-4.4565,-4.4751,-4.4891,-4.4891,-4.5216,-4.5359,-4.5317,-4.5359,-4.5419,-4.5419,-4.54,-4.5438,-4.5568,-4.555,-4.5513,-4.5586,-4.5586,-4.5566,-4.5586,-4.5586,-4.5547,-4.5605,-4.574,-4.5836,-4.5855,-4.6028,-4.6047,-4.6124,-4.6701,-4.7124,-4.7028,-4.6567,-4.6413,-4.6971,-4.7105,-4.7336,-4.7875,-4.8009,-4.8105,-4.7971,-4.8009,-4.8105,-4.8105,-4.8105,-4.8105,-4.7952,-4.8086,-4.8029,-4.8067,-4.7971,-4.8105,-4.8102,-4.8238,-4.8337,-4.8337,-4.8452,-4.8432,-5.0582,-5.0637,-5.0677,-5.0692,-5.082,-5.082,-5.082,-5.0784,-5.0563,-5.0457,-5.0441,-5.0475,-5.0457,-5.0459,-5.0457,-5.0453,-5.0453,-5.0435,-5.0453,-5.0417,-4.9738,-4.9428,-4.941,-4.8655,-4.8306,-4.8324,-4.8306,-4.8421,-4.8544,-4.8526,-4.8624,-4.8789,-4.8821,-4.8638,-4.8266,-4.78,-4.7506,-4.7354,-4.6001,-4.5277,-4.5277,-4.5277,-4.5277,-4.5277,-4.5316,-4.5277,-4.5277,-4.5316,-4.5297,-4.5235,-4.5216,-4.5235,-4.5235,-4.5192,-4.5173,-4.5216,-4.5194,-4.5173,-4.5173,-4.5213,-4.5235,-4.5216,-4.5338,-4.5398,-4.5398,-4.54,-4.5419,-4.54,-4.5419,-4.5438,-4.5495,-4.5513,-4.5532,-4.5624,-4.5605,-4.5586,-4.5663,-4.5682,-4.5701,-4.574,-4.6278,-4.6721,-4.6759,-4.7259,-4.7605,-4.7702,-4.7778,-4.7952,-4.799,-4.7836,-4.7798,-4.7913,-4.7932,-4.799,-4.8259,-4.8125,-4.8259,-4.8105,-4.8221,-4.8317,-4.8336,-4.8317,-4.8317,-4.8163,-4.8298,-4.824,-4.8221,-4.8105,-4.8259,-4.8335,-4.8779,-4.9183,-4.9221,-4.9702,-4.9779,-5.1106,-5.1444,-5.1463,-5.1701,-5.2105,-5.2105,-5.2123,-5.2105,-5.2105,-5.1573,-5.0842,-5.0802,-5.0817,-5.079,-5.0817,-5.082,-5.082,-5.082,-5.082,-5.0784,-5.0597,-5.0268,-4.9825,-4.9635,-4.9294,-4.8869,-4.8832,-4.8934,-4.9048,-4.908,-4.9145,-4.9333,-4.9483,-4.9438,-4.9235,-4.8772,-4.8483,-4.8483,-4.7261,-4.6653,-4.6653,-4.6653,-4.6672,-4.6653,-4.6653,-4.6653,-4.6672,-4.6672,-4.6653,-4.6653,-4.6672,-4.6653,-4.6653,-4.6214,-4.5965,-4.5946,-4.5526,-4.5277,-4.5277,-4.5277,-4.5277,-4.5297,-4.5359,-4.5609,-4.6032,-4.5649,-4.5419,-4.5438,-4.5438,-4.5438,-4.555,-4.5513,-4.5705,-4.6278,-4.6297,-4.6471,-4.6874,-4.6971,-4.6951,-4.699,-4.7298,-4.7548,-4.7548,-4.7875,-4.8105,-4.8144,-4.8452,-4.8933,-4.9394,-4.9471,-4.9317,-4.8933,-4.8798,-4.9048,-4.9375,-4.951,-4.951,-4.951,-4.951,-4.951,-4.951,-4.949,-4.949,-4.951,-4.949,-4.951,-4.9471,-4.9529,-4.951,-4.9548,-4.976,-5.0087,-5.0202,-5.0452,-5.0356,-5.1864,-5.2499,-5.2499,-5.285,-5.344,-5.344,-5.344,-5.344,-5.344,-5.2769,-5.1669,-5.1408,-5.1344,-5.1347,-5.1326,-5.1393,-5.1419,-5.1477,-5.1498,-5.1597,-5.1658,-5.1355,-5.0703,-5.0689,-5.0253,-4.9633,-4.9396,-4.9363,-4.9405,-4.9405,-4.9453,-4.9541,-4.9803,-4.9929,-4.991,-4.9539,-4.9362,-4.932,-4.8713,-4.82,-4.7796,-4.7799,-4.7799,-4.7799,-4.7799,-4.7799,-4.7799,-4.7799,-4.7799,-4.7799,-4.7799,-4.7799,-4.778,-4.7169,-4.6787,-4.6748,-4.6214,-4.5851,-4.5851,-4.587,-4.5851,-4.5851,-4.5912,-4.6202,-4.674,-4.6359,-4.5995,-4.6033,-4.611,-4.6109,-4.6222,-4.6164,-4.6377,-4.7105,-4.7163,-4.7375,-4.7971,-4.8105,-4.8105,-4.8105,-4.8279,-4.8413,-4.8413,-4.8567,-4.8759,-4.8894,-4.9279,-4.9952,-5.0548,-5.0683,-5.0375,-4.9952,-4.9702,-4.9894,-5.0587,-5.0625,-5.0606,-5.0683,-5.0625,-5.0529,-5.0548,-5.0625,-5.0664,-5.0548,-5.0606,-5.0529,-5.0625,-5.0625,-5.0567,-5.051,-5.0548,-5.0625,-5.0625,-5.0644,-5.0683,-5.369,-5.4062,-5.4027,-5.4137,-5.4158,-5.4177,-5.4158,-5.4158,-5.4193,-5.4112,-5.3797,-5.3285,-5.2949,-5.2981,-5.2907,-5.3046,-5.3326,-5.342,-5.3554,-5.3802,-5.3268,-5.2855,-5.2606,-5.1324,-5.0554,-5.0366,-4.972,-4.9512,-4.973,-4.9776,-4.9903,-5.0188,-5.0236,-5.0255,-5.024,-5.0183,-5.0187,-5.0187,-5.0111,-4.9347,-4.7892,-4.7796,-4.7799,-4.7799,-4.7837,-4.7799,-4.7895,-4.7799,-4.7818,-4.7799,-4.7857,-4.7818,-4.7818,-4.7723,-4.7685,-4.7685,-4.7589,-4.757,-4.7551,-4.757,-4.7513,-4.757,-4.7494,-4.7573,-4.7747,-4.7756,-4.776,-4.776,-4.7798,-4.7702,-4.7875,-4.776,-4.776,-4.7952,-4.799,-4.8048,-4.8202,-4.8105,-4.8105,-4.8105,-4.8875,-4.926,-4.9336,-4.9837,-5.0298,-5.0164,-5.0279,-5.0471,-5.0625,-5.0683,-5.0664,-5.0548,-5.0548,-5.0548,-5.0683,-5.0683,-5.0683,-5.0683,-5.0683,-5.0683,-5.0683,-5.0683,-5.0683,-5.0683,-5.0683,-5.0683,-5.0683,-5.0683,-5.0683,-5.0683,-5.0683,-5.0683,-5.0683,-5.0683,-5.0683,-5.4151,-5.4296,-5.4296,-5.4296,-5.4296,-5.4296,-5.4296,-5.4296,-5.4296,-5.4292,-5.4261,-5.3982,-5.3714,-5.3506,-5.3298,-5.34,-5.3682,-5.372,-5.3907,-5.4277,-5.4169,-5.3886,-5.3301,-5.2428,-5.1649,-5.1136,-5.0301,-4.9974,-5.0076,-5.0076,-5.0188,-5.0278,-5.0302,-5.0302,-5.0302,-5.0302,-5.0302,-5.0302,-5.0302,-4.9958,-4.9385,-4.9289,-4.9289,-4.9289,-4.9289,-4.9289,-4.9289,-4.9289,-4.9289,-4.927,-4.9289,-4.9289,-4.9289,-4.8831,-4.8563,-4.8525,-4.8086,-4.7799,-4.7799,-4.7799,-4.7799,-4.7799,-4.7799,-4.8009,-4.8548,-4.8613,-4.883,-4.9238,-4.8625,-4.8105,-4.8125,-4.8105,-4.8298,-4.874,-4.8875,-4.9048,-4.9586,-4.9606,-4.9625,-4.9683,-4.9933,-5.0164,-5.0202,-5.0471,-5.0683,-5.0683,-5.0683,-5.0683,-5.0683,-5.0683,-5.0683,-5.0683,-5.0683,-5.0683,-5.0683,-5.0683,-5.0683,-5.0683,-5.0683,-5.0683,-5.0683,-5.0683,-5.0683,-5.0683,-5.0683,-5.0683,-5.0683,-5.0683,-5.0683,-5.0683,-5.0683,-5.0683,-5.0683,-5.0683,-5.0683,-5.4505,-5.4623,-5.4629,-5.461,-5.461,-5.461,-5.461,-5.461,-5.4578,-5.4591,-5.4578,-5.4495,-5.4303,-5.3963,-5.3637,-5.368,-5.3979,-5.3997,-5.4209,-5.4578,-5.4855,-5.4658,-5.4059,-5.3162,-5.248,-5.183,-5.0794,-5.0302,-5.0302,-5.0302,-5.0302,-5.0302,-5.0302,-5.0302,-5.0302,-5.0302,-5.0302,-5.0302,-5.0302,-5.0302,-5.0283,-5.0302,-5.0302,-5.0302,-5.0302,-5.0302,-5.0302,-5.0302,-5.0302,-5.0302,-5.0302,-5.0302,-5.0283,-4.9748,-4.9423,-4.9385,-4.885,-4.8487,-4.8487,-4.8487,-4.8487,-4.8487,-4.8506,-4.8754,-4.9274,-4.9453,-4.9723,-5.0147,-4.9391,-4.8818,-4.876,-4.876,-4.9087,-4.9663,-4.9721,-5.0048,-5.0567,-5.0683,-5.0625,-5.0683,-5.0567,-5.0683,-5.0683,-5.0683,-5.0683,-5.0683,-5.0683,-5.0683,-5.0683,-5.0683,-5.0683,-5.0683,-5.0683,-5.0683,-5.0683,-5.0683,-5.0683,-5.0683,-5.0683,-5.0683,-5.0683,-5.0683,-5.0683,-5.0683,-5.0683,-5.0683,-5.0683,-5.0683,-5.0683,-5.0683,-5.0683,-5.0683,-5.0683,-5.0683,-5.0683,-5.4995,-5.5313,-5.5332,-5.5325,-5.5332,-5.5305,-5.5332,-5.526,-5.5286,-5.5332,-5.5233,-5.4933,-5.4743,-5.4713,-5.4401,-5.443,-5.4716,-5.4716,-5.4903,-5.526,-5.5332,-5.5339,-5.5186,-5.3626,-5.2766,-5.2499,-5.1028,-5.0302,-5.0302,-5.0302,-5.0302,-5.0302,-5.0302,-5.0302,-5.0302,-5.0302,-5.0302,-5.0302,-5.0302,-5.0302,-5.0302,-5.0302,-5.0302,-5.0302,-5.0302,-5.0302,-5.0302,-5.0302,-5.0302,-5.0302,-5.0302,-5.0302,-5.0302,-5.0245,-5.0206,-5.0187,-5.0168,-5.013,-5.0092,-5.0054,-5.0054,-5.0111,-4.9977,-5.0149,-5.0092,-5.0176,-5.0256,-5.0374,-5.0265,-5.0193,-5.0214,-5.0141,-5.0296,-5.0411,-5.0548,-5.0625,-5.0664,-5.0683,-5.0683,-5.0683,-5.0683,-5.0683,-5.0683,-5.0683,-5.0683,-5.0683,-5.0683,-5.0683,-5.0683,-5.0683,-5.0683,-5.0702,-5.0721,-5.0721,-5.0702,-5.0702,-5.0683,-5.0856,-5.0952,-5.0798,-5.0721,-5.0683,-5.0721,-5.0683,-5.0683,-5.0683,-5.0683,-5.0683,-5.0683,-5.0683,-5.0683,-5.0683,-5.0683,-5.0683,-5.0683,-5.5243,-5.5403,-5.5403,-5.5403,-5.5403,-5.5403,-5.5403,-5.5403,-5.5403,-5.5403,-5.5377,-5.526,-5.5183,-5.5167,-5.5075,-5.4952,-5.4825,-5.4825,-5.499,-5.5358,-5.5403,-5.5403,-5.5212,-5.3626,-5.2785,-5.2537,-5.1104,-5.0302,-5.0302,-5.0302,-5.0302,-5.0302,-5.0302,-5.0302,-5.0302,-5.0302,-5.0302,-5.0302,-5.0302,-5.0302,-5.0302,-5.0302,-5.0302,-5.0302,-5.0302,-5.0302,-5.0302,-5.0302,-5.0302,-5.0302,-5.0302,-5.0302,-5.0302,-5.0302,-5.0302,-5.0302,-5.0302,-5.0302,-5.0302,-5.0302,-5.0302,-5.0302,-5.0302,-5.0302,-5.0302,-5.0344,-5.0325,-5.0348,-5.0348,-5.039,-5.0412,-5.0478,-5.0521,-5.0542,-5.0603,-5.0623,-5.0643,-5.0682,-5.0683,-5.0683,-5.0683,-5.0683,-5.0683,-5.0683,-5.0683,-5.0683,-5.0683,-5.0702,-5.0702,-5.0683,-5.0741,-5.0798,-5.1125,-5.1452,-5.1471,-5.0971,-5.0818,-5.1279,-5.1491,-5.151,-5.1471,-5.1491,-5.1548,-5.0952,-5.0818,-5.076,-5.0779,-5.0702,-5.0702,-5.0702,-5.0702,-5.0663,-5.0683,-5.0779,-5.074,-5.5403,-5.5403,-5.5403,-5.5403,-5.5403,-5.5403,-5.5403,-5.5403,-5.5403,-5.5403,-5.5403,-5.5403,-5.5403,-5.5403,-5.5403,-5.526,-5.499,-5.499,-5.5159,-5.5377,-5.5403,-5.5269,-5.4772,-5.3473,-5.2652,-5.2251,-5.099,-5.0302,-5.0302,-5.0302,-5.0302,-5.0302,-5.0302,-5.0302,-5.0302,-5.0302,-5.0302,-5.0302,-5.0302,-5.0302,-5.0302,-5.0302,-5.0302,-5.0302,-5.0302,-5.0302,-5.0302,-5.0302,-5.0302,-5.0302,-5.0302,-5.0302,-5.0302,-5.0302,-5.0302,-5.0302,-5.0302,-5.0302,-5.0302,-5.0302,-5.0302,-5.0302,-5.0302,-5.0302,-5.0302,-5.0302,-5.0302,-5.0302,-5.0302,-5.0302,-5.0348,-5.0435,-5.0459,-5.0478,-5.0521,-5.0563,-5.0582,-5.0603,-5.0623,-5.0623,-5.0623,-5.0643,-5.0663,-5.0663,-5.0663,-5.0683,-5.0683,-5.076,-5.101,-5.1087,-5.1241,-5.1491,-5.1991,-5.2279,-5.2337,-5.2029,-5.1856,-5.2222,-5.2337,-5.2318,-5.2298,-5.2317,-5.2028,-5.1375,-5.1029,-5.0933,-5.0837,-5.074,-5.0721,-5.0759,-5.0642,-5.0602,-5.0718,-5.0911,-5.1065,-5.5403,-5.5403,-5.5403,-5.5403,-5.5403,-5.5403,-5.5403,-5.5403,-5.5403,-5.5403,-5.5403,-5.5403,-5.5403,-5.5403,-5.5403,-5.5377,-5.5332,-5.5332,-5.5358,-5.5403,-5.5403,-5.5002,-5.4295,-5.3301,-5.2327,-5.1582,-5.0722,-5.0302,-5.0302,-5.0302,-5.0302,-5.0302,-5.0302,-5.0302,-5.0302,-5.0302,-5.0302,-5.0302,-5.0302,-5.0302,-5.0302,-5.0302,-5.0302,-5.0302,-5.0302,-5.0302,-5.0302,-5.0302,-5.0302,-5.0302,-5.0302,-5.0302,-5.0302,-5.0302,-5.0302,-5.0302,-5.0302,-5.0302,-5.0302,-5.0302,-5.0302,-5.0302,-5.0302,-5.0302,-5.0302,-5.0302,-5.0302,-5.0302,-5.0302,-5.0344,-5.0371,-5.039,-5.0412,-5.0412,-5.0459,-5.0521,-5.0521,-5.0521,-5.0521,-5.0521,-5.0562,-5.0542,-5.0602,-5.0758,-5.0874,-5.101,-5.1029,-5.126,-5.1798,-5.1933,-5.2299,-5.2818,-5.3087,-5.3183,-5.3222,-5.3222,-5.3241,-5.328,-5.3241,-5.3222,-5.3201,-5.3161,-5.2758,-5.2181,-5.1912,-5.1777,-5.1527,-5.1411,-5.1256,-5.1217,-5.0905,-5.0941,-5.1231,-5.1559,-5.1691,-5.5403,-5.5403,-5.5403,-5.5403,-5.5403,-5.5403,-5.5403,-5.5403,-5.5403,-5.5403,-5.5403,-5.5403,-5.5403,-5.5403,-5.5403,-5.5403,-5.5403,-5.5403,-5.5403,-5.5403,-5.5403,-5.525,-5.4734,-5.3473,-5.204,-5.0875,-5.0455,-5.0302,-5.0302,-5.0302,-5.0302,-5.0302,-5.0302,-5.0302,-5.0302,-5.0302,-5.0302,-5.0302,-5.0302,-5.0302,-5.0302,-5.0302,-5.0302,-5.0302,-5.0302,-5.0302,-5.0302,-5.0302,-5.0302,-5.0302,-5.0302,-5.0302,-5.0302,-5.0302,-5.0302,-5.0302,-5.0302,-5.0302,-5.0302,-5.0302,-5.0302,-5.0302,-5.0302,-5.0302,-5.0302,-5.0302,-5.0302,-5.0302,-5.0302,-5.0302,-5.0325,-5.0325,-5.0371,-5.0438,-5.0521,-5.0562,-5.0562,-5.0641,-5.0624,-5.0624,-5.0643,-5.0874,-5.1335,-5.147,-5.1702,-5.2222,-5.2299,-5.2491,-5.2722,-5.2799,-5.2818,-5.3183,-5.3587,-5.4066,-5.4086,-5.4199,-5.4372,-5.4257,-5.4163,-5.4066,-5.4045,-5.3947,-5.3503,-5.3042,-5.2752,-5.2483,-5.2233,-5.208,-5.1924,-5.2056,-5.2127,-5.2184,-5.2226,-5.2337,-5.2487,-5.5403,-5.5403,-5.5403,-5.5403,-5.5403,-5.5403,-5.5403,-5.5403,-5.5403,-5.5403,-5.5403,-5.5403,-5.5403,-5.5403,-5.5403,-5.5403,-5.5403,-5.5403,-5.5403,-5.5403,-5.5403,-5.525,-5.4811,-5.3492,-5.2136,-5.1028,-5.0779,-5.0608,-5.0302,-5.0302,-5.0302,-5.0302,-5.0302,-5.0302,-5.0302,-5.0302,-5.0302,-5.0302,-5.0302,-5.0302,-5.0302,-5.0302,-5.0302,-5.0302,-5.0302,-5.0302,-5.0302,-5.0302,-5.0302,-5.0302,-5.0302,-5.0302,-5.0302,-5.0302,-5.0302,-5.0302,-5.0302,-5.0302,-5.0302,-5.0302,-5.0302,-5.0302,-5.0302,-5.0302,-5.0302,-5.0302,-5.0302,-5.0302,-5.0302,-5.0283,-5.0325,-5.0325,-5.0393,-5.05,-5.05,-5.054,-5.0581,-5.0891,-5.1104,-5.12,-5.1411,-5.1816,-5.2181,-5.2354,-5.2547,-5.3067,-5.3203,-5.3414,-5.3549,-5.3683,-5.3759,-5.399,-5.4526,-5.4831,-5.4908,-5.5157,-5.5484,-5.5311,-5.5061,-5.4946,-5.485,-5.4786,-5.4495,-5.3728,-5.3264,-5.2861,-5.2612,-5.2666,-5.2606,-5.2928,-5.3111,-5.2786,-5.2613,-5.313,-5.336,-5.5403,-5.5403,-5.5403,-5.5403,-5.5403,-5.5403,-5.5403,-5.5403,-5.5403,-5.5403,-5.5403,-5.5403,-5.5403,-5.5403,-5.5403,-5.5403,-5.5403,-5.5403,-5.5403,-5.5403,-5.5365,-5.5021,-5.418,-5.3397,-5.2556,-5.1773,-5.1658,-5.1238,-5.055,-5.0512,-5.034,-5.0321,-5.0302,-5.0302,-5.0302,-5.0302,-5.0302,-5.0302,-5.0302,-5.0302,-5.0302,-5.0302,-5.0302,-5.0302,-5.0302,-5.0302,-5.0302,-5.0302,-5.0302,-5.0302,-5.0302,-5.0302,-5.0302,-5.0302,-5.0302,-5.0302,-5.0302,-5.0302,-5.0302,-5.0302,-5.0302,-5.0302,-5.0302,-5.0302,-5.0302,-5.0302,-5.0302,-5.0302,-5.0302,-5.0325,-5.0367,-5.0371,-5.0432,-5.0574,-5.0667,-5.0648,-5.0653,-5.1365,-5.1828,-5.2001,-5.2535,-5.3053,-5.3099,-5.3157,-5.3275,-5.3469,-5.3586,-5.393,-5.4276,-5.4583,-5.4891,-5.51,-5.525,-5.5266,-5.5247,-5.5263,-5.5551,-5.5516,-5.5359,-5.5339,-5.5301,-5.5255,-5.5231,-5.4441,-5.3871,-5.343,-5.3315,-5.3517,-5.3532,-5.3642,-5.3503,-5.3058,-5.3288,-5.3905,-5.4159,-5.5403,-5.5403,-5.5403,-5.5403,-5.5403,-5.5403,-5.5403,-5.5403,-5.5403,-5.5403,-5.5403,-5.5403,-5.5403,-5.5403,-5.5403,-5.5403,-5.5403,-5.5403,-5.5403,-5.5403,-5.5403,-5.4906,-5.4237,-5.3874,-5.3301,-5.2594,-5.2461,-5.2059,-5.1295,-5.1276,-5.0971,-5.0321,-5.0397,-5.034,-5.0302,-5.0321,-5.0302,-5.0302,-5.0302,-5.0302,-5.0302,-5.0302,-5.0302,-5.0302,-5.0302,-5.0302,-5.0302,-5.0302,-5.0302,-5.0302,-5.0302,-5.0302,-5.0302,-5.0302,-5.0302,-5.0302,-5.0302,-5.0302,-5.0302,-5.0302,-5.0302,-5.0302,-5.0302,-5.0302,-5.0302,-5.0302,-5.0302,-5.0302,-5.0302,-5.0321,-5.0344,-5.0382,-5.0654,-5.1258,-5.1392,-5.1418,-5.1579,-5.2195,-5.2752,-5.2809,-5.2998,-5.3421,-5.382,-5.4012,-5.4166,-5.461,-5.4764,-5.4783,-5.5017,-5.5132,-5.5285,-5.5339,-5.5431,-5.547,-5.5466,-5.5485,-5.5504,-5.5504,-5.5423,-5.5356,-5.5356,-5.535,-5.5301,-5.5052,-5.4771,-5.435,-5.4574,-5.4836,-5.474,-5.4377,-5.4454,-5.4295,-5.4555,-5.5,-5.4968,-5.5403,-5.5403,-5.5403,-5.5403,-5.5403,-5.5403,-5.5403,-5.5403,-5.5403,-5.5403,-5.5403,-5.5403,-5.5403,-5.5403,-5.5403,-5.5403,-5.5403,-5.5403,-5.5403,-5.5403,-5.5403,-5.5116,-5.4734,-5.4619,-5.4199,-5.3416,-5.3359,-5.2881,-5.2231,-5.2117,-5.1811,-5.141,-5.1009,-5.0856,-5.0856,-5.0455,-5.0302,-5.0302,-5.0302,-5.0302,-5.0302,-5.0302,-5.0302,-5.0302,-5.0302,-5.0302,-5.0302,-5.0302,-5.0302,-5.0302,-5.0302,-5.0302,-5.0302,-5.0302,-5.0302,-5.0302,-5.0302,-5.0302,-5.0302,-5.0302,-5.0302,-5.0302,-5.0302,-5.0302,-5.0302,-5.0302,-5.0302,-5.0302,-5.0302,-5.0493,-5.0856,-5.1123,-5.1587,-5.2088,-5.2479,-5.2564,-5.2365,-5.3075,-5.3536,-5.367,-5.392,-5.4246,-5.4756,-5.4795,-5.5025,-5.5331,-5.5351,-5.5389,-5.5446,-5.5523,-5.5499,-5.548,-5.5456,-5.5456,-5.547,-5.5446,-5.547,-5.547,-5.5451,-5.5402,-5.5396,-5.539,-5.539,-5.5365,-5.5384,-5.5403,-5.5403,-5.5403,-5.5231,-5.5078,-5.5365,-5.5384,-5.5396,-5.5383,-5.5408,-5.5403,-5.5403,-5.5403,-5.5403,-5.5403,-5.5403,-5.5403,-5.5403,-5.5403,-5.5403,-5.5403,-5.5403,-5.5403,-5.5403,-5.5403,-5.5403,-5.5403,-5.5403,-5.5403,-5.5403,-5.5403,-5.5307,-5.5269,-5.5231,-5.4887,-5.4314,-5.4218,-5.3702,-5.3148,-5.2938,-5.2843,-5.248,-5.1964,-5.1773,-5.1563,-5.0932,-5.0493,-5.0493,-5.0359,-5.0302,-5.0302,-5.0302,-5.0302,-5.0302,-5.0302,-5.0302,-5.0302,-5.0302,-5.0302,-5.0302,-5.0302,-5.0302,-5.0302,-5.0302,-5.0302,-5.0302,-5.0302,-5.0302,-5.0302,-5.0302,-5.0302,-5.0302,-5.0302,-5.0302,-5.0302,-5.0302,-5.0378,-5.0608,-5.0455,-5.0932,-5.1639,-5.2403,-5.2805,-5.3077,-5.3664,-5.3809,-5.3579,-5.3947,-5.4407,-5.4426,-5.5059,-5.5384,-5.5499,-5.548,-5.548,-5.5375,-5.547,-5.547,-5.547,-5.547,-5.5427,-5.5427,-5.5402,-5.5402,-5.539,-5.5384,-5.5409,-5.5409,-5.5409,-5.5409,-5.539,-5.5384,-5.5384,-5.5403,-5.5403,-5.5403,-5.5403,-5.5403,-5.5403,-5.5403,-5.5403,-5.5403,-5.5384,-5.5396,-5.5402,-5.5403,-5.5403,-5.5403,-5.5403,-5.5403,-5.5403,-5.5403,-5.5403,-5.5403,-5.5403,-5.5403,-5.5403,-5.5403,-5.5403,-5.5403,-5.5403,-5.5403,-5.5403,-5.5403,-5.5403,-5.5403,-5.5403,-5.5403,-5.5403,-5.5288,-5.5059,-5.5097,-5.4639,-5.4008,-5.376,-5.3473,-5.29,-5.2766,-5.2556,-5.2422,-5.1754,-5.1319,-5.1204,-5.0726,-5.044,-5.0405,-5.0425,-5.0386,-5.0325,-5.0325,-5.0302,-5.0302,-5.0302,-5.0302,-5.0302,-5.0302,-5.0302,-5.0302,-5.0302,-5.0302,-5.0302,-5.0302,-5.0302,-5.0302,-5.0302,-5.0302,-5.0302,-5.0378,-5.0302,-5.0302,-5.0397,-5.0703,-5.11,-5.1348,-5.1677,-5.2461,-5.332,-5.3722,-5.3989,-5.4524,-5.4982,-5.4937,-5.4981,-5.5063,-5.5164,-5.5279,-5.5427,-5.5415,-5.5415,-5.5415,-5.5434,-5.5434,-5.5434,-5.5415,-5.5415,-5.5415,-5.5371,-5.539,-5.539,-5.539,-5.5403,-5.5403,-5.5403,-5.5403,-5.5403,-5.5403,-5.5403,-5.5403,-5.5403,-5.5403,-5.5403,-5.5403,-5.5403,-5.5403,-5.5403,-5.5403,-5.5403,-5.5384,-5.539,-5.5396,-5.5403,-5.5403,-5.5403,-5.5403,-5.5403,-5.5403,-5.5403,-5.5403,-5.5403,-5.5403,-5.5403,-5.5403,-5.5403,-5.5403,-5.5403,-5.5403,-5.5403,-5.5403,-5.5403,-5.5403,-5.5403,-5.5403,-5.5403,-5.5403,-5.5403,-5.5403,-5.5384,-5.5078,-5.4811,-5.4658,-5.4486,-5.4008,-5.3626,-5.3435,-5.3282,-5.26,-5.225,-5.2267,-5.1877,-5.1459,-5.1162,-5.1104,-5.0813,-5.0542,-5.0423,-5.0421,-5.0486,-5.0333,-5.0352,-5.0352,-5.0348,-5.0321,-5.0302,-5.0302,-5.0302,-5.0302,-5.0302,-5.0302,-5.0302,-5.0302,-5.0302,-5.0359,-5.0646,-5.0875,-5.1047,-5.1219,-5.1639,-5.2016,-5.2207,-5.2499,-5.3339,-5.4199,-5.4619,-5.4772,-5.5097,-5.5384,-5.5384,-5.539,-5.5396,-5.5396,-5.5377,-5.539,-5.5384,-5.5403,-5.5403,-5.5409,-5.5409,-5.5409,-5.5409,-5.5409,-5.5409,-5.5384,-5.5384,-5.5384,-5.5384,-5.5403,-5.5403,-5.5403,-5.5403,-5.5403,-5.5403,-5.5403,-5.5403,-5.5403,-5.5403,-5.5403,-5.5403,-5.5403,-5.5403,-5.5403,-5.5403,-5.5403,-5.5403,-5.5409,-5.5409,-5.5403,-5.5403,-5.5403,-5.5403,-5.5403,-5.5403,-5.5403,-5.5403,-5.5403,-5.5403,-5.5403,-5.5403,-5.5403,-5.5403,-5.5403,-5.5403,-5.5403,-5.5403,-5.5403,-5.5403,-5.5403,-5.5403,-5.5403,-5.5403,-5.5403,-5.5403,-5.5403,-5.5326,-5.5326,-5.5384,-5.5174,-5.5174,-5.4708,-5.4369,-5.4115,-5.3532,-5.3187,-5.3297,-5.3009,-5.2685,-5.2254,-5.2161,-5.1835,-5.1413,-5.0952,-5.1068,-5.1202,-5.1123,-5.0941,-5.0931,-5.0782,-5.0753,-5.0673,-5.034,-5.0417,-5.0474,-5.0608,-5.076,-5.0971,-5.0875,-5.0837,-5.0722,-5.1314,-5.1735,-5.1926,-5.2251,-5.2633,-5.2952,-5.3206,-5.3569,-5.4256,-5.483,-5.525,-5.5345,-5.5365,-5.5403,-5.5403,-5.5403,-5.5384,-5.5384,-5.5384,-5.5384,-5.5384,-5.5403,-5.5403,-5.5403,-5.5403,-5.5403,-5.5403,-5.5403,-5.5403,-5.5403,-5.5403,-5.5403,-5.5403,-5.5403,-5.5403,-5.5403,-5.5403,-5.5403,-5.5403,-5.5403,-5.5403,-5.5403,-5.5403,-5.5403,-5.5403,-5.5403,-5.5403,-5.5403,-5.5403,-5.5403,-5.5403,-5.5403,-5.5403,-5.5403,-5.5403,-5.5403,-5.5403,-5.5403,-5.5403,-5.5403,-5.5403,-5.5403,-5.5403,-5.5403,-5.5403,-5.5403,-5.5403,-5.5403,-5.5403,-5.5403,-5.5403,-5.5403,-5.5403,-5.5403,-5.5403,-5.5403,-5.5403,-5.5403,-5.5403,-5.5403,-5.5403,-5.5403,-5.5403,-5.5403,-5.539,-5.5322,-5.524,-5.5058,-5.4684,-5.4262,-5.4245,-5.3841,-5.3393,-5.3191,-5.3,-5.293,-5.2582,-5.2066,-5.2104,-5.2605,-5.2761,-5.282,-5.282,-5.2701,-5.2579,-5.2209,-5.1181,-5.0903,-5.1219,-5.1391,-5.1563,-5.1983,-5.2231,-5.2346,-5.2422,-5.2499,-5.2575,-5.2652,-5.2824,-5.3359,-5.3874,-5.4448,-5.4963,-5.5135,-5.5307,-5.5365,-5.5403,-5.5403,-5.5403,-5.5403,-5.5403,-5.5403,-5.5403,-5.5403,-5.5403,-5.5403,-5.5403,-5.5403,-5.5403,-5.5403,-5.5403,-5.5403,-5.5403,-5.5403,-5.5403,-5.5403,-5.5403,-5.5403,-5.5403,-5.5403,-5.5403,-5.5403,-5.5403,-5.5403,-5.5403,-5.5403,-5.5403,-5.5403,-5.5403,-5.5403,-5.5403,-5.5403,-5.5403,-5.5403,-5.5403,-5.5403,-5.5403,-5.5403,-5.5403,-5.5403,-5.5403,-5.5403,-5.5403,-5.5403,-5.5403,-5.5403,-5.5403,-5.5403,-5.5403,-5.5403,-5.5403,-5.5403,-5.5403,-5.5403,-5.5403,-5.5403,-5.5403,-5.5403,-5.5403,-5.5403,-5.5403,-5.5403,-5.5403,-5.5403,-5.5403,-5.5403,-5.5403,-5.5403,-5.5434,-5.5495,-5.5593,-5.5621,-5.563,-5.5403,-5.5268,-5.5133,-5.4877,-5.4478,-5.411,-5.3805,-5.3538,-5.3387,-5.3127,-5.3069,-5.3313,-5.3353,-5.3333,-5.3331,-5.3262,-5.3225,-5.2954,-5.2547,-5.1941,-5.2207,-5.2231,-5.2346,-5.2728,-5.2785,-5.2747,-5.2843,-5.3187,-5.3454,-5.3607,-5.3913,-5.4256,-5.4696,-5.4982,-5.5403,-5.5365,-5.5403,-5.5403,-5.5403,-5.5403,-5.5403,-5.5403,-5.5403,-5.5403,-5.5403,-5.5403,-5.5403,-5.5403,-5.5403,-5.5403,-5.5403,-5.5403,-5.5403,-5.5403,-5.5403,-5.5403,-5.5403,-5.5403,-5.5403,-5.5403,-5.5403,-5.5403,-5.5403,-5.5403,-5.5403,-5.5403,-5.5403,-5.5403,-5.5403,-5.5403,-5.5403,-5.5403,-5.5403,-5.5403,-5.5403,-5.5403,-5.5403,-5.5403,-5.5403,-5.5403,-5.5403,-5.5403,-5.5403,-5.5403,-5.5403,-5.5403,-5.5403,-5.5403,-5.5403,-5.5403,-5.5403,-5.5403,-5.5403,-5.5403,-5.5403,-5.5403,-5.5403,-5.5403,-5.5403,-5.5403,-5.5403,-5.5403,-5.5403,-5.5403,-5.5403,-5.5403,-5.5403,-5.5403,-5.5403,-5.5434,-5.5495,-5.5573,-5.5621,-5.5748,-5.5808,-5.5822,-5.5952,-5.602,-5.6052,-5.5744,-5.5178,-5.4446,-5.4077,-5.4155,-5.3979,-5.394,-5.433,-5.427,-5.4204,-5.42,-5.4078,-5.3895,-5.3857,-5.3819,-5.3667,-5.3433,-5.3226,-5.3183,-5.3413,-5.3435,-5.3607,-5.3645,-5.4046,-5.4276,-5.4467,-5.4811,-5.5269,-5.5403,-5.5403,-5.5403,-5.5403,-5.5403,-5.5403,-5.5403,-5.5403,-5.5403,-5.5403,-5.5403,-5.5403,-5.5403,-5.5403,-5.5403,-5.5403,-5.5403,-5.5403,-5.5403,-5.5403,-5.5403,-5.5403,-5.5403,-5.5403,-5.5403,-5.5403,-5.5403,-5.5403,-5.5403,-5.5403,-5.5403,-5.5403,-5.5403,-5.5403,-5.5403,-5.5403,-5.5403,-5.5403,-5.5403,-5.5403,-5.5403,-5.5403,-5.5403,-5.5403,-5.5403,-5.5403,-5.5403,-5.5403,-5.5403,-5.5403,-5.5403,-5.5403,-5.5403,-5.5403,-5.5403,-5.5403,-5.5403,-5.5403,-5.5403,-5.5403,-5.5403,-5.5403,-5.5403,-5.5403,-5.5403,-5.5403,-5.5403,-5.5403,-5.5403,-5.5403,-5.5403,-5.5403,-5.5403,-5.5403,-5.5403,-5.5403,-5.5434,-5.5519,-5.5573,-5.5643,-5.5808,-5.5968,-5.6004,-5.6087,-5.6265,-5.6246,-5.6246,-5.6201,-5.5981,-5.5262,-5.5281,-5.5476,-5.5288,-5.5081,-5.5573,-5.5578,-5.5669,-5.5714,-5.568,-5.5656,-5.5678,-5.5574,-5.5519,-5.5209,-5.4799,-5.4441,-5.4917,-5.4877,-5.4798,-5.4759,-5.5059,-5.5231,-5.5193,-5.5193,-5.5403,-5.5403,-5.5403,-5.5403,-5.5403,-5.5403,-5.5403,-5.5403,-5.5403,-5.5403,-5.5403,-5.5403,-5.5403,-5.5403,-5.5403,-5.5403,-5.5403,-5.5403,-5.5403,-5.5403,-5.5403,-5.5403,-5.5403,-5.5403,-5.5403,-5.5403,-5.5403,-5.5403,-5.5403,-5.5403,-5.5403,-5.5403,-5.5403,-5.5403,-5.5403,-5.5403,-5.5403,-5.5403,-5.5403,-5.5403,-5.5403,-5.5403,-5.5403,-5.5403,-5.5403,-5.5403,-5.5403,-5.5403,-5.5403,-5.5403,-5.5403,-5.5403,-5.5403,-5.5403,-5.5403,-5.5403,-5.5403,-5.5403,-5.5403,-5.5403,-5.5403,-5.5403,-5.5403,-5.5403,-5.5403,-5.5403,-5.5403,-5.5403,-5.5403,-5.5403,-5.5403,-5.5403,-5.5403,-5.5403,-5.5434,-5.5465,-5.5519,-5.5542,-5.5573,-5.5643,-5.5827,-5.5935,-5.6071,-5.6117,-5.6246,-5.6291,-5.6291,-5.6291,-5.6311,-5.6194,-5.5961,-5.5903,-5.6272,-5.5883,-5.5981,-5.6175,-5.6311,-5.6311,-5.6291,-5.6199,-5.6185,-5.6151,-5.6102,-5.6071,-5.6017,-5.559,-5.5422,-5.5593,-5.5573,-5.5542,-5.549,-5.546,-5.5365,-5.5403,-5.5403,-5.5403,-5.5403,-5.5403,-5.5403,-5.5403,-5.5403,-5.5403,-5.5403,-5.5403,-5.5403,-5.5403,-5.5403,-5.5403,-5.5403,-5.5403,-5.5403,-5.5403,-5.5403,-5.5403,-5.5403,-5.5403,-5.5403,-5.5403,-5.5403,-5.5403,-5.5403,-5.5403,-5.5403,-5.5403,-5.5403,-5.5403,-5.5403,-5.5403,-5.5403,-5.5403,-5.5403,-5.5403,-5.5403,-5.5403,-5.5403,-5.5403,-5.5403,-5.5403,-5.5403,-5.5403,-5.5403,-5.5403,-5.5403,-5.5403,-5.5451,-5.546,-5.5428,-5.5403,-5.5403,-5.5403,-5.5403,-5.5403,-5.5403,-5.5403,-5.5403,-5.5403,-5.5403,-5.5403,-5.5403,-5.5403,-5.5403,-5.5403,-5.5403,-5.5403,-5.5403,-5.5409,-5.5434,-5.5434,-5.5434,-5.5514,-5.5547,-5.564,-5.5707,-5.5748,-5.5808,-5.602,-5.6071,-5.617,-5.6265,-5.6311,-5.6311,-5.6311,-5.6311,-5.6311,-5.6291,-5.6291,-5.6253,-5.6311,-5.6291,-5.6311,-5.6311,-5.6311,-5.6311,-5.6291,-5.6291,-5.6278,-5.6278,-5.6265,-5.6265,-5.6232,-5.5986,-5.5943,-5.59,-5.5788,-5.5686,-5.5618,-5.5542,-5.544,-5.5403,-5.5403,-5.5403,-5.5403,-5.5403,-5.5403,-5.5403,-5.5403,-5.5403,-5.5403,-5.5403,-5.5403,-5.5403,-5.5403,-5.5403,-5.5403,-5.5403,-5.5403,-5.5403,-5.5403,-5.5403,-5.5403,-5.5403,-5.5403,-5.5403,-5.5403,-5.5403,-5.5403,-5.5403,-5.5403,-5.5403,-5.5403,-5.5403,-5.5403,-5.5403,-5.5403,-5.5403,-5.5403,-5.5403,-5.5403,-5.5403,-5.5403,-5.5403,-5.5403,-5.5403,-5.5403,-5.5403,-5.5403,-5.5403,-5.5403,-5.5403,-5.5591,-5.5573,-5.544,-5.5403,-5.5403,-5.5403,-5.5403,-5.5403,-5.5403,-5.5403,-5.5403,-5.5403,-5.5403,-5.5403,-5.5428,-5.5428,-5.5403,-5.5403,-5.5434,-5.5409,-5.5403,-5.5465,-5.5514,-5.5519,-5.5542,-5.5707,-5.5728,-5.5789,-5.59,-5.5954,-5.5968,-5.602,-5.6151,-5.6265,-5.6311,-5.6311,-5.6311,-5.6311,-5.6311,-5.6311,-5.6311,-5.6311,-5.6311,-5.6311,-5.6311,-5.6311,-5.6311,-5.6311,-5.6311,-5.6311,-5.6311,-5.6311,-5.6311,-5.6311,-5.6311,-5.6278,-5.6278,-5.6218,-5.6141,-5.5937,-5.5827,-5.5749,-5.5643,-5.5519,-5.546,-5.5384,-5.5403,-5.5403,-5.5403,-5.5403,-5.5403,-5.5403,-5.5403,-5.5403,-5.5403,-5.5403,-5.5403,-5.5403,-5.5403,-5.5403,-5.5403,-5.5403,-5.5403,-5.5403,-5.5403,-5.5403,-5.5403,-5.5403,-5.5403,-5.5403,-5.5403,-5.5403,-5.5403,-5.5403,-5.5403,-5.5403,-5.5403,-5.5403,-5.5403,-5.5403,-5.5403,-5.5403,-5.5403,-5.5403,-5.5403,-5.5403,-5.5403,-5.5403,-5.5403,-5.5403,-5.5403,-5.5403,-5.5403,-5.5403,-5.5403,-5.5724,-5.5708,-5.5665,-5.5547,-5.5403,-5.5403,-5.5403,-5.5403,-5.5403,-5.5403,-5.5403,-5.5403,-5.5403,-5.5409,-5.5495,-5.5519,-5.5519,-5.5519,-5.557,-5.5547,-5.5542,-5.5547,-5.5596,-5.564,-5.5599,-5.5789,-5.5827,-5.5883,-5.5985,-5.6102,-5.6185,-5.6232,-5.6259,-5.6278,-5.6311,-5.6311,-5.6311,-5.6311,-5.6311,-5.6311,-5.6311,-5.6311,-5.6311,-5.6311,-5.6311,-5.6311,-5.6311,-5.6311,-5.6311,-5.6311,-5.6311,-5.6311,-5.6311,-5.6311,-5.6311,-5.6311,-5.6311,-5.6311,-5.6278,-5.6071,-5.59,-5.5769,-5.5686,-5.5593,-5.5519,-5.544,-5.5384,-5.5403,-5.5403,-5.5409,-5.5384,-5.5403,-5.5403,-5.5403,-5.5403,-5.5384,-5.5384,-5.5409,-5.5409,-5.5409,-5.5384,-5.5403,-5.5403,-5.5403,-5.5403,-5.5403,-5.5403,-5.5403,-5.5403,-5.5403,-5.5403,-5.5403,-5.5403,-5.5403,-5.5403,-5.5403,-5.5403,-5.5403,-5.5403,-5.5403,-5.5403,-5.5403,-5.5403,-5.5403,-5.5403,-5.5403,-5.5403,-5.5403,-5.5403,-5.5403,-5.5403,-5.5403,-5.5403,-5.5403,-5.5403,-5.585,-5.5844,-5.5864,-5.5729,-5.5523,-5.5519,-5.5519,-5.5519,-5.5542,-5.5514,-5.5528,-5.5514,-5.5514,-5.5538,-5.5596,-5.5665,-5.5665,-5.5665,-5.5728,-5.5707,-5.5662,-5.5665,-5.5749,-5.5789,-5.5788,-5.5919,-5.5952,-5.6001,-5.6117,-5.6246,-5.6278,-5.6278,-5.6311,-5.6311,-5.6311,-5.6311,-5.6311,-5.6311,-5.6311,-5.6311,-5.6311,-5.6311,-5.6311,-5.6311,-5.6311,-5.6311,-5.6311,-5.6311,-5.6311,-5.6311,-5.6311,-5.6311,-5.6311,-5.6311,-5.6311,-5.6311,-5.6311,-5.6311,-5.6246,-5.6165,-5.602,-5.5882,-5.5789,-5.5708,-5.5599,-5.5523,-5.5495,-5.5396,-5.5415,-5.5415,-5.5415,-5.544,-5.544,-5.5446,-5.5465,-5.5465,-5.5446,-5.5446,-5.5421,-5.544,-5.544,-5.544,-5.5415,-5.5415,-5.5409,-5.5384,-5.5403,-5.5403,-5.5403,-5.5403,-5.5403,-5.5403,-5.5403,-5.5403,-5.5403,-5.5403,-5.5403,-5.5403,-5.5403,-5.5403,-5.5403,-5.5403,-5.5403,-5.5403,-5.5403,-5.5403,-5.5403,-5.5403,-5.5403,-5.5403,-5.5403,-5.5403,-5.5403,-5.5403,-5.5403,-5.601,-5.6001,-5.6001,-5.5917,-5.5789,-5.5769,-5.5769,-5.5749,-5.575,-5.5747,-5.5761,-5.5728,-5.5729,-5.5766,-5.5769,-5.5808,-5.5808,-5.5789,-5.5846,-5.5846,-5.5769,-5.5883,-5.5919,-5.5919,-5.5938,-5.617,-5.6151,-5.6117,-5.6259,-5.6285,-5.6304,-5.6317,-5.6297,-5.6317,-5.6304,-5.6311,-5.6311,-5.6311,-5.6311,-5.6304,-5.6317,-5.6317,-5.6329,-5.6329,-5.6329,-5.6329,-5.6321,-5.6321,-5.6321,-5.6329,-5.6317,-5.6317,-5.6329,-5.6309,-5.6309,-5.6304,-5.6304,-5.6304,-5.6291,-5.6291,-5.6185,-5.6036,-5.5952,-5.5863,-5.569,-5.5624,-5.5599,-5.5489,-5.5461,-5.5499,-5.548,-5.548,-5.548,-5.5499,-5.5476,-5.5476,-5.5476,-5.5476,-5.5451,-5.547,-5.5499,-5.5499,-5.5456,-5.5432,-5.5421,-5.539,-5.5384,-5.5403,-5.5403,-5.5403,-5.5403,-5.5403,-5.5403,-5.5403,-5.5403,-5.5403,-5.5403,-5.5403,-5.5403,-5.5403,-5.5403,-5.5403,-5.5403,-5.5403,-5.5403,-5.5403,-5.5403,-5.5403,-5.5403,-5.5403,-5.5403,-5.5403,-5.5403,-5.5403,-5.5403,-5.6187,-5.6199,-5.6199,-5.6165,-5.6106,-5.5864,-5.5789,-5.5789,-5.5789,-5.5789,-5.5788,-5.5789,-5.5801,-5.5813,-5.5913,-5.5935,-5.5935,-5.5935,-5.5952,-5.6091,-5.5937,-5.5988,-5.6056,-5.6056,-5.6071,-5.6232,-5.6232,-5.6199,-5.6291,-5.6309,-5.6314,-5.6306,-5.6347,-5.6336,-5.6309,-5.6297,-5.6302,-5.6317,-5.6309,-5.6325,-5.6356,-5.6358,-5.6368,-5.6368,-5.6368,-5.6368,-5.6349,-5.6358,-5.6358,-5.6358,-5.6367,-5.6367,-5.6368,-5.6359,-5.6329,-5.6317,-5.6294,-5.6302,-5.6317,-5.6291,-5.6278,-5.6199,-5.6112,-5.6009,-5.5946,-5.575,-5.5672,-5.5588,-5.5516,-5.5531,-5.5504,-5.5504,-5.5504,-5.5523,-5.5499,-5.5499,-5.5499,-5.5499,-5.5499,-5.5499,-5.5523,-5.5523,-5.5504,-5.5504,-5.5451,-5.5421,-5.5415,-5.5384,-5.5403,-5.5403,-5.5403,-5.5403,-5.5403,-5.5403,-5.5403,-5.5403,-5.5403,-5.5403,-5.5403,-5.5403,-5.5403,-5.5403,-5.5403,-5.5403,-5.5403,-5.5403,-5.5403,-5.5403,-5.5403,-5.5403,-5.5403,-5.5403,-5.5403,-5.5403,-5.5403,-5.6311,-5.6311,-5.6311,-5.6311,-5.6259,-5.6056,-5.5973,-5.5971,-5.5971,-5.599,-5.599,-5.5971,-5.5978,-5.6024,-5.6049,-5.6102,-5.6102,-5.6102,-5.6117,-5.6278,-5.6106,-5.6136,-5.6185,-5.6165,-5.6185,-5.6278,-5.6304,-5.6304,-5.6309,-5.6317,-5.6319,-5.6349,-5.6405,-5.6378,-5.6368,-5.6338,-5.6338,-5.6336,-5.6358,-5.6349,-5.6387,-5.6396,-5.6405,-5.6405,-5.6405,-5.6405,-5.6405,-5.6405,-5.6405,-5.6405,-5.6396,-5.6407,-5.6414,-5.6394,-5.6375,-5.6349,-5.6339,-5.6338,-5.6336,-5.6336,-5.6336,-5.6306,-5.62,-5.6161,-5.611,-5.5971,-5.5838,-5.575,-5.5628,-5.5599,-5.5573,-5.5551,-5.5551,-5.5551,-5.5551,-5.5573,-5.5573,-5.5573,-5.5573,-5.5551,-5.5551,-5.557,-5.557,-5.5527,-5.5523,-5.5476,-5.5421,-5.5415,-5.5384,-5.5403,-5.5403,-5.5403,-5.5403,-5.5403,-5.5403,-5.5403,-5.5403,-5.5403,-5.5403,-5.5403,-5.5403,-5.5403,-5.5403,-5.5403,-5.5403,-5.5403,-5.5403,-5.5403,-5.5403,-5.5403,-5.5403,-5.5403,-5.5403,-5.5403,-5.5403,-5.6311,-5.6311,-5.6311,-5.6311,-5.6291,-5.6259,-5.6278,-5.6278,-5.6278,-5.6278,-5.6278,-5.6246,-5.6239,-5.6272,-5.6291,-5.6278,-5.6259,-5.6291,-5.6285,-5.6285,-5.6226,-5.6285,-5.6285,-5.6285,-5.6297,-5.6285,-5.6329,-5.6325,-5.6308,-5.6339,-5.6368,-5.6414,-5.6491,-5.6457,-5.6422,-5.6414,-5.6416,-5.6398,-5.6407,-5.6422,-5.6445,-5.6437,-5.6437,-5.6437,-5.6437,-5.643,-5.643,-5.6449,-5.643,-5.6422,-5.6422,-5.6414,-5.6414,-5.6394,-5.6394,-5.6414,-5.6414,-5.6396,-5.6387,-5.6387,-5.6396,-5.6387,-5.6339,-5.627,-5.6173,-5.6097,-5.5971,-5.584,-5.5711,-5.5688,-5.5662,-5.5662,-5.5662,-5.5662,-5.5662,-5.5662,-5.5662,-5.5662,-5.5662,-5.5662,-5.5662,-5.5662,-5.566,-5.5638,-5.5573,-5.5504,-5.5476,-5.5421,-5.5415,-5.5384,-5.5403,-5.5403,-5.5403,-5.5403,-5.5403,-5.5403,-5.5403,-5.5403,-5.5403,-5.5403,-5.5403,-5.5403,-5.5403,-5.5403,-5.5403,-5.5403,-5.5403,-5.5403,-5.5403,-5.5403,-5.5403,-5.5403,-5.5403,-5.5403,-5.5403,-5.6336,-5.6294,-5.6317,-5.6311,-5.6311,-5.6311,-5.6311,-5.6311,-5.6311,-5.6311,-5.6311,-5.6311,-5.6304,-5.6311,-5.6311,-5.6304,-5.6317,-5.6302,-5.6294,-5.6306,-5.6325,-5.6328,-5.6338,-5.6328,-5.6338,-5.6349,-5.6359,-5.6388,-5.6396,-5.6414,-5.6471,-5.6542,-5.6567,-5.6542,-5.6542,-5.6542,-5.651,-5.6461,-5.6476,-5.6504,-5.6523,-5.6536,-5.6536,-5.6536,-5.6536,-5.6536,-5.6536,-5.6536,-5.6536,-5.6542,-5.6542,-5.6542,-5.6542,-5.6523,-5.6517,-5.6464,-5.643,-5.6405,-5.6386,-5.6405,-5.6422,-5.6464,-5.6457,-5.6377,-5.6281,-5.6166,-5.6035,-5.5927,-5.575,-5.5707,-5.5684,-5.5684,-5.5684,-5.5684,-5.5684,-5.5684,-5.5684,-5.5684,-5.5684,-5.5684,-5.5684,-5.5684,-5.5703,-5.5703,-5.5618,-5.5573,-5.5504,-5.5476,-5.5421,-5.539,-5.5403,-5.5403,-5.5403,-5.5403,-5.5403,-5.5403,-5.5403,-5.5403,-5.5403,-5.5403,-5.5403,-5.5403,-5.5403,-5.5403,-5.5403,-5.5403,-5.5403,-5.5403,-5.5403,-5.5403,-5.5403,-5.5403,-5.5403,-5.5403,-5.5403,-5.6086,-5.6289,-5.6314,-5.6297,-5.6311,-5.6311,-5.6304,-5.6309,-5.6304,-5.6311,-5.6311,-5.6297,-5.6302,-5.6356,-5.6336,-5.6336,-5.6336,-5.6349,-5.6339,-5.6339,-5.6339,-5.6378,-5.6368,-5.6368,-5.6359,-5.6386,-5.6414,-5.6405,-5.6457,-5.6504,-5.6553,-5.6602,-5.6606,-5.6606,-5.6602,-5.6597,-5.6567,-5.6556,-5.6556,-5.6572,-5.6597,-5.6606,-5.6606,-5.6606,-5.6606,-5.6606,-5.6606,-5.6606,-5.6606,-5.6606,-5.6606,-5.6606,-5.6606,-5.6602,-5.6582,-5.6542,-5.6511,-5.6485,-5.6485,-5.6498,-5.6511,-5.6536,-5.6536,-5.6445,-5.63,-5.6178,-5.6071,-5.5971,-5.5808,-5.5684,-5.5684,-5.5684,-5.5684,-5.5684,-5.5684,-5.5684,-5.5684,-5.5684,-5.5684,-5.5684,-5.5684,-5.5684,-5.5684,-5.5684,-5.5662,-5.5596,-5.5527,-5.5456,-5.5427,-5.539,-5.5384,-5.5403,-5.5403,-5.5403,-5.5403,-5.5403,-5.5403,-5.5403,-5.5403,-5.5403,-5.5403,-5.5403,-5.5403,-5.5403,-5.5403,-5.5403,-5.5403,-5.5403,-5.5403,-5.5403,-5.5403,-5.5403,-5.5403,-5.5403,-5.5403,-5.5581,-5.6212,-5.628,-5.6325,-5.6317,-5.6317,-5.6302,-5.6308,-5.6321,-5.6304,-5.6304,-5.6306,-5.6349,-5.6386,-5.6377,-5.6387,-5.6387,-5.6405,-5.6414,-5.6414,-5.6414,-5.6422,-5.6449,-5.6433,-5.6422,-5.6422,-5.643,-5.6471,-5.653,-5.6567,-5.6582,-5.6606,-5.6606,-5.6606,-5.6606,-5.6606,-5.6597,-5.6597,-5.6597,-5.6602,-5.6602,-5.6606,-5.6606,-5.6606,-5.6606,-5.6606,-5.6606,-5.6606,-5.6606,-5.6606,-5.6606,-5.6606,-5.6606,-5.6606,-5.6582,-5.6582,-5.6577,-5.6572,-5.6572,-5.6572,-5.6597,-5.6602,-5.6602,-5.6523,-5.6391,-5.6232,-5.6146,-5.6029,-5.5879,-5.5789,-5.5788,-5.5726,-5.5684,-5.5684,-5.5684,-5.5684,-5.5684,-5.5684,-5.5684,-5.5684,-5.5684,-5.5684,-5.5684,-5.5684,-5.5703,-5.5618,-5.5551,-5.548,-5.5451,-5.5415,-5.5384,-5.5403,-5.5403,-5.5403,-5.5403,-5.5403,-5.5403,-5.5403,-5.5403,-5.5403,-5.5403,-5.5403,-5.5403,-5.5403,-5.5403,-5.5403,-5.5403,-5.5403,-5.5403,-5.5403,-5.5403,-5.5403,-5.5403,-5.5403,-5.5403,-5.5293,-5.5541,-5.6132,-5.6387,-5.6369,-5.6308,-5.6319,-5.6368,-5.6319,-5.6321,-5.6368,-5.6368,-5.6371,-5.6413,-5.6418,-5.6422,-5.6422,-5.6464,-5.6491,-5.6491,-5.6471,-5.6485,-5.6536,-5.6498,-5.6504,-5.6542,-5.6548,-5.6542,-5.6572,-5.6602,-5.6606,-5.6606,-5.6606,-5.6606,-5.6606,-5.6606,-5.6606,-5.6606,-5.6606,-5.6606,-5.6606,-5.6606,-5.6606,-5.6606,-5.6606,-5.6606,-5.6606,-5.6606,-5.6606,-5.6606,-5.6606,-5.6606,-5.6606,-5.6606,-5.6606,-5.6606,-5.6606,-5.6606,-5.6606,-5.6606,-5.6606,-5.6606,-5.6602,-5.6577,-5.6478,-5.6336,-5.6191,-5.6084,-5.5959,-5.588,-5.5827,-5.5748,-5.5684,-5.5684,-5.5684,-5.5684,-5.5684,-5.5684,-5.5684,-5.5684,-5.5684,-5.5684,-5.5684,-5.5703,-5.5703,-5.566,-5.5551,-5.548,-5.5476,-5.5421,-5.5384,-5.5403,-5.5403,-5.5403,-5.5403,-5.5403,-5.5403,-5.5403,-5.5403,-5.5403,-5.5403,-5.5403,-5.5403,-5.5403,-5.5403,-5.5403,-5.5403,-5.5403,-5.5403,-5.5403,-5.5403,-5.5403,-5.5403,-5.5403,-5.5403,-5.4523,-5.5276,-5.6051,-5.6386,-5.6405,-5.6359,-5.6396,-5.6422,-5.6386,-5.6416,-5.6485,-5.6461,-5.6465,-5.6484,-5.6491,-5.6478,-5.6498,-5.6536,-5.6542,-5.6542,-5.6542,-5.6572,-5.6572,-5.6567,-5.6553,-5.6602,-5.6606,-5.6602,-5.6606,-5.6606,-5.6606,-5.6606,-5.6606,-5.6606,-5.6606,-5.6606,-5.6606,-5.6606,-5.6606,-5.6606,-5.6606,-5.6606,-5.6606,-5.6606,-5.6606,-5.6606,-5.6606,-5.6606,-5.6606,-5.6606,-5.6606,-5.6606,-5.6606,-5.6606,-5.6606,-5.6606,-5.6606,-5.6606,-5.6606,-5.6606,-5.6606,-5.6606,-5.6606,-5.6582,-5.642,-5.627,-5.6212,-5.6097,-5.5861,-5.5788,-5.5768,-5.5705,-5.5684,-5.5684,-5.5684,-5.5684,-5.5684,-5.5684,-5.5684,-5.5684,-5.5684,-5.5684,-5.5684,-5.5684,-5.5703,-5.5682,-5.5573,-5.5504,-5.5476,-5.5446,-5.539,-5.5403,-5.5403,-5.5403,-5.5403,-5.5403,-5.5403,-5.5403,-5.5403,-5.5403,-5.5403,-5.5403,-5.5403,-5.5403,-5.5403,-5.5403,-5.5403,-5.5403,-5.5403,-5.5403,-5.5403,-5.5403,-5.5403,-5.5403,-5.5403,-5.3723,-5.5243,-5.6086,-5.6441,-5.6422,-5.6422,-5.6457,-5.6504,-5.6524,-5.6536,-5.6572,-5.6536,-5.6548,-5.6577,-5.6606,-5.6606,-5.6602,-5.6597,-5.6602,-5.6602,-5.6602,-5.6602,-5.6602,-5.6602,-5.6602,-5.6602,-5.6606,-5.6606,-5.6606,-5.6606,-5.6606,-5.6606,-5.6606,-5.6606,-5.6606,-5.6606,-5.6606,-5.6606,-5.6606,-5.6606,-5.6606,-5.6606,-5.6606,-5.6606,-5.6606,-5.6606,-5.6606,-5.6606,-5.6606,-5.6606,-5.6606,-5.6606,-5.6606,-5.6606,-5.6606,-5.6606,-5.6606,-5.6606,-5.6606,-5.6606,-5.6606,-5.6606,-5.6606,-5.6528,-5.6367,-5.6242,-5.6191,-5.6044,-5.5826,-5.5748,-5.5728,-5.5705,-5.5684,-5.5684,-5.5684,-5.5684,-5.5684,-5.5684,-5.5684,-5.5684,-5.5684,-5.5684,-5.5684,-5.5684,-5.5684,-5.5682,-5.5638,-5.5551,-5.5499,-5.5427,-5.5415,-5.5384,-5.5403,-5.5403,-5.5403,-5.5403,-5.5403,-5.5403,-5.5403,-5.5403,-5.5403,-5.5403,-5.5403,-5.5403,-5.5403,-5.5403,-5.5403,-5.5403,-5.5403,-5.5403,-5.5403,-5.5403,-5.5403,-5.5403,-5.5403,-5.3698,-5.5348,-5.6202,-5.6553,-5.6548,-5.6504,-5.6511,-5.6572,-5.6517,-5.6523,-5.6577,-5.6582,-5.6582,-5.6606,-5.6606,-5.6606,-5.6606,-5.6606,-5.6606,-5.6606,-5.6606,-5.6606,-5.6606,-5.6606,-5.6606,-5.6606,-5.6606,-5.6606,-5.6606,-5.6606,-5.6606,-5.6606,-5.6606,-5.6606,-5.6606,-5.6606,-5.6606,-5.6606,-5.6606,-5.6606,-5.6606,-5.6606,-5.6606,-5.6606,-5.6606,-5.6606,-5.6606,-5.6606,-5.6606,-5.6606,-5.6606,-5.6606,-5.6606,-5.6606,-5.6606,-5.6606,-5.6606,-5.6606,-5.6606,-5.6606,-5.6606,-5.6606,-5.6582,-5.6499,-5.6347,-5.6173,-5.6083,-5.5966,-5.5825,-5.5808,-5.5789,-5.5707,-5.5684,-5.5684,-5.5684,-5.5684,-5.5684,-5.5684,-5.5684,-5.5684,-5.5684,-5.5684,-5.5684,-5.5684,-5.5684,-5.5682,-5.566,-5.5593,-5.5504,-5.5451,-5.5396,-5.539,-5.5403,-5.5403,-5.5403,-5.5403,-5.5403,-5.5403,-5.5403,-5.5403,-5.5403,-5.5403,-5.5403,-5.5403,-5.5403,-5.5403,-5.5403,-5.5403,-5.5403,-5.5403,-5.5403,-5.5403,-5.5403,-5.5403,-5.5403]}]]